<?xml version="1.0" encoding="UTF-8" standalone="no" ?>
<gpx xmlns="http://www.topografix.com/GPX/1/1" xmlns:xsi="http://www.w3.org/2001/XMLSchema-instance" xsi:schemaLocation="http://www.topografix.com/GPX/1/1 http://www.topografix.com/GPX/1/1/gpx.xsd" version="1.1" creator="VisuGPX - https://www.visugpx.com">
  <metadata>
    <name>L'Aouach 2015 10 07</name>
    <desc><![CDATA[
]]></desc>
  </metadata>
  <trk>
    <name><![CDATA[L'Aouach 2015 10 07]]></name>
    <trkseg>
      <trkpt lat="43.39513" lon="1.2993">
        <ele>173</ele>
        <time>2015-10-07T08:12:27.000Z</time>
      </trkpt>
      <trkpt lat="43.39513" lon="1.2993">
        <ele>173</ele>
        <time>2015-10-07T08:12:28.000Z</time>
      </trkpt>
      <trkpt lat="43.39504" lon="1.29935">
        <ele>173.7</ele>
        <time>2015-10-07T08:16:49.000Z</time>
      </trkpt>
      <trkpt lat="43.39498" lon="1.29944">
        <ele>173.7</ele>
        <time>2015-10-07T08:16:59.000Z</time>
      </trkpt>
      <trkpt lat="43.39492" lon="1.29954">
        <ele>173.7</ele>
        <time>2015-10-07T08:17:11.000Z</time>
      </trkpt>
      <trkpt lat="43.39483" lon="1.29962">
        <ele>173.7</ele>
        <time>2015-10-07T08:17:23.000Z</time>
      </trkpt>
      <trkpt lat="43.39475" lon="1.29967">
        <ele>173.7</ele>
        <time>2015-10-07T08:17:31.000Z</time>
      </trkpt>
      <trkpt lat="43.39466" lon="1.29973">
        <ele>173.8</ele>
        <time>2015-10-07T08:17:39.000Z</time>
      </trkpt>
      <trkpt lat="43.39457" lon="1.29977">
        <ele>173.9</ele>
        <time>2015-10-07T08:17:46.000Z</time>
      </trkpt>
      <trkpt lat="43.39448" lon="1.29982">
        <ele>174.1</ele>
        <time>2015-10-07T08:17:53.000Z</time>
      </trkpt>
      <trkpt lat="43.39439" lon="1.29986">
        <ele>174.3</ele>
        <time>2015-10-07T08:18:0.000Z</time>
      </trkpt>
      <trkpt lat="43.3943" lon="1.2999">
        <ele>174.4</ele>
        <time>2015-10-07T08:18:8.000Z</time>
      </trkpt>
      <trkpt lat="43.39421" lon="1.29994">
        <ele>174.6</ele>
        <time>2015-10-07T08:18:16.000Z</time>
      </trkpt>
      <trkpt lat="43.39412" lon="1.3">
        <ele>174.8</ele>
        <time>2015-10-07T08:18:25.000Z</time>
      </trkpt>
      <trkpt lat="43.39403" lon="1.30007">
        <ele>174.9</ele>
        <time>2015-10-07T08:18:33.000Z</time>
      </trkpt>
      <trkpt lat="43.39394" lon="1.30014">
        <ele>175.2</ele>
        <time>2015-10-07T08:18:41.000Z</time>
      </trkpt>
      <trkpt lat="43.39386" lon="1.30022">
        <ele>175.6</ele>
        <time>2015-10-07T08:18:49.000Z</time>
      </trkpt>
      <trkpt lat="43.39377" lon="1.30027">
        <ele>176</ele>
        <time>2015-10-07T08:18:57.000Z</time>
      </trkpt>
      <trkpt lat="43.39369" lon="1.30033">
        <ele>176.2</ele>
        <time>2015-10-07T08:19:4.000Z</time>
      </trkpt>
      <trkpt lat="43.39361" lon="1.3004">
        <ele>176.5</ele>
        <time>2015-10-07T08:19:12.000Z</time>
      </trkpt>
      <trkpt lat="43.39353" lon="1.30046">
        <ele>177.2</ele>
        <time>2015-10-07T08:19:21.000Z</time>
      </trkpt>
      <trkpt lat="43.39343" lon="1.30052">
        <ele>178.1</ele>
        <time>2015-10-07T08:19:30.000Z</time>
      </trkpt>
      <trkpt lat="43.39335" lon="1.30058">
        <ele>178.8</ele>
        <time>2015-10-07T08:19:38.000Z</time>
      </trkpt>
      <trkpt lat="43.39327" lon="1.30065">
        <ele>179.8</ele>
        <time>2015-10-07T08:19:47.000Z</time>
      </trkpt>
      <trkpt lat="43.39319" lon="1.30073">
        <ele>180.6</ele>
        <time>2015-10-07T08:19:55.000Z</time>
      </trkpt>
      <trkpt lat="43.39311" lon="1.30079">
        <ele>181.3</ele>
        <time>2015-10-07T08:20:2.000Z</time>
      </trkpt>
      <trkpt lat="43.39303" lon="1.30087">
        <ele>181.8</ele>
        <time>2015-10-07T08:20:9.000Z</time>
      </trkpt>
      <trkpt lat="43.39296" lon="1.30096">
        <ele>182.3</ele>
        <time>2015-10-07T08:20:16.000Z</time>
      </trkpt>
      <trkpt lat="43.39291" lon="1.30108">
        <ele>183</ele>
        <time>2015-10-07T08:20:23.000Z</time>
      </trkpt>
      <trkpt lat="43.39286" lon="1.30119">
        <ele>183.7</ele>
        <time>2015-10-07T08:20:31.000Z</time>
      </trkpt>
      <trkpt lat="43.39276" lon="1.30122">
        <ele>184</ele>
        <time>2015-10-07T08:20:37.000Z</time>
      </trkpt>
      <trkpt lat="43.39267" lon="1.30122">
        <ele>184.3</ele>
        <time>2015-10-07T08:20:43.000Z</time>
      </trkpt>
      <trkpt lat="43.39257" lon="1.30123">
        <ele>184.5</ele>
        <time>2015-10-07T08:20:51.000Z</time>
      </trkpt>
      <trkpt lat="43.39248" lon="1.30123">
        <ele>184.7</ele>
        <time>2015-10-07T08:20:59.000Z</time>
      </trkpt>
      <trkpt lat="43.39237" lon="1.30125">
        <ele>184.9</ele>
        <time>2015-10-07T08:21:7.000Z</time>
      </trkpt>
      <trkpt lat="43.39229" lon="1.30131">
        <ele>185.1</ele>
        <time>2015-10-07T08:21:14.000Z</time>
      </trkpt>
      <trkpt lat="43.39223" lon="1.30139">
        <ele>185.3</ele>
        <time>2015-10-07T08:21:21.000Z</time>
      </trkpt>
      <trkpt lat="43.39216" lon="1.30148">
        <ele>185.5</ele>
        <time>2015-10-07T08:21:28.000Z</time>
      </trkpt>
      <trkpt lat="43.39212" lon="1.30159">
        <ele>185.6</ele>
        <time>2015-10-07T08:21:35.000Z</time>
      </trkpt>
      <trkpt lat="43.39206" lon="1.30169">
        <ele>185.8</ele>
        <time>2015-10-07T08:21:42.000Z</time>
      </trkpt>
      <trkpt lat="43.392" lon="1.30179">
        <ele>185.9</ele>
        <time>2015-10-07T08:21:49.000Z</time>
      </trkpt>
      <trkpt lat="43.39194" lon="1.3019">
        <ele>186</ele>
        <time>2015-10-07T08:21:57.000Z</time>
      </trkpt>
      <trkpt lat="43.39188" lon="1.302">
        <ele>186.2</ele>
        <time>2015-10-07T08:22:5.000Z</time>
      </trkpt>
      <trkpt lat="43.3918" lon="1.30209">
        <ele>186.4</ele>
        <time>2015-10-07T08:22:13.000Z</time>
      </trkpt>
      <trkpt lat="43.39172" lon="1.30215">
        <ele>186.7</ele>
        <time>2015-10-07T08:22:20.000Z</time>
      </trkpt>
      <trkpt lat="43.39164" lon="1.30221">
        <ele>187</ele>
        <time>2015-10-07T08:22:27.000Z</time>
      </trkpt>
      <trkpt lat="43.39156" lon="1.30228">
        <ele>187.3</ele>
        <time>2015-10-07T08:22:35.000Z</time>
      </trkpt>
      <trkpt lat="43.39151" lon="1.30238">
        <ele>187.6</ele>
        <time>2015-10-07T08:22:43.000Z</time>
      </trkpt>
      <trkpt lat="43.39145" lon="1.30248">
        <ele>187.9</ele>
        <time>2015-10-07T08:22:51.000Z</time>
      </trkpt>
      <trkpt lat="43.3914" lon="1.30259">
        <ele>188.3</ele>
        <time>2015-10-07T08:22:59.000Z</time>
      </trkpt>
      <trkpt lat="43.39135" lon="1.30271">
        <ele>188.9</ele>
        <time>2015-10-07T08:23:7.000Z</time>
      </trkpt>
      <trkpt lat="43.39131" lon="1.30283">
        <ele>189.5</ele>
        <time>2015-10-07T08:23:15.000Z</time>
      </trkpt>
      <trkpt lat="43.39127" lon="1.30296">
        <ele>190.3</ele>
        <time>2015-10-07T08:23:24.000Z</time>
      </trkpt>
      <trkpt lat="43.39121" lon="1.30306">
        <ele>191.3</ele>
        <time>2015-10-07T08:23:35.000Z</time>
      </trkpt>
      <trkpt lat="43.39112" lon="1.3031">
        <ele>192.2</ele>
        <time>2015-10-07T08:23:44.000Z</time>
      </trkpt>
      <trkpt lat="43.39103" lon="1.30316">
        <ele>193.1</ele>
        <time>2015-10-07T08:23:53.000Z</time>
      </trkpt>
      <trkpt lat="43.39094" lon="1.3032">
        <ele>194.1</ele>
        <time>2015-10-07T08:24:2.000Z</time>
      </trkpt>
      <trkpt lat="43.39086" lon="1.30325">
        <ele>194.9</ele>
        <time>2015-10-07T08:24:11.000Z</time>
      </trkpt>
      <trkpt lat="43.39077" lon="1.30331">
        <ele>195.8</ele>
        <time>2015-10-07T08:24:21.000Z</time>
      </trkpt>
      <trkpt lat="43.39068" lon="1.30335">
        <ele>196.5</ele>
        <time>2015-10-07T08:24:29.000Z</time>
      </trkpt>
      <trkpt lat="43.39059" lon="1.30339">
        <ele>197.1</ele>
        <time>2015-10-07T08:24:36.000Z</time>
      </trkpt>
      <trkpt lat="43.3905" lon="1.30343">
        <ele>197.8</ele>
        <time>2015-10-07T08:24:45.000Z</time>
      </trkpt>
      <trkpt lat="43.39041" lon="1.30347">
        <ele>198.5</ele>
        <time>2015-10-07T08:24:53.000Z</time>
      </trkpt>
      <trkpt lat="43.39031" lon="1.30351">
        <ele>199.3</ele>
        <time>2015-10-07T08:25:1.000Z</time>
      </trkpt>
      <trkpt lat="43.39022" lon="1.30353">
        <ele>199.9</ele>
        <time>2015-10-07T08:25:9.000Z</time>
      </trkpt>
      <trkpt lat="43.39013" lon="1.30357">
        <ele>200.5</ele>
        <time>2015-10-07T08:25:17.000Z</time>
      </trkpt>
      <trkpt lat="43.39004" lon="1.30362">
        <ele>201.2</ele>
        <time>2015-10-07T08:25:26.000Z</time>
      </trkpt>
      <trkpt lat="43.38995" lon="1.30367">
        <ele>201.8</ele>
        <time>2015-10-07T08:25:35.000Z</time>
      </trkpt>
      <trkpt lat="43.38987" lon="1.30373">
        <ele>202.5</ele>
        <time>2015-10-07T08:25:43.000Z</time>
      </trkpt>
      <trkpt lat="43.38977" lon="1.30377">
        <ele>203.2</ele>
        <time>2015-10-07T08:25:52.000Z</time>
      </trkpt>
      <trkpt lat="43.38968" lon="1.30381">
        <ele>203.9</ele>
        <time>2015-10-07T08:26:0.000Z</time>
      </trkpt>
      <trkpt lat="43.38959" lon="1.30385">
        <ele>205.1</ele>
        <time>2015-10-07T08:26:13.000Z</time>
      </trkpt>
      <trkpt lat="43.38951" lon="1.30388">
        <ele>205.9</ele>
        <time>2015-10-07T08:26:24.000Z</time>
      </trkpt>
      <trkpt lat="43.38941" lon="1.30389">
        <ele>206.7</ele>
        <time>2015-10-07T08:26:35.000Z</time>
      </trkpt>
      <trkpt lat="43.38932" lon="1.3039">
        <ele>207.2</ele>
        <time>2015-10-07T08:26:43.000Z</time>
      </trkpt>
      <trkpt lat="43.38922" lon="1.30389">
        <ele>208.1</ele>
        <time>2015-10-07T08:26:53.000Z</time>
      </trkpt>
      <trkpt lat="43.38912" lon="1.30389">
        <ele>208.8</ele>
        <time>2015-10-07T08:27:1.000Z</time>
      </trkpt>
      <trkpt lat="43.38903" lon="1.30388">
        <ele>209.5</ele>
        <time>2015-10-07T08:27:8.000Z</time>
      </trkpt>
      <trkpt lat="43.38894" lon="1.30387">
        <ele>210.2</ele>
        <time>2015-10-07T08:27:16.000Z</time>
      </trkpt>
      <trkpt lat="43.38884" lon="1.30385">
        <ele>210.9</ele>
        <time>2015-10-07T08:27:24.000Z</time>
      </trkpt>
      <trkpt lat="43.38875" lon="1.30384">
        <ele>211.6</ele>
        <time>2015-10-07T08:27:33.000Z</time>
      </trkpt>
      <trkpt lat="43.38866" lon="1.30382">
        <ele>212.1</ele>
        <time>2015-10-07T08:27:41.000Z</time>
      </trkpt>
      <trkpt lat="43.38856" lon="1.3038">
        <ele>212.5</ele>
        <time>2015-10-07T08:27:48.000Z</time>
      </trkpt>
      <trkpt lat="43.38846" lon="1.30382">
        <ele>212.9</ele>
        <time>2015-10-07T08:27:55.000Z</time>
      </trkpt>
      <trkpt lat="43.38838" lon="1.30386">
        <ele>213.4</ele>
        <time>2015-10-07T08:28:3.000Z</time>
      </trkpt>
      <trkpt lat="43.38829" lon="1.30393">
        <ele>213.7</ele>
        <time>2015-10-07T08:28:11.000Z</time>
      </trkpt>
      <trkpt lat="43.3882" lon="1.30398">
        <ele>214.1</ele>
        <time>2015-10-07T08:28:18.000Z</time>
      </trkpt>
      <trkpt lat="43.38812" lon="1.30405">
        <ele>214.4</ele>
        <time>2015-10-07T08:28:25.000Z</time>
      </trkpt>
      <trkpt lat="43.38805" lon="1.30415">
        <ele>214.8</ele>
        <time>2015-10-07T08:28:34.000Z</time>
      </trkpt>
      <trkpt lat="43.38798" lon="1.30423">
        <ele>215.3</ele>
        <time>2015-10-07T08:28:42.000Z</time>
      </trkpt>
      <trkpt lat="43.38793" lon="1.30434">
        <ele>215.9</ele>
        <time>2015-10-07T08:28:50.000Z</time>
      </trkpt>
      <trkpt lat="43.38789" lon="1.30446">
        <ele>216.6</ele>
        <time>2015-10-07T08:28:59.000Z</time>
      </trkpt>
      <trkpt lat="43.38785" lon="1.30459">
        <ele>217.3</ele>
        <time>2015-10-07T08:29:8.000Z</time>
      </trkpt>
      <trkpt lat="43.3878" lon="1.3047">
        <ele>217.9</ele>
        <time>2015-10-07T08:29:16.000Z</time>
      </trkpt>
      <trkpt lat="43.38775" lon="1.30482">
        <ele>218.6</ele>
        <time>2015-10-07T08:29:25.000Z</time>
      </trkpt>
      <trkpt lat="43.38772" lon="1.30494">
        <ele>219.4</ele>
        <time>2015-10-07T08:29:34.000Z</time>
      </trkpt>
      <trkpt lat="43.38767" lon="1.30506">
        <ele>220.1</ele>
        <time>2015-10-07T08:29:43.000Z</time>
      </trkpt>
      <trkpt lat="43.38762" lon="1.30517">
        <ele>220.9</ele>
        <time>2015-10-07T08:29:52.000Z</time>
      </trkpt>
      <trkpt lat="43.38759" lon="1.3053">
        <ele>221.6</ele>
        <time>2015-10-07T08:30:0.000Z</time>
      </trkpt>
      <trkpt lat="43.38756" lon="1.30541">
        <ele>222.3</ele>
        <time>2015-10-07T08:30:8.000Z</time>
      </trkpt>
      <trkpt lat="43.38752" lon="1.30554">
        <ele>223</ele>
        <time>2015-10-07T08:30:17.000Z</time>
      </trkpt>
      <trkpt lat="43.38748" lon="1.30566">
        <ele>223.8</ele>
        <time>2015-10-07T08:30:25.000Z</time>
      </trkpt>
      <trkpt lat="43.38745" lon="1.30579">
        <ele>224.6</ele>
        <time>2015-10-07T08:30:34.000Z</time>
      </trkpt>
      <trkpt lat="43.38742" lon="1.30593">
        <ele>225.3</ele>
        <time>2015-10-07T08:30:43.000Z</time>
      </trkpt>
      <trkpt lat="43.38739" lon="1.30605">
        <ele>225.9</ele>
        <time>2015-10-07T08:30:51.000Z</time>
      </trkpt>
      <trkpt lat="43.38735" lon="1.30617">
        <ele>226.3</ele>
        <time>2015-10-07T08:30:59.000Z</time>
      </trkpt>
      <trkpt lat="43.38732" lon="1.3063">
        <ele>226.6</ele>
        <time>2015-10-07T08:31:7.000Z</time>
      </trkpt>
      <trkpt lat="43.38729" lon="1.30642">
        <ele>226.8</ele>
        <time>2015-10-07T08:31:15.000Z</time>
      </trkpt>
      <trkpt lat="43.38725" lon="1.30654">
        <ele>227</ele>
        <time>2015-10-07T08:31:23.000Z</time>
      </trkpt>
      <trkpt lat="43.38721" lon="1.30667">
        <ele>227.2</ele>
        <time>2015-10-07T08:31:31.000Z</time>
      </trkpt>
      <trkpt lat="43.38717" lon="1.30679">
        <ele>227.4</ele>
        <time>2015-10-07T08:31:39.000Z</time>
      </trkpt>
      <trkpt lat="43.38713" lon="1.30692">
        <ele>227.7</ele>
        <time>2015-10-07T08:31:47.000Z</time>
      </trkpt>
      <trkpt lat="43.38711" lon="1.30704">
        <ele>227.9</ele>
        <time>2015-10-07T08:31:55.000Z</time>
      </trkpt>
      <trkpt lat="43.38708" lon="1.30717">
        <ele>228.1</ele>
        <time>2015-10-07T08:32:3.000Z</time>
      </trkpt>
      <trkpt lat="43.38705" lon="1.30729">
        <ele>228.2</ele>
        <time>2015-10-07T08:32:10.000Z</time>
      </trkpt>
      <trkpt lat="43.38701" lon="1.30742">
        <ele>228.3</ele>
        <time>2015-10-07T08:32:18.000Z</time>
      </trkpt>
      <trkpt lat="43.38699" lon="1.30755">
        <ele>228.5</ele>
        <time>2015-10-07T08:32:26.000Z</time>
      </trkpt>
      <trkpt lat="43.38695" lon="1.30766">
        <ele>228.7</ele>
        <time>2015-10-07T08:32:32.000Z</time>
      </trkpt>
      <trkpt lat="43.38693" lon="1.3078">
        <ele>228.9</ele>
        <time>2015-10-07T08:32:40.000Z</time>
      </trkpt>
      <trkpt lat="43.38692" lon="1.30793">
        <ele>229.2</ele>
        <time>2015-10-07T08:32:48.000Z</time>
      </trkpt>
      <trkpt lat="43.38691" lon="1.30806">
        <ele>228.6</ele>
        <time>2015-10-07T08:33:32.000Z</time>
      </trkpt>
      <trkpt lat="43.38696" lon="1.30819">
        <ele>230.4</ele>
        <time>2015-10-07T08:34:13.000Z</time>
      </trkpt>
      <trkpt lat="43.38701" lon="1.30831">
        <ele>230.1</ele>
        <time>2015-10-07T08:34:22.000Z</time>
      </trkpt>
      <trkpt lat="43.38705" lon="1.30843">
        <ele>231.9</ele>
        <time>2015-10-07T08:34:30.000Z</time>
      </trkpt>
      <trkpt lat="43.38709" lon="1.30854">
        <ele>232.7</ele>
        <time>2015-10-07T08:34:38.000Z</time>
      </trkpt>
      <trkpt lat="43.38711" lon="1.30867">
        <ele>233</ele>
        <time>2015-10-07T08:34:46.000Z</time>
      </trkpt>
      <trkpt lat="43.38714" lon="1.30879">
        <ele>233.1</ele>
        <time>2015-10-07T08:34:55.000Z</time>
      </trkpt>
      <trkpt lat="43.38713" lon="1.30892">
        <ele>233.1</ele>
        <time>2015-10-07T08:35:3.000Z</time>
      </trkpt>
      <trkpt lat="43.3871" lon="1.30905">
        <ele>233</ele>
        <time>2015-10-07T08:35:11.000Z</time>
      </trkpt>
      <trkpt lat="43.38707" lon="1.30918">
        <ele>233</ele>
        <time>2015-10-07T08:35:19.000Z</time>
      </trkpt>
      <trkpt lat="43.38703" lon="1.30929">
        <ele>233</ele>
        <time>2015-10-07T08:35:28.000Z</time>
      </trkpt>
      <trkpt lat="43.38703" lon="1.30943">
        <ele>232.9</ele>
        <time>2015-10-07T08:35:36.000Z</time>
      </trkpt>
      <trkpt lat="43.38702" lon="1.30957">
        <ele>232.9</ele>
        <time>2015-10-07T08:35:44.000Z</time>
      </trkpt>
      <trkpt lat="43.38701" lon="1.3097">
        <ele>232.9</ele>
        <time>2015-10-07T08:35:52.000Z</time>
      </trkpt>
      <trkpt lat="43.387" lon="1.30983">
        <ele>232.9</ele>
        <time>2015-10-07T08:36:0.000Z</time>
      </trkpt>
      <trkpt lat="43.387" lon="1.30997">
        <ele>232.8</ele>
        <time>2015-10-07T08:36:8.000Z</time>
      </trkpt>
      <trkpt lat="43.38699" lon="1.3101">
        <ele>232.4</ele>
        <time>2015-10-07T08:36:16.000Z</time>
      </trkpt>
      <trkpt lat="43.38697" lon="1.31022">
        <ele>231.8</ele>
        <time>2015-10-07T08:36:24.000Z</time>
      </trkpt>
      <trkpt lat="43.38696" lon="1.31035">
        <ele>231.5</ele>
        <time>2015-10-07T08:36:32.000Z</time>
      </trkpt>
      <trkpt lat="43.38694" lon="1.31047">
        <ele>231.3</ele>
        <time>2015-10-07T08:36:39.000Z</time>
      </trkpt>
      <trkpt lat="43.38692" lon="1.31059">
        <ele>231.2</ele>
        <time>2015-10-07T08:36:46.000Z</time>
      </trkpt>
      <trkpt lat="43.38689" lon="1.31072">
        <ele>231.1</ele>
        <time>2015-10-07T08:36:53.000Z</time>
      </trkpt>
      <trkpt lat="43.38686" lon="1.31085">
        <ele>231.1</ele>
        <time>2015-10-07T08:37:0.000Z</time>
      </trkpt>
      <trkpt lat="43.38683" lon="1.31096">
        <ele>231</ele>
        <time>2015-10-07T08:37:7.000Z</time>
      </trkpt>
      <trkpt lat="43.38681" lon="1.3111">
        <ele>230.9</ele>
        <time>2015-10-07T08:37:14.000Z</time>
      </trkpt>
      <trkpt lat="43.38678" lon="1.31123">
        <ele>230.7</ele>
        <time>2015-10-07T08:37:21.000Z</time>
      </trkpt>
      <trkpt lat="43.38677" lon="1.31136">
        <ele>230.6</ele>
        <time>2015-10-07T08:37:28.000Z</time>
      </trkpt>
      <trkpt lat="43.38676" lon="1.31149">
        <ele>230.5</ele>
        <time>2015-10-07T08:37:35.000Z</time>
      </trkpt>
      <trkpt lat="43.38674" lon="1.31162">
        <ele>230.4</ele>
        <time>2015-10-07T08:37:42.000Z</time>
      </trkpt>
      <trkpt lat="43.38672" lon="1.31176">
        <ele>230.4</ele>
        <time>2015-10-07T08:37:49.000Z</time>
      </trkpt>
      <trkpt lat="43.3867" lon="1.31189">
        <ele>230.3</ele>
        <time>2015-10-07T08:37:57.000Z</time>
      </trkpt>
      <trkpt lat="43.3867" lon="1.31203">
        <ele>230.2</ele>
        <time>2015-10-07T08:38:4.000Z</time>
      </trkpt>
      <trkpt lat="43.38668" lon="1.31215">
        <ele>230</ele>
        <time>2015-10-07T08:38:11.000Z</time>
      </trkpt>
      <trkpt lat="43.38667" lon="1.31228">
        <ele>229.9</ele>
        <time>2015-10-07T08:38:18.000Z</time>
      </trkpt>
      <trkpt lat="43.38665" lon="1.31241">
        <ele>229.8</ele>
        <time>2015-10-07T08:38:26.000Z</time>
      </trkpt>
      <trkpt lat="43.38664" lon="1.31255">
        <ele>229.7</ele>
        <time>2015-10-07T08:38:34.000Z</time>
      </trkpt>
      <trkpt lat="43.38663" lon="1.31267">
        <ele>229.6</ele>
        <time>2015-10-07T08:38:41.000Z</time>
      </trkpt>
      <trkpt lat="43.38661" lon="1.31279">
        <ele>229.6</ele>
        <time>2015-10-07T08:38:48.000Z</time>
      </trkpt>
      <trkpt lat="43.38659" lon="1.31292">
        <ele>229.5</ele>
        <time>2015-10-07T08:38:55.000Z</time>
      </trkpt>
      <trkpt lat="43.38657" lon="1.31306">
        <ele>229.4</ele>
        <time>2015-10-07T08:39:2.000Z</time>
      </trkpt>
      <trkpt lat="43.38655" lon="1.3132">
        <ele>229.2</ele>
        <time>2015-10-07T08:39:9.000Z</time>
      </trkpt>
      <trkpt lat="43.38654" lon="1.31334">
        <ele>228.8</ele>
        <time>2015-10-07T08:39:16.000Z</time>
      </trkpt>
      <trkpt lat="43.38652" lon="1.31347">
        <ele>228.5</ele>
        <time>2015-10-07T08:39:23.000Z</time>
      </trkpt>
      <trkpt lat="43.38651" lon="1.3136">
        <ele>228.2</ele>
        <time>2015-10-07T08:39:30.000Z</time>
      </trkpt>
      <trkpt lat="43.3865" lon="1.31374">
        <ele>227.8</ele>
        <time>2015-10-07T08:39:38.000Z</time>
      </trkpt>
      <trkpt lat="43.38648" lon="1.31387">
        <ele>227.5</ele>
        <time>2015-10-07T08:39:46.000Z</time>
      </trkpt>
      <trkpt lat="43.38646" lon="1.314">
        <ele>227.3</ele>
        <time>2015-10-07T08:39:53.000Z</time>
      </trkpt>
      <trkpt lat="43.38644" lon="1.31413">
        <ele>227</ele>
        <time>2015-10-07T08:40:1.000Z</time>
      </trkpt>
      <trkpt lat="43.3864" lon="1.31425">
        <ele>226.8</ele>
        <time>2015-10-07T08:40:8.000Z</time>
      </trkpt>
      <trkpt lat="43.38638" lon="1.31437">
        <ele>226.6</ele>
        <time>2015-10-07T08:40:15.000Z</time>
      </trkpt>
      <trkpt lat="43.38636" lon="1.31449">
        <ele>226.4</ele>
        <time>2015-10-07T08:40:22.000Z</time>
      </trkpt>
      <trkpt lat="43.38633" lon="1.31462">
        <ele>226.2</ele>
        <time>2015-10-07T08:40:30.000Z</time>
      </trkpt>
      <trkpt lat="43.3863" lon="1.31476">
        <ele>225.8</ele>
        <time>2015-10-07T08:40:38.000Z</time>
      </trkpt>
      <trkpt lat="43.38627" lon="1.31488">
        <ele>225.6</ele>
        <time>2015-10-07T08:40:45.000Z</time>
      </trkpt>
      <trkpt lat="43.38624" lon="1.31501">
        <ele>225.3</ele>
        <time>2015-10-07T08:40:53.000Z</time>
      </trkpt>
      <trkpt lat="43.38622" lon="1.31513">
        <ele>225.2</ele>
        <time>2015-10-07T08:41:0.000Z</time>
      </trkpt>
      <trkpt lat="43.38621" lon="1.31526">
        <ele>225</ele>
        <time>2015-10-07T08:41:8.000Z</time>
      </trkpt>
      <trkpt lat="43.3862" lon="1.3154">
        <ele>224.7</ele>
        <time>2015-10-07T08:41:15.000Z</time>
      </trkpt>
      <trkpt lat="43.38618" lon="1.31552">
        <ele>224.3</ele>
        <time>2015-10-07T08:41:22.000Z</time>
      </trkpt>
      <trkpt lat="43.38617" lon="1.31566">
        <ele>224</ele>
        <time>2015-10-07T08:41:30.000Z</time>
      </trkpt>
      <trkpt lat="43.38617" lon="1.31579">
        <ele>223.8</ele>
        <time>2015-10-07T08:41:37.000Z</time>
      </trkpt>
      <trkpt lat="43.38615" lon="1.31591">
        <ele>223.7</ele>
        <time>2015-10-07T08:41:44.000Z</time>
      </trkpt>
      <trkpt lat="43.38614" lon="1.31606">
        <ele>223.6</ele>
        <time>2015-10-07T08:41:52.000Z</time>
      </trkpt>
      <trkpt lat="43.38613" lon="1.31618">
        <ele>223.4</ele>
        <time>2015-10-07T08:41:59.000Z</time>
      </trkpt>
      <trkpt lat="43.3861" lon="1.31631">
        <ele>223.2</ele>
        <time>2015-10-07T08:42:6.000Z</time>
      </trkpt>
      <trkpt lat="43.38607" lon="1.31643">
        <ele>223</ele>
        <time>2015-10-07T08:42:13.000Z</time>
      </trkpt>
      <trkpt lat="43.38603" lon="1.31656">
        <ele>222.7</ele>
        <time>2015-10-07T08:42:21.000Z</time>
      </trkpt>
      <trkpt lat="43.38601" lon="1.31668">
        <ele>222.4</ele>
        <time>2015-10-07T08:42:28.000Z</time>
      </trkpt>
      <trkpt lat="43.38598" lon="1.31682">
        <ele>222.2</ele>
        <time>2015-10-07T08:42:36.000Z</time>
      </trkpt>
      <trkpt lat="43.38596" lon="1.31695">
        <ele>221.9</ele>
        <time>2015-10-07T08:42:44.000Z</time>
      </trkpt>
      <trkpt lat="43.38594" lon="1.31708">
        <ele>221.6</ele>
        <time>2015-10-07T08:42:52.000Z</time>
      </trkpt>
      <trkpt lat="43.38591" lon="1.31722">
        <ele>221.3</ele>
        <time>2015-10-07T08:43:0.000Z</time>
      </trkpt>
      <trkpt lat="43.38589" lon="1.31735">
        <ele>221.1</ele>
        <time>2015-10-07T08:43:8.000Z</time>
      </trkpt>
      <trkpt lat="43.38587" lon="1.31747">
        <ele>221</ele>
        <time>2015-10-07T08:43:15.000Z</time>
      </trkpt>
      <trkpt lat="43.3859" lon="1.3176">
        <ele>220.9</ele>
        <time>2015-10-07T08:43:23.000Z</time>
      </trkpt>
      <trkpt lat="43.38599" lon="1.31761">
        <ele>220.6</ele>
        <time>2015-10-07T08:43:31.000Z</time>
      </trkpt>
      <trkpt lat="43.38608" lon="1.31761">
        <ele>220.4</ele>
        <time>2015-10-07T08:43:38.000Z</time>
      </trkpt>
      <trkpt lat="43.38617" lon="1.31764">
        <ele>220.3</ele>
        <time>2015-10-07T08:43:44.000Z</time>
      </trkpt>
      <trkpt lat="43.38626" lon="1.31767">
        <ele>220.1</ele>
        <time>2015-10-07T08:43:54.000Z</time>
      </trkpt>
      <trkpt lat="43.38636" lon="1.31769">
        <ele>220</ele>
        <time>2015-10-07T08:44:3.000Z</time>
      </trkpt>
      <trkpt lat="43.38644" lon="1.31776">
        <ele>219.9</ele>
        <time>2015-10-07T08:44:12.000Z</time>
      </trkpt>
      <trkpt lat="43.38652" lon="1.31783">
        <ele>219.9</ele>
        <time>2015-10-07T08:44:23.000Z</time>
      </trkpt>
      <trkpt lat="43.38663" lon="1.31784">
        <ele>219.9</ele>
        <time>2015-10-07T08:44:31.000Z</time>
      </trkpt>
      <trkpt lat="43.38674" lon="1.31783">
        <ele>219.9</ele>
        <time>2015-10-07T08:44:39.000Z</time>
      </trkpt>
      <trkpt lat="43.38684" lon="1.31782">
        <ele>219.8</ele>
        <time>2015-10-07T08:44:46.000Z</time>
      </trkpt>
      <trkpt lat="43.38693" lon="1.31787">
        <ele>220</ele>
        <time>2015-10-07T08:44:55.000Z</time>
      </trkpt>
      <trkpt lat="43.38696" lon="1.31799">
        <ele>220.1</ele>
        <time>2015-10-07T08:45:6.000Z</time>
      </trkpt>
      <trkpt lat="43.38705" lon="1.31806">
        <ele>220.2</ele>
        <time>2015-10-07T08:45:14.000Z</time>
      </trkpt>
      <trkpt lat="43.38713" lon="1.31813">
        <ele>220.2</ele>
        <time>2015-10-07T08:45:25.000Z</time>
      </trkpt>
      <trkpt lat="43.38722" lon="1.31815">
        <ele>220.4</ele>
        <time>2015-10-07T08:45:32.000Z</time>
      </trkpt>
      <trkpt lat="43.3873" lon="1.31822">
        <ele>220.8</ele>
        <time>2015-10-07T08:45:42.000Z</time>
      </trkpt>
      <trkpt lat="43.38737" lon="1.31831">
        <ele>221.8</ele>
        <time>2015-10-07T08:45:55.000Z</time>
      </trkpt>
      <trkpt lat="43.38741" lon="1.31842">
        <ele>223.3</ele>
        <time>2015-10-07T08:46:9.000Z</time>
      </trkpt>
      <trkpt lat="43.38749" lon="1.31849">
        <ele>224.8</ele>
        <time>2015-10-07T08:46:20.000Z</time>
      </trkpt>
      <trkpt lat="43.38757" lon="1.31857">
        <ele>226.9</ele>
        <time>2015-10-07T08:46:35.000Z</time>
      </trkpt>
      <trkpt lat="43.38765" lon="1.31863">
        <ele>228.4</ele>
        <time>2015-10-07T08:46:46.000Z</time>
      </trkpt>
      <trkpt lat="43.38774" lon="1.31868">
        <ele>229.8</ele>
        <time>2015-10-07T08:46:56.000Z</time>
      </trkpt>
      <trkpt lat="43.3878" lon="1.31876">
        <ele>230.9</ele>
        <time>2015-10-07T08:47:6.000Z</time>
      </trkpt>
      <trkpt lat="43.38787" lon="1.31886">
        <ele>232.4</ele>
        <time>2015-10-07T08:47:17.000Z</time>
      </trkpt>
      <trkpt lat="43.38795" lon="1.31893">
        <ele>233.8</ele>
        <time>2015-10-07T08:47:28.000Z</time>
      </trkpt>
      <trkpt lat="43.38803" lon="1.319">
        <ele>235.2</ele>
        <time>2015-10-07T08:47:40.000Z</time>
      </trkpt>
      <trkpt lat="43.38811" lon="1.31905">
        <ele>236.4</ele>
        <time>2015-10-07T08:47:50.000Z</time>
      </trkpt>
      <trkpt lat="43.38817" lon="1.31914">
        <ele>238</ele>
        <time>2015-10-07T08:48:3.000Z</time>
      </trkpt>
      <trkpt lat="43.38825" lon="1.31922">
        <ele>239.1</ele>
        <time>2015-10-07T08:48:13.000Z</time>
      </trkpt>
      <trkpt lat="43.38833" lon="1.3193">
        <ele>240.2</ele>
        <time>2015-10-07T08:48:25.000Z</time>
      </trkpt>
      <trkpt lat="43.38839" lon="1.3194">
        <ele>241.1</ele>
        <time>2015-10-07T08:48:35.000Z</time>
      </trkpt>
      <trkpt lat="43.38844" lon="1.3195">
        <ele>242</ele>
        <time>2015-10-07T08:48:45.000Z</time>
      </trkpt>
      <trkpt lat="43.38848" lon="1.31963">
        <ele>243</ele>
        <time>2015-10-07T08:48:55.000Z</time>
      </trkpt>
      <trkpt lat="43.38853" lon="1.31974">
        <ele>244.5</ele>
        <time>2015-10-07T08:49:8.000Z</time>
      </trkpt>
      <trkpt lat="43.38854" lon="1.31986">
        <ele>245.5</ele>
        <time>2015-10-07T08:49:17.000Z</time>
      </trkpt>
      <trkpt lat="43.38855" lon="1.31999">
        <ele>246.3</ele>
        <time>2015-10-07T08:49:25.000Z</time>
      </trkpt>
      <trkpt lat="43.38858" lon="1.32011">
        <ele>247.3</ele>
        <time>2015-10-07T08:49:36.000Z</time>
      </trkpt>
      <trkpt lat="43.38859" lon="1.32024">
        <ele>248.2</ele>
        <time>2015-10-07T08:49:45.000Z</time>
      </trkpt>
      <trkpt lat="43.38864" lon="1.32036">
        <ele>250.5</ele>
        <time>2015-10-07T08:50:12.000Z</time>
      </trkpt>
      <trkpt lat="43.38867" lon="1.32048">
        <ele>252.6</ele>
        <time>2015-10-07T08:52:35.000Z</time>
      </trkpt>
      <trkpt lat="43.38873" lon="1.32059">
        <ele>252.6</ele>
        <time>2015-10-07T08:52:44.000Z</time>
      </trkpt>
      <trkpt lat="43.38877" lon="1.3207">
        <ele>252.8</ele>
        <time>2015-10-07T08:52:53.000Z</time>
      </trkpt>
      <trkpt lat="43.38886" lon="1.32078">
        <ele>253</ele>
        <time>2015-10-07T08:53:3.000Z</time>
      </trkpt>
      <trkpt lat="43.38895" lon="1.32079">
        <ele>253.2</ele>
        <time>2015-10-07T08:53:12.000Z</time>
      </trkpt>
      <trkpt lat="43.38903" lon="1.32087">
        <ele>253.1</ele>
        <time>2015-10-07T08:53:25.000Z</time>
      </trkpt>
      <trkpt lat="43.38907" lon="1.32099">
        <ele>253</ele>
        <time>2015-10-07T08:53:33.000Z</time>
      </trkpt>
      <trkpt lat="43.38913" lon="1.32109">
        <ele>252.7</ele>
        <time>2015-10-07T08:53:51.000Z</time>
      </trkpt>
      <trkpt lat="43.3891" lon="1.32121">
        <ele>253.2</ele>
        <time>2015-10-07T08:54:26.000Z</time>
      </trkpt>
      <trkpt lat="43.38899" lon="1.32125">
        <ele>253.5</ele>
        <time>2015-10-07T08:54:44.000Z</time>
      </trkpt>
      <trkpt lat="43.389" lon="1.32138">
        <ele>254.6</ele>
        <time>2015-10-07T08:55:5.000Z</time>
      </trkpt>
      <trkpt lat="43.38907" lon="1.32147">
        <ele>254.9</ele>
        <time>2015-10-07T08:55:14.000Z</time>
      </trkpt>
      <trkpt lat="43.38915" lon="1.32154">
        <ele>255</ele>
        <time>2015-10-07T08:55:22.000Z</time>
      </trkpt>
      <trkpt lat="43.3892" lon="1.32165">
        <ele>255.2</ele>
        <time>2015-10-07T08:55:34.000Z</time>
      </trkpt>
      <trkpt lat="43.38927" lon="1.32174">
        <ele>255.6</ele>
        <time>2015-10-07T08:55:48.000Z</time>
      </trkpt>
      <trkpt lat="43.38936" lon="1.3218">
        <ele>255.9</ele>
        <time>2015-10-07T08:55:57.000Z</time>
      </trkpt>
      <trkpt lat="43.38944" lon="1.32184">
        <ele>256.4</ele>
        <time>2015-10-07T08:56:7.000Z</time>
      </trkpt>
      <trkpt lat="43.38952" lon="1.32193">
        <ele>256.9</ele>
        <time>2015-10-07T08:56:15.000Z</time>
      </trkpt>
      <trkpt lat="43.38958" lon="1.32204">
        <ele>257.7</ele>
        <time>2015-10-07T08:56:26.000Z</time>
      </trkpt>
      <trkpt lat="43.38965" lon="1.32212">
        <ele>258.4</ele>
        <time>2015-10-07T08:56:36.000Z</time>
      </trkpt>
      <trkpt lat="43.3897" lon="1.32222">
        <ele>259.1</ele>
        <time>2015-10-07T08:56:46.000Z</time>
      </trkpt>
      <trkpt lat="43.38977" lon="1.32231">
        <ele>260.3</ele>
        <time>2015-10-07T08:56:56.000Z</time>
      </trkpt>
      <trkpt lat="43.38984" lon="1.3224">
        <ele>261.5</ele>
        <time>2015-10-07T08:57:7.000Z</time>
      </trkpt>
      <trkpt lat="43.38991" lon="1.32248">
        <ele>262.7</ele>
        <time>2015-10-07T08:57:18.000Z</time>
      </trkpt>
      <trkpt lat="43.38999" lon="1.32255">
        <ele>263.7</ele>
        <time>2015-10-07T08:57:28.000Z</time>
      </trkpt>
      <trkpt lat="43.39007" lon="1.32264">
        <ele>264.6</ele>
        <time>2015-10-07T08:57:38.000Z</time>
      </trkpt>
      <trkpt lat="43.39013" lon="1.32274">
        <ele>265.9</ele>
        <time>2015-10-07T08:57:49.000Z</time>
      </trkpt>
      <trkpt lat="43.39019" lon="1.32284">
        <ele>267.4</ele>
        <time>2015-10-07T08:58:1.000Z</time>
      </trkpt>
      <trkpt lat="43.39028" lon="1.32282">
        <ele>268.5</ele>
        <time>2015-10-07T08:58:11.000Z</time>
      </trkpt>
      <trkpt lat="43.39036" lon="1.32274">
        <ele>269.1</ele>
        <time>2015-10-07T08:58:19.000Z</time>
      </trkpt>
      <trkpt lat="43.39042" lon="1.32262">
        <ele>269.6</ele>
        <time>2015-10-07T08:58:29.000Z</time>
      </trkpt>
      <trkpt lat="43.39048" lon="1.32253">
        <ele>269.8</ele>
        <time>2015-10-07T08:58:37.000Z</time>
      </trkpt>
      <trkpt lat="43.39055" lon="1.32244">
        <ele>270.1</ele>
        <time>2015-10-07T08:58:46.000Z</time>
      </trkpt>
      <trkpt lat="43.39063" lon="1.32236">
        <ele>270.2</ele>
        <time>2015-10-07T08:58:56.000Z</time>
      </trkpt>
      <trkpt lat="43.3907" lon="1.32228">
        <ele>270.3</ele>
        <time>2015-10-07T08:59:4.000Z</time>
      </trkpt>
      <trkpt lat="43.39078" lon="1.3222">
        <ele>270.3</ele>
        <time>2015-10-07T08:59:13.000Z</time>
      </trkpt>
      <trkpt lat="43.39085" lon="1.32212">
        <ele>270.3</ele>
        <time>2015-10-07T08:59:21.000Z</time>
      </trkpt>
      <trkpt lat="43.39092" lon="1.32202">
        <ele>270.3</ele>
        <time>2015-10-07T08:59:29.000Z</time>
      </trkpt>
      <trkpt lat="43.391" lon="1.32195">
        <ele>270.3</ele>
        <time>2015-10-07T08:59:37.000Z</time>
      </trkpt>
      <trkpt lat="43.39107" lon="1.32188">
        <ele>270.2</ele>
        <time>2015-10-07T08:59:44.000Z</time>
      </trkpt>
      <trkpt lat="43.39115" lon="1.32181">
        <ele>270.2</ele>
        <time>2015-10-07T08:59:51.000Z</time>
      </trkpt>
      <trkpt lat="43.39123" lon="1.32173">
        <ele>270.2</ele>
        <time>2015-10-07T08:59:59.000Z</time>
      </trkpt>
      <trkpt lat="43.3913" lon="1.32164">
        <ele>270.1</ele>
        <time>2015-10-07T09:00:7.000Z</time>
      </trkpt>
      <trkpt lat="43.39138" lon="1.32157">
        <ele>270</ele>
        <time>2015-10-07T09:00:15.000Z</time>
      </trkpt>
      <trkpt lat="43.39147" lon="1.3215">
        <ele>269.9</ele>
        <time>2015-10-07T09:00:22.000Z</time>
      </trkpt>
      <trkpt lat="43.39156" lon="1.32144">
        <ele>269.7</ele>
        <time>2015-10-07T09:00:28.000Z</time>
      </trkpt>
      <trkpt lat="43.39165" lon="1.32136">
        <ele>269.5</ele>
        <time>2015-10-07T09:00:35.000Z</time>
      </trkpt>
      <trkpt lat="43.39172" lon="1.32127">
        <ele>269.1</ele>
        <time>2015-10-07T09:00:43.000Z</time>
      </trkpt>
      <trkpt lat="43.39181" lon="1.32122">
        <ele>268.7</ele>
        <time>2015-10-07T09:00:50.000Z</time>
      </trkpt>
      <trkpt lat="43.39189" lon="1.32116">
        <ele>268.5</ele>
        <time>2015-10-07T09:00:57.000Z</time>
      </trkpt>
      <trkpt lat="43.39198" lon="1.3211">
        <ele>268.3</ele>
        <time>2015-10-07T09:01:5.000Z</time>
      </trkpt>
      <trkpt lat="43.39205" lon="1.32101">
        <ele>268.1</ele>
        <time>2015-10-07T09:01:12.000Z</time>
      </trkpt>
      <trkpt lat="43.39211" lon="1.32092">
        <ele>268</ele>
        <time>2015-10-07T09:01:20.000Z</time>
      </trkpt>
      <trkpt lat="43.39217" lon="1.32082">
        <ele>267.9</ele>
        <time>2015-10-07T09:01:28.000Z</time>
      </trkpt>
      <trkpt lat="43.39223" lon="1.32071">
        <ele>267.8</ele>
        <time>2015-10-07T09:01:37.000Z</time>
      </trkpt>
      <trkpt lat="43.39232" lon="1.32065">
        <ele>267.8</ele>
        <time>2015-10-07T09:01:45.000Z</time>
      </trkpt>
      <trkpt lat="43.39239" lon="1.32056">
        <ele>267.7</ele>
        <time>2015-10-07T09:01:53.000Z</time>
      </trkpt>
      <trkpt lat="43.39245" lon="1.32046">
        <ele>267.6</ele>
        <time>2015-10-07T09:02:1.000Z</time>
      </trkpt>
      <trkpt lat="43.3925" lon="1.32035">
        <ele>267.7</ele>
        <time>2015-10-07T09:02:10.000Z</time>
      </trkpt>
      <trkpt lat="43.39259" lon="1.32027">
        <ele>267.9</ele>
        <time>2015-10-07T09:02:18.000Z</time>
      </trkpt>
      <trkpt lat="43.39266" lon="1.32019">
        <ele>268</ele>
        <time>2015-10-07T09:02:27.000Z</time>
      </trkpt>
      <trkpt lat="43.39273" lon="1.32009">
        <ele>268.5</ele>
        <time>2015-10-07T09:02:36.000Z</time>
      </trkpt>
      <trkpt lat="43.39281" lon="1.32001">
        <ele>268.8</ele>
        <time>2015-10-07T09:02:45.000Z</time>
      </trkpt>
      <trkpt lat="43.39289" lon="1.31993">
        <ele>269.2</ele>
        <time>2015-10-07T09:02:53.000Z</time>
      </trkpt>
      <trkpt lat="43.39296" lon="1.31985">
        <ele>269.5</ele>
        <time>2015-10-07T09:03:0.000Z</time>
      </trkpt>
      <trkpt lat="43.39304" lon="1.31976">
        <ele>269.8</ele>
        <time>2015-10-07T09:03:9.000Z</time>
      </trkpt>
      <trkpt lat="43.39311" lon="1.31968">
        <ele>270</ele>
        <time>2015-10-07T09:03:17.000Z</time>
      </trkpt>
      <trkpt lat="43.39318" lon="1.31959">
        <ele>270</ele>
        <time>2015-10-07T09:03:25.000Z</time>
      </trkpt>
      <trkpt lat="43.39327" lon="1.31953">
        <ele>270.1</ele>
        <time>2015-10-07T09:03:32.000Z</time>
      </trkpt>
      <trkpt lat="43.39335" lon="1.31946">
        <ele>270.2</ele>
        <time>2015-10-07T09:03:40.000Z</time>
      </trkpt>
      <trkpt lat="43.39342" lon="1.31938">
        <ele>270.2</ele>
        <time>2015-10-07T09:03:47.000Z</time>
      </trkpt>
      <trkpt lat="43.3935" lon="1.31931">
        <ele>270.3</ele>
        <time>2015-10-07T09:03:54.000Z</time>
      </trkpt>
      <trkpt lat="43.39358" lon="1.31923">
        <ele>270.3</ele>
        <time>2015-10-07T09:04:1.000Z</time>
      </trkpt>
      <trkpt lat="43.39366" lon="1.31915">
        <ele>270.4</ele>
        <time>2015-10-07T09:04:9.000Z</time>
      </trkpt>
      <trkpt lat="43.39373" lon="1.31907">
        <ele>270.7</ele>
        <time>2015-10-07T09:04:19.000Z</time>
      </trkpt>
      <trkpt lat="43.39381" lon="1.31897">
        <ele>270.8</ele>
        <time>2015-10-07T09:04:26.000Z</time>
      </trkpt>
      <trkpt lat="43.39388" lon="1.31888">
        <ele>270.8</ele>
        <time>2015-10-07T09:04:34.000Z</time>
      </trkpt>
      <trkpt lat="43.39395" lon="1.31879">
        <ele>270.8</ele>
        <time>2015-10-07T09:04:41.000Z</time>
      </trkpt>
      <trkpt lat="43.39404" lon="1.31872">
        <ele>271.1</ele>
        <time>2015-10-07T09:04:49.000Z</time>
      </trkpt>
      <trkpt lat="43.39413" lon="1.31866">
        <ele>271.3</ele>
        <time>2015-10-07T09:04:57.000Z</time>
      </trkpt>
      <trkpt lat="43.39421" lon="1.31858">
        <ele>271.6</ele>
        <time>2015-10-07T09:05:5.000Z</time>
      </trkpt>
      <trkpt lat="43.39428" lon="1.3185">
        <ele>271.9</ele>
        <time>2015-10-07T09:05:13.000Z</time>
      </trkpt>
      <trkpt lat="43.39435" lon="1.3184">
        <ele>272.1</ele>
        <time>2015-10-07T09:05:23.000Z</time>
      </trkpt>
      <trkpt lat="43.39442" lon="1.3183">
        <ele>272.3</ele>
        <time>2015-10-07T09:05:31.000Z</time>
      </trkpt>
      <trkpt lat="43.3945" lon="1.31823">
        <ele>272.7</ele>
        <time>2015-10-07T09:05:38.000Z</time>
      </trkpt>
      <trkpt lat="43.39458" lon="1.31815">
        <ele>273</ele>
        <time>2015-10-07T09:05:46.000Z</time>
      </trkpt>
      <trkpt lat="43.39466" lon="1.31807">
        <ele>273.2</ele>
        <time>2015-10-07T09:05:54.000Z</time>
      </trkpt>
      <trkpt lat="43.39474" lon="1.318">
        <ele>273.5</ele>
        <time>2015-10-07T09:06:2.000Z</time>
      </trkpt>
      <trkpt lat="43.39483" lon="1.31793">
        <ele>273.8</ele>
        <time>2015-10-07T09:06:10.000Z</time>
      </trkpt>
      <trkpt lat="43.3949" lon="1.31785">
        <ele>274</ele>
        <time>2015-10-07T09:06:20.000Z</time>
      </trkpt>
      <trkpt lat="43.39497" lon="1.31775">
        <ele>274.1</ele>
        <time>2015-10-07T09:06:27.000Z</time>
      </trkpt>
      <trkpt lat="43.39504" lon="1.31767">
        <ele>274.3</ele>
        <time>2015-10-07T09:06:35.000Z</time>
      </trkpt>
      <trkpt lat="43.3951" lon="1.31757">
        <ele>274.4</ele>
        <time>2015-10-07T09:06:44.000Z</time>
      </trkpt>
      <trkpt lat="43.39517" lon="1.31749">
        <ele>274.5</ele>
        <time>2015-10-07T09:06:51.000Z</time>
      </trkpt>
      <trkpt lat="43.39525" lon="1.31743">
        <ele>274.6</ele>
        <time>2015-10-07T09:06:58.000Z</time>
      </trkpt>
      <trkpt lat="43.39533" lon="1.31734">
        <ele>274.6</ele>
        <time>2015-10-07T09:07:6.000Z</time>
      </trkpt>
      <trkpt lat="43.3954" lon="1.31725">
        <ele>274.6</ele>
        <time>2015-10-07T09:07:14.000Z</time>
      </trkpt>
      <trkpt lat="43.39547" lon="1.31718">
        <ele>274.6</ele>
        <time>2015-10-07T09:07:21.000Z</time>
      </trkpt>
      <trkpt lat="43.39556" lon="1.31711">
        <ele>274.6</ele>
        <time>2015-10-07T09:07:28.000Z</time>
      </trkpt>
      <trkpt lat="43.39564" lon="1.31706">
        <ele>274.5</ele>
        <time>2015-10-07T09:07:37.000Z</time>
      </trkpt>
      <trkpt lat="43.39573" lon="1.31701">
        <ele>274.5</ele>
        <time>2015-10-07T09:07:45.000Z</time>
      </trkpt>
      <trkpt lat="43.39583" lon="1.31698">
        <ele>274.6</ele>
        <time>2015-10-07T09:07:52.000Z</time>
      </trkpt>
      <trkpt lat="43.39592" lon="1.31697">
        <ele>274.7</ele>
        <time>2015-10-07T09:07:58.000Z</time>
      </trkpt>
      <trkpt lat="43.39602" lon="1.31695">
        <ele>274.7</ele>
        <time>2015-10-07T09:08:5.000Z</time>
      </trkpt>
      <trkpt lat="43.39611" lon="1.31692">
        <ele>274.7</ele>
        <time>2015-10-07T09:08:13.000Z</time>
      </trkpt>
      <trkpt lat="43.3962" lon="1.3169">
        <ele>274.8</ele>
        <time>2015-10-07T09:08:20.000Z</time>
      </trkpt>
      <trkpt lat="43.39629" lon="1.31687">
        <ele>274.8</ele>
        <time>2015-10-07T09:08:27.000Z</time>
      </trkpt>
      <trkpt lat="43.39638" lon="1.31684">
        <ele>275</ele>
        <time>2015-10-07T09:08:35.000Z</time>
      </trkpt>
      <trkpt lat="43.39648" lon="1.31682">
        <ele>275.1</ele>
        <time>2015-10-07T09:08:42.000Z</time>
      </trkpt>
      <trkpt lat="43.39657" lon="1.31679">
        <ele>275.3</ele>
        <time>2015-10-07T09:08:49.000Z</time>
      </trkpt>
      <trkpt lat="43.39666" lon="1.31676">
        <ele>275.4</ele>
        <time>2015-10-07T09:08:56.000Z</time>
      </trkpt>
      <trkpt lat="43.39676" lon="1.31672">
        <ele>275.5</ele>
        <time>2015-10-07T09:09:4.000Z</time>
      </trkpt>
      <trkpt lat="43.39685" lon="1.31669">
        <ele>275.6</ele>
        <time>2015-10-07T09:09:12.000Z</time>
      </trkpt>
      <trkpt lat="43.39695" lon="1.31666">
        <ele>275.7</ele>
        <time>2015-10-07T09:09:20.000Z</time>
      </trkpt>
      <trkpt lat="43.39704" lon="1.31664">
        <ele>275.9</ele>
        <time>2015-10-07T09:09:27.000Z</time>
      </trkpt>
      <trkpt lat="43.39713" lon="1.31661">
        <ele>276.3</ele>
        <time>2015-10-07T09:09:37.000Z</time>
      </trkpt>
      <trkpt lat="43.39722" lon="1.31659">
        <ele>276.4</ele>
        <time>2015-10-07T09:09:44.000Z</time>
      </trkpt>
      <trkpt lat="43.39732" lon="1.31656">
        <ele>276.6</ele>
        <time>2015-10-07T09:09:52.000Z</time>
      </trkpt>
      <trkpt lat="43.39741" lon="1.31653">
        <ele>276.8</ele>
        <time>2015-10-07T09:10:0.000Z</time>
      </trkpt>
      <trkpt lat="43.39751" lon="1.31651">
        <ele>277.3</ele>
        <time>2015-10-07T09:10:8.000Z</time>
      </trkpt>
      <trkpt lat="43.3976" lon="1.3165">
        <ele>278</ele>
        <time>2015-10-07T09:10:16.000Z</time>
      </trkpt>
      <trkpt lat="43.39769" lon="1.31647">
        <ele>278.7</ele>
        <time>2015-10-07T09:10:24.000Z</time>
      </trkpt>
      <trkpt lat="43.39779" lon="1.31646">
        <ele>279.3</ele>
        <time>2015-10-07T09:10:33.000Z</time>
      </trkpt>
      <trkpt lat="43.39787" lon="1.31643">
        <ele>280</ele>
        <time>2015-10-07T09:10:41.000Z</time>
      </trkpt>
      <trkpt lat="43.39797" lon="1.31641">
        <ele>280.6</ele>
        <time>2015-10-07T09:10:49.000Z</time>
      </trkpt>
      <trkpt lat="43.39806" lon="1.31638">
        <ele>281.1</ele>
        <time>2015-10-07T09:10:57.000Z</time>
      </trkpt>
      <trkpt lat="43.39815" lon="1.31633">
        <ele>281.7</ele>
        <time>2015-10-07T09:11:6.000Z</time>
      </trkpt>
      <trkpt lat="43.39825" lon="1.31631">
        <ele>282.2</ele>
        <time>2015-10-07T09:11:14.000Z</time>
      </trkpt>
      <trkpt lat="43.39834" lon="1.31629">
        <ele>282.5</ele>
        <time>2015-10-07T09:11:21.000Z</time>
      </trkpt>
      <trkpt lat="43.39843" lon="1.31626">
        <ele>282.8</ele>
        <time>2015-10-07T09:11:30.000Z</time>
      </trkpt>
      <trkpt lat="43.39852" lon="1.31622">
        <ele>283.1</ele>
        <time>2015-10-07T09:11:39.000Z</time>
      </trkpt>
      <trkpt lat="43.39861" lon="1.31621">
        <ele>283.7</ele>
        <time>2015-10-07T09:11:46.000Z</time>
      </trkpt>
      <trkpt lat="43.3987" lon="1.31618">
        <ele>284</ele>
        <time>2015-10-07T09:11:54.000Z</time>
      </trkpt>
      <trkpt lat="43.39879" lon="1.31616">
        <ele>284.8</ele>
        <time>2015-10-07T09:12:3.000Z</time>
      </trkpt>
      <trkpt lat="43.39889" lon="1.31612">
        <ele>285.5</ele>
        <time>2015-10-07T09:12:12.000Z</time>
      </trkpt>
      <trkpt lat="43.39897" lon="1.31609">
        <ele>286.1</ele>
        <time>2015-10-07T09:12:21.000Z</time>
      </trkpt>
      <trkpt lat="43.39907" lon="1.31607">
        <ele>286.6</ele>
        <time>2015-10-07T09:12:29.000Z</time>
      </trkpt>
      <trkpt lat="43.39916" lon="1.31606">
        <ele>287</ele>
        <time>2015-10-07T09:12:37.000Z</time>
      </trkpt>
      <trkpt lat="43.39925" lon="1.31608">
        <ele>287.3</ele>
        <time>2015-10-07T09:12:46.000Z</time>
      </trkpt>
      <trkpt lat="43.39934" lon="1.31616">
        <ele>287.5</ele>
        <time>2015-10-07T09:12:55.000Z</time>
      </trkpt>
      <trkpt lat="43.3994" lon="1.31626">
        <ele>287.5</ele>
        <time>2015-10-07T09:13:2.000Z</time>
      </trkpt>
      <trkpt lat="43.39945" lon="1.31637">
        <ele>287.5</ele>
        <time>2015-10-07T09:13:11.000Z</time>
      </trkpt>
      <trkpt lat="43.39948" lon="1.31649">
        <ele>287</ele>
        <time>2015-10-07T09:13:20.000Z</time>
      </trkpt>
      <trkpt lat="43.39949" lon="1.31662">
        <ele>286.7</ele>
        <time>2015-10-07T09:13:28.000Z</time>
      </trkpt>
      <trkpt lat="43.39953" lon="1.31675">
        <ele>286.5</ele>
        <time>2015-10-07T09:13:35.000Z</time>
      </trkpt>
      <trkpt lat="43.39955" lon="1.31688">
        <ele>286.4</ele>
        <time>2015-10-07T09:13:43.000Z</time>
      </trkpt>
      <trkpt lat="43.39957" lon="1.31701">
        <ele>286.4</ele>
        <time>2015-10-07T09:13:51.000Z</time>
      </trkpt>
      <trkpt lat="43.39958" lon="1.31715">
        <ele>286.5</ele>
        <time>2015-10-07T09:14:0.000Z</time>
      </trkpt>
      <trkpt lat="43.39956" lon="1.31729">
        <ele>286.7</ele>
        <time>2015-10-07T09:14:8.000Z</time>
      </trkpt>
      <trkpt lat="43.39954" lon="1.31742">
        <ele>287.1</ele>
        <time>2015-10-07T09:14:16.000Z</time>
      </trkpt>
      <trkpt lat="43.3995" lon="1.31754">
        <ele>287.5</ele>
        <time>2015-10-07T09:14:26.000Z</time>
      </trkpt>
      <trkpt lat="43.39949" lon="1.31767">
        <ele>287.7</ele>
        <time>2015-10-07T09:14:34.000Z</time>
      </trkpt>
      <trkpt lat="43.39946" lon="1.31779">
        <ele>287.8</ele>
        <time>2015-10-07T09:14:41.000Z</time>
      </trkpt>
      <trkpt lat="43.39943" lon="1.31792">
        <ele>287.9</ele>
        <time>2015-10-07T09:14:49.000Z</time>
      </trkpt>
      <trkpt lat="43.3994" lon="1.31805">
        <ele>287.9</ele>
        <time>2015-10-07T09:14:57.000Z</time>
      </trkpt>
      <trkpt lat="43.39936" lon="1.31818">
        <ele>287.9</ele>
        <time>2015-10-07T09:15:5.000Z</time>
      </trkpt>
      <trkpt lat="43.39933" lon="1.31831">
        <ele>287.9</ele>
        <time>2015-10-07T09:15:14.000Z</time>
      </trkpt>
      <trkpt lat="43.39931" lon="1.31844">
        <ele>287.8</ele>
        <time>2015-10-07T09:15:22.000Z</time>
      </trkpt>
      <trkpt lat="43.39929" lon="1.31858">
        <ele>287.8</ele>
        <time>2015-10-07T09:15:30.000Z</time>
      </trkpt>
      <trkpt lat="43.39929" lon="1.31871">
        <ele>287.7</ele>
        <time>2015-10-07T09:15:38.000Z</time>
      </trkpt>
      <trkpt lat="43.39928" lon="1.31884">
        <ele>287.4</ele>
        <time>2015-10-07T09:15:46.000Z</time>
      </trkpt>
      <trkpt lat="43.39929" lon="1.31897">
        <ele>287.1</ele>
        <time>2015-10-07T09:15:54.000Z</time>
      </trkpt>
      <trkpt lat="43.39932" lon="1.3191">
        <ele>286.6</ele>
        <time>2015-10-07T09:16:2.000Z</time>
      </trkpt>
      <trkpt lat="43.39935" lon="1.31922">
        <ele>286.2</ele>
        <time>2015-10-07T09:16:10.000Z</time>
      </trkpt>
      <trkpt lat="43.39939" lon="1.31934">
        <ele>285.7</ele>
        <time>2015-10-07T09:16:17.000Z</time>
      </trkpt>
      <trkpt lat="43.39943" lon="1.31945">
        <ele>285.3</ele>
        <time>2015-10-07T09:16:25.000Z</time>
      </trkpt>
      <trkpt lat="43.39949" lon="1.31956">
        <ele>284.7</ele>
        <time>2015-10-07T09:16:34.000Z</time>
      </trkpt>
      <trkpt lat="43.39956" lon="1.31965">
        <ele>284.1</ele>
        <time>2015-10-07T09:16:42.000Z</time>
      </trkpt>
      <trkpt lat="43.39963" lon="1.31975">
        <ele>283.5</ele>
        <time>2015-10-07T09:16:50.000Z</time>
      </trkpt>
      <trkpt lat="43.3997" lon="1.31983">
        <ele>283.1</ele>
        <time>2015-10-07T09:16:58.000Z</time>
      </trkpt>
      <trkpt lat="43.39977" lon="1.31992">
        <ele>282.8</ele>
        <time>2015-10-07T09:17:6.000Z</time>
      </trkpt>
      <trkpt lat="43.39983" lon="1.32">
        <ele>282.5</ele>
        <time>2015-10-07T09:17:13.000Z</time>
      </trkpt>
      <trkpt lat="43.39991" lon="1.32006">
        <ele>282.1</ele>
        <time>2015-10-07T09:17:20.000Z</time>
      </trkpt>
      <trkpt lat="43.39998" lon="1.32015">
        <ele>281.8</ele>
        <time>2015-10-07T09:17:28.000Z</time>
      </trkpt>
      <trkpt lat="43.40006" lon="1.32024">
        <ele>281.5</ele>
        <time>2015-10-07T09:17:36.000Z</time>
      </trkpt>
      <trkpt lat="43.40014" lon="1.3203">
        <ele>281.3</ele>
        <time>2015-10-07T09:17:43.000Z</time>
      </trkpt>
      <trkpt lat="43.40024" lon="1.32036">
        <ele>280.9</ele>
        <time>2015-10-07T09:17:51.000Z</time>
      </trkpt>
      <trkpt lat="43.40031" lon="1.32045">
        <ele>280.6</ele>
        <time>2015-10-07T09:18:0.000Z</time>
      </trkpt>
      <trkpt lat="43.40038" lon="1.32052">
        <ele>280.4</ele>
        <time>2015-10-07T09:18:7.000Z</time>
      </trkpt>
      <trkpt lat="43.40043" lon="1.32064">
        <ele>280.3</ele>
        <time>2015-10-07T09:18:15.000Z</time>
      </trkpt>
      <trkpt lat="43.40047" lon="1.32075">
        <ele>280.2</ele>
        <time>2015-10-07T09:18:23.000Z</time>
      </trkpt>
      <trkpt lat="43.40052" lon="1.32087">
        <ele>280.2</ele>
        <time>2015-10-07T09:18:32.000Z</time>
      </trkpt>
      <trkpt lat="43.40054" lon="1.32099">
        <ele>280.1</ele>
        <time>2015-10-07T09:18:40.000Z</time>
      </trkpt>
      <trkpt lat="43.40057" lon="1.32111">
        <ele>280.3</ele>
        <time>2015-10-07T09:18:49.000Z</time>
      </trkpt>
      <trkpt lat="43.40058" lon="1.32124">
        <ele>280.6</ele>
        <time>2015-10-07T09:18:55.000Z</time>
      </trkpt>
      <trkpt lat="43.40059" lon="1.32137">
        <ele>280.8</ele>
        <time>2015-10-07T09:19:2.000Z</time>
      </trkpt>
      <trkpt lat="43.40061" lon="1.3215">
        <ele>280.9</ele>
        <time>2015-10-07T09:19:9.000Z</time>
      </trkpt>
      <trkpt lat="43.40061" lon="1.32163">
        <ele>281</ele>
        <time>2015-10-07T09:19:16.000Z</time>
      </trkpt>
      <trkpt lat="43.40062" lon="1.32176">
        <ele>281.1</ele>
        <time>2015-10-07T09:19:23.000Z</time>
      </trkpt>
      <trkpt lat="43.40063" lon="1.32189">
        <ele>281.2</ele>
        <time>2015-10-07T09:19:31.000Z</time>
      </trkpt>
      <trkpt lat="43.40065" lon="1.32203">
        <ele>281.4</ele>
        <time>2015-10-07T09:19:39.000Z</time>
      </trkpt>
      <trkpt lat="43.40067" lon="1.32215">
        <ele>281.7</ele>
        <time>2015-10-07T09:19:47.000Z</time>
      </trkpt>
      <trkpt lat="43.4007" lon="1.32227">
        <ele>281.9</ele>
        <time>2015-10-07T09:19:55.000Z</time>
      </trkpt>
      <trkpt lat="43.40073" lon="1.3224">
        <ele>282.1</ele>
        <time>2015-10-07T09:20:3.000Z</time>
      </trkpt>
      <trkpt lat="43.40076" lon="1.32252">
        <ele>282.4</ele>
        <time>2015-10-07T09:20:11.000Z</time>
      </trkpt>
      <trkpt lat="43.40079" lon="1.32264">
        <ele>282.7</ele>
        <time>2015-10-07T09:20:19.000Z</time>
      </trkpt>
      <trkpt lat="43.40084" lon="1.32275">
        <ele>283</ele>
        <time>2015-10-07T09:20:27.000Z</time>
      </trkpt>
      <trkpt lat="43.40087" lon="1.32287">
        <ele>283.4</ele>
        <time>2015-10-07T09:20:35.000Z</time>
      </trkpt>
      <trkpt lat="43.40092" lon="1.32299">
        <ele>283.8</ele>
        <time>2015-10-07T09:20:43.000Z</time>
      </trkpt>
      <trkpt lat="43.40096" lon="1.32312">
        <ele>284.1</ele>
        <time>2015-10-07T09:20:52.000Z</time>
      </trkpt>
      <trkpt lat="43.40098" lon="1.32324">
        <ele>284.2</ele>
        <time>2015-10-07T09:21:0.000Z</time>
      </trkpt>
      <trkpt lat="43.401" lon="1.32336">
        <ele>284.3</ele>
        <time>2015-10-07T09:21:7.000Z</time>
      </trkpt>
      <trkpt lat="43.40103" lon="1.32349">
        <ele>284.3</ele>
        <time>2015-10-07T09:21:15.000Z</time>
      </trkpt>
      <trkpt lat="43.40106" lon="1.32361">
        <ele>284.3</ele>
        <time>2015-10-07T09:21:22.000Z</time>
      </trkpt>
      <trkpt lat="43.4011" lon="1.32373">
        <ele>284.3</ele>
        <time>2015-10-07T09:21:30.000Z</time>
      </trkpt>
      <trkpt lat="43.40114" lon="1.32385">
        <ele>284.2</ele>
        <time>2015-10-07T09:21:38.000Z</time>
      </trkpt>
      <trkpt lat="43.4012" lon="1.32396">
        <ele>284.2</ele>
        <time>2015-10-07T09:21:46.000Z</time>
      </trkpt>
      <trkpt lat="43.40124" lon="1.3241">
        <ele>284</ele>
        <time>2015-10-07T09:21:54.000Z</time>
      </trkpt>
      <trkpt lat="43.40128" lon="1.32423">
        <ele>283.8</ele>
        <time>2015-10-07T09:22:2.000Z</time>
      </trkpt>
      <trkpt lat="43.40133" lon="1.32434">
        <ele>283.7</ele>
        <time>2015-10-07T09:22:10.000Z</time>
      </trkpt>
      <trkpt lat="43.40139" lon="1.32445">
        <ele>283.4</ele>
        <time>2015-10-07T09:22:18.000Z</time>
      </trkpt>
      <trkpt lat="43.40145" lon="1.32455">
        <ele>283</ele>
        <time>2015-10-07T09:22:26.000Z</time>
      </trkpt>
      <trkpt lat="43.40152" lon="1.32465">
        <ele>282.6</ele>
        <time>2015-10-07T09:22:34.000Z</time>
      </trkpt>
      <trkpt lat="43.40158" lon="1.32475">
        <ele>282.3</ele>
        <time>2015-10-07T09:22:42.000Z</time>
      </trkpt>
      <trkpt lat="43.40165" lon="1.32484">
        <ele>281.8</ele>
        <time>2015-10-07T09:22:50.000Z</time>
      </trkpt>
      <trkpt lat="43.40172" lon="1.32492">
        <ele>281.2</ele>
        <time>2015-10-07T09:22:59.000Z</time>
      </trkpt>
      <trkpt lat="43.4018" lon="1.32501">
        <ele>280.7</ele>
        <time>2015-10-07T09:23:7.000Z</time>
      </trkpt>
      <trkpt lat="43.40179" lon="1.32514">
        <ele>279.8</ele>
        <time>2015-10-07T09:23:17.000Z</time>
      </trkpt>
      <trkpt lat="43.40173" lon="1.32524">
        <ele>279.2</ele>
        <time>2015-10-07T09:23:27.000Z</time>
      </trkpt>
      <trkpt lat="43.40167" lon="1.32534">
        <ele>279.1</ele>
        <time>2015-10-07T09:23:36.000Z</time>
      </trkpt>
      <trkpt lat="43.40162" lon="1.32545">
        <ele>279.4</ele>
        <time>2015-10-07T09:23:46.000Z</time>
      </trkpt>
      <trkpt lat="43.40156" lon="1.32556">
        <ele>280</ele>
        <time>2015-10-07T09:23:55.000Z</time>
      </trkpt>
      <trkpt lat="43.40148" lon="1.32563">
        <ele>280.6</ele>
        <time>2015-10-07T09:24:4.000Z</time>
      </trkpt>
      <trkpt lat="43.40142" lon="1.32573">
        <ele>281.4</ele>
        <time>2015-10-07T09:24:13.000Z</time>
      </trkpt>
      <trkpt lat="43.40135" lon="1.32583">
        <ele>282.3</ele>
        <time>2015-10-07T09:24:22.000Z</time>
      </trkpt>
      <trkpt lat="43.40129" lon="1.32592">
        <ele>283.2</ele>
        <time>2015-10-07T09:24:31.000Z</time>
      </trkpt>
      <trkpt lat="43.40124" lon="1.32604">
        <ele>284.3</ele>
        <time>2015-10-07T09:24:41.000Z</time>
      </trkpt>
      <trkpt lat="43.40119" lon="1.32613">
        <ele>285.5</ele>
        <time>2015-10-07T09:24:50.000Z</time>
      </trkpt>
      <trkpt lat="43.40113" lon="1.32623">
        <ele>286.6</ele>
        <time>2015-10-07T09:24:59.000Z</time>
      </trkpt>
      <trkpt lat="43.40106" lon="1.32633">
        <ele>287.6</ele>
        <time>2015-10-07T09:25:9.000Z</time>
      </trkpt>
      <trkpt lat="43.401" lon="1.32643">
        <ele>288.4</ele>
        <time>2015-10-07T09:25:17.000Z</time>
      </trkpt>
      <trkpt lat="43.40093" lon="1.32651">
        <ele>289.1</ele>
        <time>2015-10-07T09:25:25.000Z</time>
      </trkpt>
      <trkpt lat="43.40088" lon="1.32662">
        <ele>289.7</ele>
        <time>2015-10-07T09:25:32.000Z</time>
      </trkpt>
      <trkpt lat="43.40083" lon="1.32672">
        <ele>290.3</ele>
        <time>2015-10-07T09:25:40.000Z</time>
      </trkpt>
      <trkpt lat="43.40077" lon="1.32683">
        <ele>290.9</ele>
        <time>2015-10-07T09:25:48.000Z</time>
      </trkpt>
      <trkpt lat="43.40071" lon="1.32694">
        <ele>291.4</ele>
        <time>2015-10-07T09:25:56.000Z</time>
      </trkpt>
      <trkpt lat="43.40065" lon="1.32704">
        <ele>291.7</ele>
        <time>2015-10-07T09:26:4.000Z</time>
      </trkpt>
      <trkpt lat="43.40059" lon="1.32714">
        <ele>291.9</ele>
        <time>2015-10-07T09:26:13.000Z</time>
      </trkpt>
      <trkpt lat="43.40052" lon="1.32723">
        <ele>291.9</ele>
        <time>2015-10-07T09:26:21.000Z</time>
      </trkpt>
      <trkpt lat="43.40045" lon="1.32731">
        <ele>291.8</ele>
        <time>2015-10-07T09:26:28.000Z</time>
      </trkpt>
      <trkpt lat="43.40037" lon="1.32739">
        <ele>291.5</ele>
        <time>2015-10-07T09:26:35.000Z</time>
      </trkpt>
      <trkpt lat="43.40029" lon="1.32745">
        <ele>290.8</ele>
        <time>2015-10-07T09:26:43.000Z</time>
      </trkpt>
      <trkpt lat="43.40021" lon="1.32753">
        <ele>290</ele>
        <time>2015-10-07T09:26:51.000Z</time>
      </trkpt>
      <trkpt lat="43.40012" lon="1.32761">
        <ele>289.1</ele>
        <time>2015-10-07T09:26:59.000Z</time>
      </trkpt>
      <trkpt lat="43.40005" lon="1.32768">
        <ele>288.3</ele>
        <time>2015-10-07T09:27:7.000Z</time>
      </trkpt>
      <trkpt lat="43.39998" lon="1.32776">
        <ele>287.6</ele>
        <time>2015-10-07T09:27:15.000Z</time>
      </trkpt>
      <trkpt lat="43.39991" lon="1.32784">
        <ele>287</ele>
        <time>2015-10-07T09:27:23.000Z</time>
      </trkpt>
      <trkpt lat="43.39983" lon="1.32791">
        <ele>286.6</ele>
        <time>2015-10-07T09:27:31.000Z</time>
      </trkpt>
      <trkpt lat="43.39976" lon="1.32799">
        <ele>286.3</ele>
        <time>2015-10-07T09:27:40.000Z</time>
      </trkpt>
      <trkpt lat="43.39968" lon="1.32807">
        <ele>286.2</ele>
        <time>2015-10-07T09:27:48.000Z</time>
      </trkpt>
      <trkpt lat="43.3996" lon="1.32815">
        <ele>285.8</ele>
        <time>2015-10-07T09:27:56.000Z</time>
      </trkpt>
      <trkpt lat="43.39953" lon="1.32823">
        <ele>285.6</ele>
        <time>2015-10-07T09:28:4.000Z</time>
      </trkpt>
      <trkpt lat="43.39946" lon="1.32833">
        <ele>285.4</ele>
        <time>2015-10-07T09:28:11.000Z</time>
      </trkpt>
      <trkpt lat="43.39939" lon="1.32841">
        <ele>285.1</ele>
        <time>2015-10-07T09:28:19.000Z</time>
      </trkpt>
      <trkpt lat="43.39933" lon="1.3285">
        <ele>284.8</ele>
        <time>2015-10-07T09:28:28.000Z</time>
      </trkpt>
      <trkpt lat="43.39926" lon="1.32861">
        <ele>284.5</ele>
        <time>2015-10-07T09:28:36.000Z</time>
      </trkpt>
      <trkpt lat="43.39923" lon="1.32873">
        <ele>284.1</ele>
        <time>2015-10-07T09:28:43.000Z</time>
      </trkpt>
      <trkpt lat="43.39918" lon="1.32884">
        <ele>283.8</ele>
        <time>2015-10-07T09:28:51.000Z</time>
      </trkpt>
      <trkpt lat="43.39914" lon="1.32897">
        <ele>283.3</ele>
        <time>2015-10-07T09:28:59.000Z</time>
      </trkpt>
      <trkpt lat="43.39908" lon="1.32907">
        <ele>282.7</ele>
        <time>2015-10-07T09:29:7.000Z</time>
      </trkpt>
      <trkpt lat="43.39903" lon="1.3292">
        <ele>282</ele>
        <time>2015-10-07T09:29:16.000Z</time>
      </trkpt>
      <trkpt lat="43.39897" lon="1.3293">
        <ele>281.1</ele>
        <time>2015-10-07T09:29:24.000Z</time>
      </trkpt>
      <trkpt lat="43.39889" lon="1.32939">
        <ele>280.3</ele>
        <time>2015-10-07T09:29:32.000Z</time>
      </trkpt>
      <trkpt lat="43.39883" lon="1.32948">
        <ele>279.5</ele>
        <time>2015-10-07T09:29:39.000Z</time>
      </trkpt>
      <trkpt lat="43.39878" lon="1.32959">
        <ele>278.6</ele>
        <time>2015-10-07T09:29:47.000Z</time>
      </trkpt>
      <trkpt lat="43.39875" lon="1.32971">
        <ele>277.6</ele>
        <time>2015-10-07T09:29:54.000Z</time>
      </trkpt>
      <trkpt lat="43.39871" lon="1.32984">
        <ele>276.1</ele>
        <time>2015-10-07T09:30:3.000Z</time>
      </trkpt>
      <trkpt lat="43.39867" lon="1.32996">
        <ele>274.9</ele>
        <time>2015-10-07T09:30:11.000Z</time>
      </trkpt>
      <trkpt lat="43.39863" lon="1.33007">
        <ele>273.8</ele>
        <time>2015-10-07T09:30:18.000Z</time>
      </trkpt>
      <trkpt lat="43.3986" lon="1.3302">
        <ele>272.4</ele>
        <time>2015-10-07T09:30:27.000Z</time>
      </trkpt>
      <trkpt lat="43.39855" lon="1.33032">
        <ele>271.1</ele>
        <time>2015-10-07T09:30:35.000Z</time>
      </trkpt>
      <trkpt lat="43.3985" lon="1.33044">
        <ele>269.9</ele>
        <time>2015-10-07T09:30:43.000Z</time>
      </trkpt>
      <trkpt lat="43.39844" lon="1.33054">
        <ele>268.7</ele>
        <time>2015-10-07T09:30:51.000Z</time>
      </trkpt>
      <trkpt lat="43.39838" lon="1.33065">
        <ele>267.6</ele>
        <time>2015-10-07T09:30:58.000Z</time>
      </trkpt>
      <trkpt lat="43.39832" lon="1.33075">
        <ele>266.5</ele>
        <time>2015-10-07T09:31:6.000Z</time>
      </trkpt>
      <trkpt lat="43.39826" lon="1.33084">
        <ele>265.4</ele>
        <time>2015-10-07T09:31:13.000Z</time>
      </trkpt>
      <trkpt lat="43.39819" lon="1.33093">
        <ele>264.3</ele>
        <time>2015-10-07T09:31:21.000Z</time>
      </trkpt>
      <trkpt lat="43.39813" lon="1.33103">
        <ele>263.3</ele>
        <time>2015-10-07T09:31:29.000Z</time>
      </trkpt>
      <trkpt lat="43.39808" lon="1.33114">
        <ele>262.5</ele>
        <time>2015-10-07T09:31:36.000Z</time>
      </trkpt>
      <trkpt lat="43.39802" lon="1.33124">
        <ele>261.4</ele>
        <time>2015-10-07T09:31:44.000Z</time>
      </trkpt>
      <trkpt lat="43.39797" lon="1.33135">
        <ele>260.5</ele>
        <time>2015-10-07T09:31:52.000Z</time>
      </trkpt>
      <trkpt lat="43.39793" lon="1.33148">
        <ele>259.9</ele>
        <time>2015-10-07T09:31:59.000Z</time>
      </trkpt>
      <trkpt lat="43.3979" lon="1.3316">
        <ele>259.3</ele>
        <time>2015-10-07T09:32:7.000Z</time>
      </trkpt>
      <trkpt lat="43.39789" lon="1.33173">
        <ele>258.9</ele>
        <time>2015-10-07T09:32:16.000Z</time>
      </trkpt>
      <trkpt lat="43.3979" lon="1.33187">
        <ele>258.7</ele>
        <time>2015-10-07T09:32:24.000Z</time>
      </trkpt>
      <trkpt lat="43.39788" lon="1.33199">
        <ele>258.6</ele>
        <time>2015-10-07T09:32:32.000Z</time>
      </trkpt>
      <trkpt lat="43.39782" lon="1.33209">
        <ele>258.5</ele>
        <time>2015-10-07T09:32:40.000Z</time>
      </trkpt>
      <trkpt lat="43.39778" lon="1.33221">
        <ele>258.2</ele>
        <time>2015-10-07T09:32:48.000Z</time>
      </trkpt>
      <trkpt lat="43.39773" lon="1.33232">
        <ele>258.1</ele>
        <time>2015-10-07T09:32:55.000Z</time>
      </trkpt>
      <trkpt lat="43.39768" lon="1.33243">
        <ele>257.7</ele>
        <time>2015-10-07T09:33:4.000Z</time>
      </trkpt>
      <trkpt lat="43.39761" lon="1.33253">
        <ele>257.4</ele>
        <time>2015-10-07T09:33:11.000Z</time>
      </trkpt>
      <trkpt lat="43.39756" lon="1.33263">
        <ele>257.1</ele>
        <time>2015-10-07T09:33:19.000Z</time>
      </trkpt>
      <trkpt lat="43.3975" lon="1.33272">
        <ele>256.9</ele>
        <time>2015-10-07T09:33:26.000Z</time>
      </trkpt>
      <trkpt lat="43.39742" lon="1.33281">
        <ele>256.5</ele>
        <time>2015-10-07T09:33:34.000Z</time>
      </trkpt>
      <trkpt lat="43.39736" lon="1.33291">
        <ele>256.2</ele>
        <time>2015-10-07T09:33:42.000Z</time>
      </trkpt>
      <trkpt lat="43.39729" lon="1.33299">
        <ele>255.9</ele>
        <time>2015-10-07T09:33:49.000Z</time>
      </trkpt>
      <trkpt lat="43.39723" lon="1.33308">
        <ele>255.6</ele>
        <time>2015-10-07T09:33:58.000Z</time>
      </trkpt>
      <trkpt lat="43.39718" lon="1.3332">
        <ele>255.1</ele>
        <time>2015-10-07T09:34:7.000Z</time>
      </trkpt>
      <trkpt lat="43.39712" lon="1.3333">
        <ele>254.8</ele>
        <time>2015-10-07T09:34:15.000Z</time>
      </trkpt>
      <trkpt lat="43.39704" lon="1.33338">
        <ele>254.3</ele>
        <time>2015-10-07T09:34:24.000Z</time>
      </trkpt>
      <trkpt lat="43.39696" lon="1.33344">
        <ele>254.1</ele>
        <time>2015-10-07T09:34:30.000Z</time>
      </trkpt>
      <trkpt lat="43.39689" lon="1.33352">
        <ele>253.7</ele>
        <time>2015-10-07T09:34:38.000Z</time>
      </trkpt>
      <trkpt lat="43.39681" lon="1.3336">
        <ele>253.4</ele>
        <time>2015-10-07T09:34:46.000Z</time>
      </trkpt>
      <trkpt lat="43.39674" lon="1.3337">
        <ele>253.2</ele>
        <time>2015-10-07T09:34:54.000Z</time>
      </trkpt>
      <trkpt lat="43.39665" lon="1.33375">
        <ele>252.9</ele>
        <time>2015-10-07T09:35:2.000Z</time>
      </trkpt>
      <trkpt lat="43.39658" lon="1.33383">
        <ele>252.8</ele>
        <time>2015-10-07T09:35:9.000Z</time>
      </trkpt>
      <trkpt lat="43.3965" lon="1.3339">
        <ele>252.5</ele>
        <time>2015-10-07T09:35:16.000Z</time>
      </trkpt>
      <trkpt lat="43.39642" lon="1.33398">
        <ele>252.1</ele>
        <time>2015-10-07T09:35:23.000Z</time>
      </trkpt>
      <trkpt lat="43.39635" lon="1.33406">
        <ele>251.7</ele>
        <time>2015-10-07T09:35:31.000Z</time>
      </trkpt>
      <trkpt lat="43.39627" lon="1.33414">
        <ele>251.4</ele>
        <time>2015-10-07T09:35:39.000Z</time>
      </trkpt>
      <trkpt lat="43.3962" lon="1.33421">
        <ele>251.2</ele>
        <time>2015-10-07T09:35:47.000Z</time>
      </trkpt>
      <trkpt lat="43.39613" lon="1.33429">
        <ele>251.1</ele>
        <time>2015-10-07T09:35:55.000Z</time>
      </trkpt>
      <trkpt lat="43.39605" lon="1.33436">
        <ele>250.8</ele>
        <time>2015-10-07T09:36:3.000Z</time>
      </trkpt>
      <trkpt lat="43.39597" lon="1.33443">
        <ele>250.7</ele>
        <time>2015-10-07T09:36:11.000Z</time>
      </trkpt>
      <trkpt lat="43.39589" lon="1.3345">
        <ele>250.5</ele>
        <time>2015-10-07T09:36:19.000Z</time>
      </trkpt>
      <trkpt lat="43.39581" lon="1.33456">
        <ele>250.3</ele>
        <time>2015-10-07T09:36:26.000Z</time>
      </trkpt>
      <trkpt lat="43.39573" lon="1.33462">
        <ele>250.1</ele>
        <time>2015-10-07T09:36:33.000Z</time>
      </trkpt>
      <trkpt lat="43.39564" lon="1.33469">
        <ele>249.7</ele>
        <time>2015-10-07T09:36:42.000Z</time>
      </trkpt>
      <trkpt lat="43.39556" lon="1.33476">
        <ele>249.4</ele>
        <time>2015-10-07T09:36:48.000Z</time>
      </trkpt>
      <trkpt lat="43.39548" lon="1.33482">
        <ele>248.8</ele>
        <time>2015-10-07T09:36:56.000Z</time>
      </trkpt>
      <trkpt lat="43.3954" lon="1.33489">
        <ele>248.1</ele>
        <time>2015-10-07T09:37:4.000Z</time>
      </trkpt>
      <trkpt lat="43.39532" lon="1.33497">
        <ele>247.5</ele>
        <time>2015-10-07T09:37:12.000Z</time>
      </trkpt>
      <trkpt lat="43.39524" lon="1.33504">
        <ele>246.8</ele>
        <time>2015-10-07T09:37:19.000Z</time>
      </trkpt>
      <trkpt lat="43.39516" lon="1.33511">
        <ele>246.3</ele>
        <time>2015-10-07T09:37:27.000Z</time>
      </trkpt>
      <trkpt lat="43.39509" lon="1.33519">
        <ele>245.8</ele>
        <time>2015-10-07T09:37:35.000Z</time>
      </trkpt>
      <trkpt lat="43.39501" lon="1.33528">
        <ele>245.3</ele>
        <time>2015-10-07T09:37:43.000Z</time>
      </trkpt>
      <trkpt lat="43.39493" lon="1.33536">
        <ele>244.8</ele>
        <time>2015-10-07T09:37:51.000Z</time>
      </trkpt>
      <trkpt lat="43.39485" lon="1.33542">
        <ele>244.4</ele>
        <time>2015-10-07T09:37:59.000Z</time>
      </trkpt>
      <trkpt lat="43.39478" lon="1.3355">
        <ele>244</ele>
        <time>2015-10-07T09:38:7.000Z</time>
      </trkpt>
      <trkpt lat="43.3947" lon="1.33558">
        <ele>243.6</ele>
        <time>2015-10-07T09:38:15.000Z</time>
      </trkpt>
      <trkpt lat="43.39463" lon="1.33565">
        <ele>243.1</ele>
        <time>2015-10-07T09:38:23.000Z</time>
      </trkpt>
      <trkpt lat="43.39455" lon="1.33574">
        <ele>242.6</ele>
        <time>2015-10-07T09:38:32.000Z</time>
      </trkpt>
      <trkpt lat="43.39448" lon="1.33583">
        <ele>242.4</ele>
        <time>2015-10-07T09:38:40.000Z</time>
      </trkpt>
      <trkpt lat="43.39441" lon="1.33593">
        <ele>242.2</ele>
        <time>2015-10-07T09:38:48.000Z</time>
      </trkpt>
      <trkpt lat="43.39434" lon="1.33601">
        <ele>242.1</ele>
        <time>2015-10-07T09:38:55.000Z</time>
      </trkpt>
      <trkpt lat="43.39427" lon="1.33611">
        <ele>241.8</ele>
        <time>2015-10-07T09:39:3.000Z</time>
      </trkpt>
      <trkpt lat="43.39421" lon="1.3362">
        <ele>241.4</ele>
        <time>2015-10-07T09:39:10.000Z</time>
      </trkpt>
      <trkpt lat="43.39413" lon="1.3363">
        <ele>241.1</ele>
        <time>2015-10-07T09:39:19.000Z</time>
      </trkpt>
      <trkpt lat="43.39406" lon="1.3364">
        <ele>240.7</ele>
        <time>2015-10-07T09:39:28.000Z</time>
      </trkpt>
      <trkpt lat="43.39401" lon="1.33651">
        <ele>240.3</ele>
        <time>2015-10-07T09:39:36.000Z</time>
      </trkpt>
      <trkpt lat="43.39396" lon="1.33662">
        <ele>239.8</ele>
        <time>2015-10-07T09:39:44.000Z</time>
      </trkpt>
      <trkpt lat="43.39391" lon="1.33673">
        <ele>239.4</ele>
        <time>2015-10-07T09:39:52.000Z</time>
      </trkpt>
      <trkpt lat="43.39385" lon="1.33683">
        <ele>238.9</ele>
        <time>2015-10-07T09:40:0.000Z</time>
      </trkpt>
      <trkpt lat="43.39378" lon="1.33692">
        <ele>238.2</ele>
        <time>2015-10-07T09:40:8.000Z</time>
      </trkpt>
      <trkpt lat="43.39372" lon="1.33702">
        <ele>237.5</ele>
        <time>2015-10-07T09:40:16.000Z</time>
      </trkpt>
      <trkpt lat="43.39365" lon="1.33711">
        <ele>236.7</ele>
        <time>2015-10-07T09:40:24.000Z</time>
      </trkpt>
      <trkpt lat="43.39359" lon="1.33721">
        <ele>236.1</ele>
        <time>2015-10-07T09:40:31.000Z</time>
      </trkpt>
      <trkpt lat="43.39351" lon="1.33729">
        <ele>235.4</ele>
        <time>2015-10-07T09:40:39.000Z</time>
      </trkpt>
      <trkpt lat="43.39345" lon="1.33739">
        <ele>234.6</ele>
        <time>2015-10-07T09:40:47.000Z</time>
      </trkpt>
      <trkpt lat="43.39338" lon="1.33747">
        <ele>234</ele>
        <time>2015-10-07T09:40:54.000Z</time>
      </trkpt>
      <trkpt lat="43.3933" lon="1.33756">
        <ele>233.2</ele>
        <time>2015-10-07T09:41:3.000Z</time>
      </trkpt>
      <trkpt lat="43.39323" lon="1.33765">
        <ele>232.3</ele>
        <time>2015-10-07T09:41:11.000Z</time>
      </trkpt>
      <trkpt lat="43.39316" lon="1.33774">
        <ele>231.4</ele>
        <time>2015-10-07T09:41:19.000Z</time>
      </trkpt>
      <trkpt lat="43.3931" lon="1.33784">
        <ele>230.6</ele>
        <time>2015-10-07T09:41:27.000Z</time>
      </trkpt>
      <trkpt lat="43.39303" lon="1.33795">
        <ele>230</ele>
        <time>2015-10-07T09:41:35.000Z</time>
      </trkpt>
      <trkpt lat="43.39297" lon="1.33805">
        <ele>229.2</ele>
        <time>2015-10-07T09:41:43.000Z</time>
      </trkpt>
      <trkpt lat="43.3929" lon="1.33813">
        <ele>228.4</ele>
        <time>2015-10-07T09:41:51.000Z</time>
      </trkpt>
      <trkpt lat="43.39283" lon="1.33822">
        <ele>227.9</ele>
        <time>2015-10-07T09:41:58.000Z</time>
      </trkpt>
      <trkpt lat="43.39276" lon="1.33831">
        <ele>227.3</ele>
        <time>2015-10-07T09:42:6.000Z</time>
      </trkpt>
      <trkpt lat="43.39269" lon="1.3384">
        <ele>226.7</ele>
        <time>2015-10-07T09:42:14.000Z</time>
      </trkpt>
      <trkpt lat="43.39262" lon="1.33848">
        <ele>226.2</ele>
        <time>2015-10-07T09:42:22.000Z</time>
      </trkpt>
      <trkpt lat="43.39255" lon="1.33856">
        <ele>225.6</ele>
        <time>2015-10-07T09:42:29.000Z</time>
      </trkpt>
      <trkpt lat="43.39247" lon="1.33863">
        <ele>225.1</ele>
        <time>2015-10-07T09:42:37.000Z</time>
      </trkpt>
      <trkpt lat="43.39239" lon="1.33872">
        <ele>224.3</ele>
        <time>2015-10-07T09:42:47.000Z</time>
      </trkpt>
      <trkpt lat="43.39231" lon="1.3388">
        <ele>223.8</ele>
        <time>2015-10-07T09:42:54.000Z</time>
      </trkpt>
      <trkpt lat="43.39224" lon="1.3389">
        <ele>223.2</ele>
        <time>2015-10-07T09:43:1.000Z</time>
      </trkpt>
      <trkpt lat="43.39218" lon="1.33899">
        <ele>222.4</ele>
        <time>2015-10-07T09:43:8.000Z</time>
      </trkpt>
      <trkpt lat="43.3921" lon="1.33909">
        <ele>221.6</ele>
        <time>2015-10-07T09:43:16.000Z</time>
      </trkpt>
      <trkpt lat="43.39202" lon="1.33915">
        <ele>221.1</ele>
        <time>2015-10-07T09:43:23.000Z</time>
      </trkpt>
      <trkpt lat="43.39195" lon="1.33925">
        <ele>220.7</ele>
        <time>2015-10-07T09:43:30.000Z</time>
      </trkpt>
      <trkpt lat="43.39187" lon="1.33933">
        <ele>220</ele>
        <time>2015-10-07T09:43:38.000Z</time>
      </trkpt>
      <trkpt lat="43.3918" lon="1.33941">
        <ele>219.2</ele>
        <time>2015-10-07T09:43:45.000Z</time>
      </trkpt>
      <trkpt lat="43.39173" lon="1.33949">
        <ele>218.5</ele>
        <time>2015-10-07T09:43:53.000Z</time>
      </trkpt>
      <trkpt lat="43.39165" lon="1.33958">
        <ele>217.7</ele>
        <time>2015-10-07T09:44:0.000Z</time>
      </trkpt>
      <trkpt lat="43.39158" lon="1.33966">
        <ele>217</ele>
        <time>2015-10-07T09:44:7.000Z</time>
      </trkpt>
      <trkpt lat="43.3915" lon="1.33972">
        <ele>216.1</ele>
        <time>2015-10-07T09:44:15.000Z</time>
      </trkpt>
      <trkpt lat="43.39143" lon="1.33982">
        <ele>215.3</ele>
        <time>2015-10-07T09:44:24.000Z</time>
      </trkpt>
      <trkpt lat="43.39136" lon="1.33993">
        <ele>214.5</ele>
        <time>2015-10-07T09:44:31.000Z</time>
      </trkpt>
      <trkpt lat="43.39129" lon="1.34003">
        <ele>213.7</ele>
        <time>2015-10-07T09:44:38.000Z</time>
      </trkpt>
      <trkpt lat="43.39122" lon="1.34013">
        <ele>212.9</ele>
        <time>2015-10-07T09:44:46.000Z</time>
      </trkpt>
      <trkpt lat="43.39115" lon="1.34021">
        <ele>212.1</ele>
        <time>2015-10-07T09:44:53.000Z</time>
      </trkpt>
      <trkpt lat="43.39107" lon="1.3403">
        <ele>211.3</ele>
        <time>2015-10-07T09:45:1.000Z</time>
      </trkpt>
      <trkpt lat="43.39099" lon="1.34037">
        <ele>210.2</ele>
        <time>2015-10-07T09:45:10.000Z</time>
      </trkpt>
      <trkpt lat="43.39092" lon="1.34045">
        <ele>209.4</ele>
        <time>2015-10-07T09:45:18.000Z</time>
      </trkpt>
      <trkpt lat="43.39085" lon="1.34054">
        <ele>208.7</ele>
        <time>2015-10-07T09:45:26.000Z</time>
      </trkpt>
      <trkpt lat="43.39078" lon="1.34064">
        <ele>208</ele>
        <time>2015-10-07T09:45:34.000Z</time>
      </trkpt>
      <trkpt lat="43.3907" lon="1.34074">
        <ele>207.1</ele>
        <time>2015-10-07T09:45:42.000Z</time>
      </trkpt>
      <trkpt lat="43.39064" lon="1.34082">
        <ele>206.4</ele>
        <time>2015-10-07T09:45:50.000Z</time>
      </trkpt>
      <trkpt lat="43.39056" lon="1.3409">
        <ele>205.7</ele>
        <time>2015-10-07T09:45:58.000Z</time>
      </trkpt>
      <trkpt lat="43.39048" lon="1.34097">
        <ele>205.1</ele>
        <time>2015-10-07T09:46:6.000Z</time>
      </trkpt>
      <trkpt lat="43.39041" lon="1.34105">
        <ele>204.4</ele>
        <time>2015-10-07T09:46:13.000Z</time>
      </trkpt>
      <trkpt lat="43.39034" lon="1.34115">
        <ele>203.8</ele>
        <time>2015-10-07T09:46:21.000Z</time>
      </trkpt>
      <trkpt lat="43.39026" lon="1.34123">
        <ele>203.1</ele>
        <time>2015-10-07T09:46:29.000Z</time>
      </trkpt>
      <trkpt lat="43.39019" lon="1.34131">
        <ele>202.4</ele>
        <time>2015-10-07T09:46:37.000Z</time>
      </trkpt>
      <trkpt lat="43.39012" lon="1.34141">
        <ele>201.7</ele>
        <time>2015-10-07T09:46:45.000Z</time>
      </trkpt>
      <trkpt lat="43.39005" lon="1.34152">
        <ele>200.8</ele>
        <time>2015-10-07T09:46:53.000Z</time>
      </trkpt>
      <trkpt lat="43.39" lon="1.34163">
        <ele>200.1</ele>
        <time>2015-10-07T09:47:1.000Z</time>
      </trkpt>
      <trkpt lat="43.38993" lon="1.34173">
        <ele>199.3</ele>
        <time>2015-10-07T09:47:10.000Z</time>
      </trkpt>
      <trkpt lat="43.38988" lon="1.34184">
        <ele>198.5</ele>
        <time>2015-10-07T09:47:19.000Z</time>
      </trkpt>
      <trkpt lat="43.38984" lon="1.34196">
        <ele>197.6</ele>
        <time>2015-10-07T09:47:28.000Z</time>
      </trkpt>
      <trkpt lat="43.38982" lon="1.3421">
        <ele>196.5</ele>
        <time>2015-10-07T09:47:37.000Z</time>
      </trkpt>
      <trkpt lat="43.38985" lon="1.34223">
        <ele>195.4</ele>
        <time>2015-10-07T09:47:46.000Z</time>
      </trkpt>
      <trkpt lat="43.38991" lon="1.34233">
        <ele>194.8</ele>
        <time>2015-10-07T09:47:54.000Z</time>
      </trkpt>
      <trkpt lat="43.38997" lon="1.34243">
        <ele>194.1</ele>
        <time>2015-10-07T09:48:2.000Z</time>
      </trkpt>
      <trkpt lat="43.39003" lon="1.34254">
        <ele>193.6</ele>
        <time>2015-10-07T09:48:9.000Z</time>
      </trkpt>
      <trkpt lat="43.39007" lon="1.34264">
        <ele>193</ele>
        <time>2015-10-07T09:48:16.000Z</time>
      </trkpt>
      <trkpt lat="43.3901" lon="1.34277">
        <ele>192.6</ele>
        <time>2015-10-07T09:48:24.000Z</time>
      </trkpt>
      <trkpt lat="43.39012" lon="1.3429">
        <ele>192.3</ele>
        <time>2015-10-07T09:48:32.000Z</time>
      </trkpt>
      <trkpt lat="43.39011" lon="1.34304">
        <ele>192.1</ele>
        <time>2015-10-07T09:48:40.000Z</time>
      </trkpt>
      <trkpt lat="43.39011" lon="1.34318">
        <ele>191.9</ele>
        <time>2015-10-07T09:48:48.000Z</time>
      </trkpt>
      <trkpt lat="43.39011" lon="1.3433">
        <ele>191.8</ele>
        <time>2015-10-07T09:48:55.000Z</time>
      </trkpt>
      <trkpt lat="43.39007" lon="1.34344">
        <ele>191.8</ele>
        <time>2015-10-07T09:49:3.000Z</time>
      </trkpt>
      <trkpt lat="43.39004" lon="1.34356">
        <ele>192</ele>
        <time>2015-10-07T09:49:11.000Z</time>
      </trkpt>
      <trkpt lat="43.38998" lon="1.34366">
        <ele>192.3</ele>
        <time>2015-10-07T09:49:19.000Z</time>
      </trkpt>
      <trkpt lat="43.38992" lon="1.34377">
        <ele>192.5</ele>
        <time>2015-10-07T09:49:27.000Z</time>
      </trkpt>
      <trkpt lat="43.38985" lon="1.34387">
        <ele>192.5</ele>
        <time>2015-10-07T09:49:35.000Z</time>
      </trkpt>
      <trkpt lat="43.38979" lon="1.34395">
        <ele>192.4</ele>
        <time>2015-10-07T09:49:42.000Z</time>
      </trkpt>
      <trkpt lat="43.38972" lon="1.34404">
        <ele>192.3</ele>
        <time>2015-10-07T09:49:49.000Z</time>
      </trkpt>
      <trkpt lat="43.38965" lon="1.34414">
        <ele>192.2</ele>
        <time>2015-10-07T09:49:57.000Z</time>
      </trkpt>
      <trkpt lat="43.3896" lon="1.34426">
        <ele>192.1</ele>
        <time>2015-10-07T09:50:5.000Z</time>
      </trkpt>
      <trkpt lat="43.38953" lon="1.34436">
        <ele>192.1</ele>
        <time>2015-10-07T09:50:13.000Z</time>
      </trkpt>
      <trkpt lat="43.38946" lon="1.34444">
        <ele>192</ele>
        <time>2015-10-07T09:50:20.000Z</time>
      </trkpt>
      <trkpt lat="43.3894" lon="1.34454">
        <ele>192</ele>
        <time>2015-10-07T09:50:28.000Z</time>
      </trkpt>
      <trkpt lat="43.38934" lon="1.34466">
        <ele>191.7</ele>
        <time>2015-10-07T09:50:36.000Z</time>
      </trkpt>
      <trkpt lat="43.38928" lon="1.34476">
        <ele>191.3</ele>
        <time>2015-10-07T09:50:44.000Z</time>
      </trkpt>
      <trkpt lat="43.38921" lon="1.34486">
        <ele>191</ele>
        <time>2015-10-07T09:50:52.000Z</time>
      </trkpt>
      <trkpt lat="43.38914" lon="1.34496">
        <ele>190.8</ele>
        <time>2015-10-07T09:51:0.000Z</time>
      </trkpt>
      <trkpt lat="43.38906" lon="1.34502">
        <ele>190.7</ele>
        <time>2015-10-07T09:51:5.000Z</time>
      </trkpt>
      <trkpt lat="43.38899" lon="1.34512">
        <ele>190.2</ele>
        <time>2015-10-07T09:51:13.000Z</time>
      </trkpt>
      <trkpt lat="43.38891" lon="1.34521">
        <ele>189.8</ele>
        <time>2015-10-07T09:51:21.000Z</time>
      </trkpt>
      <trkpt lat="43.38885" lon="1.3453">
        <ele>189.6</ele>
        <time>2015-10-07T09:51:28.000Z</time>
      </trkpt>
      <trkpt lat="43.38879" lon="1.34541">
        <ele>189.5</ele>
        <time>2015-10-07T09:51:35.000Z</time>
      </trkpt>
      <trkpt lat="43.38872" lon="1.3455">
        <ele>189.4</ele>
        <time>2015-10-07T09:51:42.000Z</time>
      </trkpt>
      <trkpt lat="43.38865" lon="1.3456">
        <ele>189.2</ele>
        <time>2015-10-07T09:51:49.000Z</time>
      </trkpt>
      <trkpt lat="43.38858" lon="1.34569">
        <ele>188.9</ele>
        <time>2015-10-07T09:51:57.000Z</time>
      </trkpt>
      <trkpt lat="43.38851" lon="1.34579">
        <ele>188.6</ele>
        <time>2015-10-07T09:52:5.000Z</time>
      </trkpt>
      <trkpt lat="43.38844" lon="1.3459">
        <ele>188.3</ele>
        <time>2015-10-07T09:52:13.000Z</time>
      </trkpt>
      <trkpt lat="43.38839" lon="1.346">
        <ele>188</ele>
        <time>2015-10-07T09:52:20.000Z</time>
      </trkpt>
      <trkpt lat="43.38848" lon="1.34611">
        <ele>187.4</ele>
        <time>2015-10-07T09:59:21.000Z</time>
      </trkpt>
      <trkpt lat="43.38857" lon="1.34618">
        <ele>187.2</ele>
        <time>2015-10-07T09:59:32.000Z</time>
      </trkpt>
      <trkpt lat="43.38866" lon="1.34623">
        <ele>187.2</ele>
        <time>2015-10-07T09:59:42.000Z</time>
      </trkpt>
      <trkpt lat="43.38875" lon="1.34626">
        <ele>187.1</ele>
        <time>2015-10-07T09:59:50.000Z</time>
      </trkpt>
      <trkpt lat="43.38885" lon="1.34629">
        <ele>187.1</ele>
        <time>2015-10-07T10:00:0.000Z</time>
      </trkpt>
      <trkpt lat="43.38894" lon="1.34631">
        <ele>187.2</ele>
        <time>2015-10-07T10:00:10.000Z</time>
      </trkpt>
      <trkpt lat="43.38905" lon="1.34633">
        <ele>187.3</ele>
        <time>2015-10-07T10:00:20.000Z</time>
      </trkpt>
      <trkpt lat="43.38914" lon="1.34629">
        <ele>187.8</ele>
        <time>2015-10-07T10:00:33.000Z</time>
      </trkpt>
      <trkpt lat="43.38923" lon="1.34631">
        <ele>188</ele>
        <time>2015-10-07T10:00:43.000Z</time>
      </trkpt>
      <trkpt lat="43.38933" lon="1.34631">
        <ele>188.2</ele>
        <time>2015-10-07T10:00:52.000Z</time>
      </trkpt>
      <trkpt lat="43.38943" lon="1.34632">
        <ele>188.3</ele>
        <time>2015-10-07T10:01:0.000Z</time>
      </trkpt>
      <trkpt lat="43.38952" lon="1.34633">
        <ele>188.5</ele>
        <time>2015-10-07T10:01:9.000Z</time>
      </trkpt>
      <trkpt lat="43.38962" lon="1.34632">
        <ele>188.7</ele>
        <time>2015-10-07T10:01:18.000Z</time>
      </trkpt>
      <trkpt lat="43.38971" lon="1.34632">
        <ele>188.9</ele>
        <time>2015-10-07T10:01:26.000Z</time>
      </trkpt>
      <trkpt lat="43.38981" lon="1.34634">
        <ele>189.3</ele>
        <time>2015-10-07T10:01:36.000Z</time>
      </trkpt>
      <trkpt lat="43.3899" lon="1.34634">
        <ele>189.6</ele>
        <time>2015-10-07T10:01:45.000Z</time>
      </trkpt>
      <trkpt lat="43.39" lon="1.34634">
        <ele>190</ele>
        <time>2015-10-07T10:01:53.000Z</time>
      </trkpt>
      <trkpt lat="43.39009" lon="1.34635">
        <ele>190.3</ele>
        <time>2015-10-07T10:02:0.000Z</time>
      </trkpt>
      <trkpt lat="43.39018" lon="1.34635">
        <ele>190.6</ele>
        <time>2015-10-07T10:02:7.000Z</time>
      </trkpt>
      <trkpt lat="43.39027" lon="1.34636">
        <ele>191</ele>
        <time>2015-10-07T10:02:16.000Z</time>
      </trkpt>
      <trkpt lat="43.39036" lon="1.34637">
        <ele>191.5</ele>
        <time>2015-10-07T10:02:25.000Z</time>
      </trkpt>
      <trkpt lat="43.39045" lon="1.34639">
        <ele>191.9</ele>
        <time>2015-10-07T10:02:34.000Z</time>
      </trkpt>
      <trkpt lat="43.39054" lon="1.34642">
        <ele>192.3</ele>
        <time>2015-10-07T10:02:44.000Z</time>
      </trkpt>
      <trkpt lat="43.39062" lon="1.34647">
        <ele>192.9</ele>
        <time>2015-10-07T10:02:55.000Z</time>
      </trkpt>
      <trkpt lat="43.39071" lon="1.34653">
        <ele>193.7</ele>
        <time>2015-10-07T10:03:7.000Z</time>
      </trkpt>
      <trkpt lat="43.39078" lon="1.34662">
        <ele>194.2</ele>
        <time>2015-10-07T10:03:16.000Z</time>
      </trkpt>
      <trkpt lat="43.39085" lon="1.34672">
        <ele>194.8</ele>
        <time>2015-10-07T10:03:27.000Z</time>
      </trkpt>
      <trkpt lat="43.39092" lon="1.3468">
        <ele>195.3</ele>
        <time>2015-10-07T10:03:35.000Z</time>
      </trkpt>
      <trkpt lat="43.39099" lon="1.34687">
        <ele>195.6</ele>
        <time>2015-10-07T10:03:43.000Z</time>
      </trkpt>
      <trkpt lat="43.39106" lon="1.34697">
        <ele>196.2</ele>
        <time>2015-10-07T10:03:55.000Z</time>
      </trkpt>
      <trkpt lat="43.39114" lon="1.34702">
        <ele>196.7</ele>
        <time>2015-10-07T10:04:4.000Z</time>
      </trkpt>
      <trkpt lat="43.39118" lon="1.34714">
        <ele>197.1</ele>
        <time>2015-10-07T10:04:12.000Z</time>
      </trkpt>
      <trkpt lat="43.39121" lon="1.34726">
        <ele>197.4</ele>
        <time>2015-10-07T10:04:21.000Z</time>
      </trkpt>
      <trkpt lat="43.39128" lon="1.34736">
        <ele>197.6</ele>
        <time>2015-10-07T10:04:29.000Z</time>
      </trkpt>
      <trkpt lat="43.39134" lon="1.34746">
        <ele>197.7</ele>
        <time>2015-10-07T10:04:36.000Z</time>
      </trkpt>
      <trkpt lat="43.39141" lon="1.34754">
        <ele>197.7</ele>
        <time>2015-10-07T10:04:43.000Z</time>
      </trkpt>
      <trkpt lat="43.3915" lon="1.34762">
        <ele>197.7</ele>
        <time>2015-10-07T10:04:49.000Z</time>
      </trkpt>
      <trkpt lat="43.39157" lon="1.34769">
        <ele>197.8</ele>
        <time>2015-10-07T10:04:56.000Z</time>
      </trkpt>
      <trkpt lat="43.39165" lon="1.34777">
        <ele>197.8</ele>
        <time>2015-10-07T10:05:4.000Z</time>
      </trkpt>
      <trkpt lat="43.39173" lon="1.34782">
        <ele>197.8</ele>
        <time>2015-10-07T10:05:11.000Z</time>
      </trkpt>
      <trkpt lat="43.39181" lon="1.34789">
        <ele>197.8</ele>
        <time>2015-10-07T10:05:20.000Z</time>
      </trkpt>
      <trkpt lat="43.3919" lon="1.34794">
        <ele>197.8</ele>
        <time>2015-10-07T10:05:30.000Z</time>
      </trkpt>
      <trkpt lat="43.39199" lon="1.34799">
        <ele>197.8</ele>
        <time>2015-10-07T10:05:39.000Z</time>
      </trkpt>
      <trkpt lat="43.39208" lon="1.34802">
        <ele>197.6</ele>
        <time>2015-10-07T10:05:48.000Z</time>
      </trkpt>
      <trkpt lat="43.39215" lon="1.34811">
        <ele>197.6</ele>
        <time>2015-10-07T10:05:57.000Z</time>
      </trkpt>
      <trkpt lat="43.39224" lon="1.34818">
        <ele>197.5</ele>
        <time>2015-10-07T10:06:6.000Z</time>
      </trkpt>
      <trkpt lat="43.39233" lon="1.34819">
        <ele>197.5</ele>
        <time>2015-10-07T10:06:14.000Z</time>
      </trkpt>
      <trkpt lat="43.39243" lon="1.34819">
        <ele>197.5</ele>
        <time>2015-10-07T10:06:25.000Z</time>
      </trkpt>
      <trkpt lat="43.39252" lon="1.3482">
        <ele>197.7</ele>
        <time>2015-10-07T10:06:37.000Z</time>
      </trkpt>
      <trkpt lat="43.39262" lon="1.34822">
        <ele>198.2</ele>
        <time>2015-10-07T10:06:47.000Z</time>
      </trkpt>
      <trkpt lat="43.39271" lon="1.34824">
        <ele>199</ele>
        <time>2015-10-07T10:06:58.000Z</time>
      </trkpt>
      <trkpt lat="43.3928" lon="1.34825">
        <ele>199.6</ele>
        <time>2015-10-07T10:07:6.000Z</time>
      </trkpt>
      <trkpt lat="43.39289" lon="1.34829">
        <ele>200.3</ele>
        <time>2015-10-07T10:07:15.000Z</time>
      </trkpt>
      <trkpt lat="43.39298" lon="1.34828">
        <ele>200.8</ele>
        <time>2015-10-07T10:07:23.000Z</time>
      </trkpt>
      <trkpt lat="43.39307" lon="1.34832">
        <ele>201.4</ele>
        <time>2015-10-07T10:07:33.000Z</time>
      </trkpt>
      <trkpt lat="43.39316" lon="1.34836">
        <ele>202.4</ele>
        <time>2015-10-07T10:07:44.000Z</time>
      </trkpt>
      <trkpt lat="43.39325" lon="1.34836">
        <ele>202.9</ele>
        <time>2015-10-07T10:07:51.000Z</time>
      </trkpt>
      <trkpt lat="43.39334" lon="1.34837">
        <ele>203.5</ele>
        <time>2015-10-07T10:07:59.000Z</time>
      </trkpt>
      <trkpt lat="43.39343" lon="1.3484">
        <ele>204.2</ele>
        <time>2015-10-07T10:08:7.000Z</time>
      </trkpt>
      <trkpt lat="43.39353" lon="1.34842">
        <ele>205.2</ele>
        <time>2015-10-07T10:08:20.000Z</time>
      </trkpt>
      <trkpt lat="43.39362" lon="1.34842">
        <ele>206.1</ele>
        <time>2015-10-07T10:08:29.000Z</time>
      </trkpt>
      <trkpt lat="43.39371" lon="1.34843">
        <ele>206.7</ele>
        <time>2015-10-07T10:08:38.000Z</time>
      </trkpt>
      <trkpt lat="43.3938" lon="1.34846">
        <ele>207.3</ele>
        <time>2015-10-07T10:08:47.000Z</time>
      </trkpt>
      <trkpt lat="43.3939" lon="1.34848">
        <ele>207.9</ele>
        <time>2015-10-07T10:08:56.000Z</time>
      </trkpt>
      <trkpt lat="43.39399" lon="1.34848">
        <ele>208.6</ele>
        <time>2015-10-07T10:09:6.000Z</time>
      </trkpt>
      <trkpt lat="43.39409" lon="1.3485">
        <ele>209.2</ele>
        <time>2015-10-07T10:09:15.000Z</time>
      </trkpt>
      <trkpt lat="43.39418" lon="1.34852">
        <ele>209.9</ele>
        <time>2015-10-07T10:09:24.000Z</time>
      </trkpt>
      <trkpt lat="43.39427" lon="1.34852">
        <ele>210.9</ele>
        <time>2015-10-07T10:09:34.000Z</time>
      </trkpt>
      <trkpt lat="43.39437" lon="1.34853">
        <ele>211.8</ele>
        <time>2015-10-07T10:09:45.000Z</time>
      </trkpt>
      <trkpt lat="43.39446" lon="1.34855">
        <ele>212.9</ele>
        <time>2015-10-07T10:09:55.000Z</time>
      </trkpt>
      <trkpt lat="43.39456" lon="1.34856">
        <ele>214.1</ele>
        <time>2015-10-07T10:10:6.000Z</time>
      </trkpt>
      <trkpt lat="43.39465" lon="1.34855">
        <ele>215.3</ele>
        <time>2015-10-07T10:10:18.000Z</time>
      </trkpt>
      <trkpt lat="43.39475" lon="1.34854">
        <ele>216.3</ele>
        <time>2015-10-07T10:10:28.000Z</time>
      </trkpt>
      <trkpt lat="43.39484" lon="1.34851">
        <ele>217.2</ele>
        <time>2015-10-07T10:10:37.000Z</time>
      </trkpt>
      <trkpt lat="43.39493" lon="1.3485">
        <ele>218.5</ele>
        <time>2015-10-07T10:10:48.000Z</time>
      </trkpt>
      <trkpt lat="43.39503" lon="1.34847">
        <ele>220.2</ele>
        <time>2015-10-07T10:11:1.000Z</time>
      </trkpt>
      <trkpt lat="43.39512" lon="1.34845">
        <ele>221.6</ele>
        <time>2015-10-07T10:11:11.000Z</time>
      </trkpt>
      <trkpt lat="43.39521" lon="1.34842">
        <ele>222.8</ele>
        <time>2015-10-07T10:11:21.000Z</time>
      </trkpt>
      <trkpt lat="43.39531" lon="1.34841">
        <ele>224.1</ele>
        <time>2015-10-07T10:11:31.000Z</time>
      </trkpt>
      <trkpt lat="43.3954" lon="1.34842">
        <ele>225.6</ele>
        <time>2015-10-07T10:11:46.000Z</time>
      </trkpt>
      <trkpt lat="43.3954" lon="1.34856">
        <ele>226.3</ele>
        <time>2015-10-07T10:11:57.000Z</time>
      </trkpt>
      <trkpt lat="43.39539" lon="1.34869">
        <ele>226.5</ele>
        <time>2015-10-07T10:12:6.000Z</time>
      </trkpt>
      <trkpt lat="43.39537" lon="1.34881">
        <ele>226.5</ele>
        <time>2015-10-07T10:12:15.000Z</time>
      </trkpt>
      <trkpt lat="43.39535" lon="1.34893">
        <ele>226.4</ele>
        <time>2015-10-07T10:12:25.000Z</time>
      </trkpt>
      <trkpt lat="43.39533" lon="1.34906">
        <ele>226</ele>
        <time>2015-10-07T10:12:35.000Z</time>
      </trkpt>
      <trkpt lat="43.39531" lon="1.34919">
        <ele>225.6</ele>
        <time>2015-10-07T10:12:44.000Z</time>
      </trkpt>
      <trkpt lat="43.39529" lon="1.34931">
        <ele>225.2</ele>
        <time>2015-10-07T10:12:53.000Z</time>
      </trkpt>
      <trkpt lat="43.39528" lon="1.34944">
        <ele>224.4</ele>
        <time>2015-10-07T10:13:4.000Z</time>
      </trkpt>
      <trkpt lat="43.39525" lon="1.34955">
        <ele>224</ele>
        <time>2015-10-07T10:13:14.000Z</time>
      </trkpt>
      <trkpt lat="43.39522" lon="1.34968">
        <ele>223.3</ele>
        <time>2015-10-07T10:13:25.000Z</time>
      </trkpt>
      <trkpt lat="43.39521" lon="1.34981">
        <ele>222.7</ele>
        <time>2015-10-07T10:13:35.000Z</time>
      </trkpt>
      <trkpt lat="43.39524" lon="1.34993">
        <ele>222.1</ele>
        <time>2015-10-07T10:13:43.000Z</time>
      </trkpt>
      <trkpt lat="43.39522" lon="1.35006">
        <ele>221.3</ele>
        <time>2015-10-07T10:13:54.000Z</time>
      </trkpt>
      <trkpt lat="43.39524" lon="1.35019">
        <ele>220.7</ele>
        <time>2015-10-07T10:14:2.000Z</time>
      </trkpt>
      <trkpt lat="43.39527" lon="1.3503">
        <ele>220.1</ele>
        <time>2015-10-07T10:14:9.000Z</time>
      </trkpt>
      <trkpt lat="43.39529" lon="1.35043">
        <ele>219.3</ele>
        <time>2015-10-07T10:14:18.000Z</time>
      </trkpt>
      <trkpt lat="43.39533" lon="1.35056">
        <ele>218.7</ele>
        <time>2015-10-07T10:14:27.000Z</time>
      </trkpt>
      <trkpt lat="43.39532" lon="1.35069">
        <ele>218.1</ele>
        <time>2015-10-07T10:14:35.000Z</time>
      </trkpt>
      <trkpt lat="43.39533" lon="1.35082">
        <ele>217.4</ele>
        <time>2015-10-07T10:14:43.000Z</time>
      </trkpt>
      <trkpt lat="43.39535" lon="1.35094">
        <ele>216.6</ele>
        <time>2015-10-07T10:14:51.000Z</time>
      </trkpt>
      <trkpt lat="43.39538" lon="1.35106">
        <ele>215.5</ele>
        <time>2015-10-07T10:15:2.000Z</time>
      </trkpt>
      <trkpt lat="43.39546" lon="1.35101">
        <ele>214.1</ele>
        <time>2015-10-07T10:15:15.000Z</time>
      </trkpt>
      <trkpt lat="43.39554" lon="1.35095">
        <ele>212.3</ele>
        <time>2015-10-07T10:15:27.000Z</time>
      </trkpt>
      <trkpt lat="43.39563" lon="1.3509">
        <ele>210.4</ele>
        <time>2015-10-07T10:15:38.000Z</time>
      </trkpt>
      <trkpt lat="43.39571" lon="1.35083">
        <ele>208.7</ele>
        <time>2015-10-07T10:15:49.000Z</time>
      </trkpt>
      <trkpt lat="43.39579" lon="1.35077">
        <ele>206.9</ele>
        <time>2015-10-07T10:16:1.000Z</time>
      </trkpt>
      <trkpt lat="43.39588" lon="1.35072">
        <ele>205.4</ele>
        <time>2015-10-07T10:16:12.000Z</time>
      </trkpt>
      <trkpt lat="43.39597" lon="1.35069">
        <ele>204.2</ele>
        <time>2015-10-07T10:16:21.000Z</time>
      </trkpt>
      <trkpt lat="43.39606" lon="1.35064">
        <ele>203.3</ele>
        <time>2015-10-07T10:16:30.000Z</time>
      </trkpt>
      <trkpt lat="43.39615" lon="1.35058">
        <ele>202.4</ele>
        <time>2015-10-07T10:16:40.000Z</time>
      </trkpt>
      <trkpt lat="43.39623" lon="1.35051">
        <ele>201.8</ele>
        <time>2015-10-07T10:16:49.000Z</time>
      </trkpt>
      <trkpt lat="43.39632" lon="1.35047">
        <ele>201.1</ele>
        <time>2015-10-07T10:16:58.000Z</time>
      </trkpt>
      <trkpt lat="43.3964" lon="1.35043">
        <ele>200.6</ele>
        <time>2015-10-07T10:17:6.000Z</time>
      </trkpt>
      <trkpt lat="43.39649" lon="1.35036">
        <ele>200.2</ele>
        <time>2015-10-07T10:17:15.000Z</time>
      </trkpt>
      <trkpt lat="43.39657" lon="1.3503">
        <ele>200</ele>
        <time>2015-10-07T10:17:25.000Z</time>
      </trkpt>
      <trkpt lat="43.39663" lon="1.35021">
        <ele>200.1</ele>
        <time>2015-10-07T10:17:33.000Z</time>
      </trkpt>
      <trkpt lat="43.39671" lon="1.35014">
        <ele>200.5</ele>
        <time>2015-10-07T10:17:42.000Z</time>
      </trkpt>
      <trkpt lat="43.39678" lon="1.35004">
        <ele>201</ele>
        <time>2015-10-07T10:17:51.000Z</time>
      </trkpt>
      <trkpt lat="43.39684" lon="1.34994">
        <ele>201.9</ele>
        <time>2015-10-07T10:18:1.000Z</time>
      </trkpt>
      <trkpt lat="43.39692" lon="1.34987">
        <ele>202.8</ele>
        <time>2015-10-07T10:18:10.000Z</time>
      </trkpt>
      <trkpt lat="43.397" lon="1.3498">
        <ele>203.8</ele>
        <time>2015-10-07T10:18:19.000Z</time>
      </trkpt>
      <trkpt lat="43.39707" lon="1.34971">
        <ele>204.8</ele>
        <time>2015-10-07T10:18:28.000Z</time>
      </trkpt>
      <trkpt lat="43.39709" lon="1.34958">
        <ele>205.9</ele>
        <time>2015-10-07T10:18:39.000Z</time>
      </trkpt>
      <trkpt lat="43.39713" lon="1.34946">
        <ele>207.4</ele>
        <time>2015-10-07T10:18:51.000Z</time>
      </trkpt>
      <trkpt lat="43.39722" lon="1.3494">
        <ele>209.8</ele>
        <time>2015-10-07T10:19:12.000Z</time>
      </trkpt>
      <trkpt lat="43.39729" lon="1.34932">
        <ele>210.9</ele>
        <time>2015-10-07T10:19:23.000Z</time>
      </trkpt>
      <trkpt lat="43.39736" lon="1.34923">
        <ele>211.9</ele>
        <time>2015-10-07T10:19:32.000Z</time>
      </trkpt>
      <trkpt lat="43.39741" lon="1.34913">
        <ele>213.1</ele>
        <time>2015-10-07T10:19:42.000Z</time>
      </trkpt>
      <trkpt lat="43.39748" lon="1.34905">
        <ele>214.5</ele>
        <time>2015-10-07T10:19:53.000Z</time>
      </trkpt>
      <trkpt lat="43.39755" lon="1.34897">
        <ele>215.7</ele>
        <time>2015-10-07T10:20:4.000Z</time>
      </trkpt>
      <trkpt lat="43.39763" lon="1.34892">
        <ele>216.7</ele>
        <time>2015-10-07T10:20:15.000Z</time>
      </trkpt>
      <trkpt lat="43.3977" lon="1.34883">
        <ele>217.8</ele>
        <time>2015-10-07T10:20:25.000Z</time>
      </trkpt>
      <trkpt lat="43.39776" lon="1.34874">
        <ele>219.2</ele>
        <time>2015-10-07T10:20:36.000Z</time>
      </trkpt>
      <trkpt lat="43.39783" lon="1.34866">
        <ele>220.5</ele>
        <time>2015-10-07T10:20:48.000Z</time>
      </trkpt>
      <trkpt lat="43.39791" lon="1.34857">
        <ele>221.8</ele>
        <time>2015-10-07T10:20:59.000Z</time>
      </trkpt>
      <trkpt lat="43.39794" lon="1.34845">
        <ele>222.9</ele>
        <time>2015-10-07T10:21:7.000Z</time>
      </trkpt>
      <trkpt lat="43.398" lon="1.34835">
        <ele>224</ele>
        <time>2015-10-07T10:21:17.000Z</time>
      </trkpt>
      <trkpt lat="43.39804" lon="1.34822">
        <ele>225.2</ele>
        <time>2015-10-07T10:21:27.000Z</time>
      </trkpt>
      <trkpt lat="43.39809" lon="1.34811">
        <ele>226.5</ele>
        <time>2015-10-07T10:21:38.000Z</time>
      </trkpt>
      <trkpt lat="43.39815" lon="1.34801">
        <ele>227.6</ele>
        <time>2015-10-07T10:21:47.000Z</time>
      </trkpt>
      <trkpt lat="43.3982" lon="1.3479">
        <ele>228.6</ele>
        <time>2015-10-07T10:21:57.000Z</time>
      </trkpt>
      <trkpt lat="43.39825" lon="1.3478">
        <ele>229.4</ele>
        <time>2015-10-07T10:22:5.000Z</time>
      </trkpt>
      <trkpt lat="43.3983" lon="1.34769">
        <ele>230.3</ele>
        <time>2015-10-07T10:22:15.000Z</time>
      </trkpt>
      <trkpt lat="43.39837" lon="1.3476">
        <ele>231.3</ele>
        <time>2015-10-07T10:22:26.000Z</time>
      </trkpt>
      <trkpt lat="43.39845" lon="1.34752">
        <ele>232</ele>
        <time>2015-10-07T10:22:32.000Z</time>
      </trkpt>
      <trkpt lat="43.39855" lon="1.34751">
        <ele>232.6</ele>
        <time>2015-10-07T10:22:40.000Z</time>
      </trkpt>
      <trkpt lat="43.39865" lon="1.34747">
        <ele>234.1</ele>
        <time>2015-10-07T10:22:52.000Z</time>
      </trkpt>
      <trkpt lat="43.39872" lon="1.34739">
        <ele>236</ele>
        <time>2015-10-07T10:23:8.000Z</time>
      </trkpt>
      <trkpt lat="43.39877" lon="1.34728">
        <ele>237.4</ele>
        <time>2015-10-07T10:23:20.000Z</time>
      </trkpt>
      <trkpt lat="43.39884" lon="1.34718">
        <ele>238.7</ele>
        <time>2015-10-07T10:23:32.000Z</time>
      </trkpt>
      <trkpt lat="43.39891" lon="1.34709">
        <ele>240.2</ele>
        <time>2015-10-07T10:23:43.000Z</time>
      </trkpt>
      <trkpt lat="43.39897" lon="1.347">
        <ele>241.8</ele>
        <time>2015-10-07T10:23:54.000Z</time>
      </trkpt>
      <trkpt lat="43.39902" lon="1.34689">
        <ele>243.1</ele>
        <time>2015-10-07T10:24:6.000Z</time>
      </trkpt>
      <trkpt lat="43.39909" lon="1.34679">
        <ele>244.4</ele>
        <time>2015-10-07T10:24:19.000Z</time>
      </trkpt>
      <trkpt lat="43.39916" lon="1.3467">
        <ele>245.5</ele>
        <time>2015-10-07T10:24:30.000Z</time>
      </trkpt>
      <trkpt lat="43.39923" lon="1.34657">
        <ele>246.2</ele>
        <time>2015-10-07T10:24:40.000Z</time>
      </trkpt>
      <trkpt lat="43.39931" lon="1.3465">
        <ele>246.9</ele>
        <time>2015-10-07T10:24:48.000Z</time>
      </trkpt>
      <trkpt lat="43.39938" lon="1.34642">
        <ele>247.8</ele>
        <time>2015-10-07T10:24:59.000Z</time>
      </trkpt>
      <trkpt lat="43.39946" lon="1.34635">
        <ele>249.1</ele>
        <time>2015-10-07T10:25:11.000Z</time>
      </trkpt>
      <trkpt lat="43.39954" lon="1.34629">
        <ele>250.3</ele>
        <time>2015-10-07T10:25:25.000Z</time>
      </trkpt>
      <trkpt lat="43.39963" lon="1.34626">
        <ele>251.1</ele>
        <time>2015-10-07T10:25:35.000Z</time>
      </trkpt>
      <trkpt lat="43.39972" lon="1.34623">
        <ele>252.4</ele>
        <time>2015-10-07T10:25:47.000Z</time>
      </trkpt>
      <trkpt lat="43.39982" lon="1.34621">
        <ele>253.9</ele>
        <time>2015-10-07T10:25:58.000Z</time>
      </trkpt>
      <trkpt lat="43.39991" lon="1.34619">
        <ele>255.1</ele>
        <time>2015-10-07T10:26:9.000Z</time>
      </trkpt>
      <trkpt lat="43.39998" lon="1.34626">
        <ele>257.4</ele>
        <time>2015-10-07T10:27:38.000Z</time>
      </trkpt>
      <trkpt lat="43.39997" lon="1.34628">
        <ele>257.4</ele>
        <time>2015-10-07T10:27:40.000Z</time>
      </trkpt>
      <trkpt lat="43.40161" lon="1.34536">
        <ele>281.1</ele>
        <time>2015-10-07T10:37:45.000Z</time>
      </trkpt>
      <trkpt lat="43.4016" lon="1.34549">
        <ele>281.3</ele>
        <time>2015-10-07T10:38:51.000Z</time>
      </trkpt>
      <trkpt lat="43.4016" lon="1.34562">
        <ele>281.7</ele>
        <time>2015-10-07T10:39:1.000Z</time>
      </trkpt>
      <trkpt lat="43.40165" lon="1.34574">
        <ele>282.2</ele>
        <time>2015-10-07T10:39:11.000Z</time>
      </trkpt>
      <trkpt lat="43.40173" lon="1.3458">
        <ele>282.5</ele>
        <time>2015-10-07T10:39:17.000Z</time>
      </trkpt>
      <trkpt lat="43.40178" lon="1.34591">
        <ele>282.8</ele>
        <time>2015-10-07T10:39:26.000Z</time>
      </trkpt>
      <trkpt lat="43.40184" lon="1.34602">
        <ele>283</ele>
        <time>2015-10-07T10:39:34.000Z</time>
      </trkpt>
      <trkpt lat="43.4019" lon="1.34613">
        <ele>283.2</ele>
        <time>2015-10-07T10:39:43.000Z</time>
      </trkpt>
      <trkpt lat="43.40199" lon="1.34618">
        <ele>283.3</ele>
        <time>2015-10-07T10:39:50.000Z</time>
      </trkpt>
      <trkpt lat="43.40207" lon="1.34621">
        <ele>283.4</ele>
        <time>2015-10-07T10:39:56.000Z</time>
      </trkpt>
      <trkpt lat="43.40217" lon="1.34624">
        <ele>283.5</ele>
        <time>2015-10-07T10:40:3.000Z</time>
      </trkpt>
      <trkpt lat="43.40226" lon="1.34626">
        <ele>283.6</ele>
        <time>2015-10-07T10:40:10.000Z</time>
      </trkpt>
      <trkpt lat="43.40236" lon="1.34628">
        <ele>283.8</ele>
        <time>2015-10-07T10:40:19.000Z</time>
      </trkpt>
      <trkpt lat="43.40246" lon="1.3463">
        <ele>284</ele>
        <time>2015-10-07T10:40:28.000Z</time>
      </trkpt>
      <trkpt lat="43.40255" lon="1.3463">
        <ele>284.1</ele>
        <time>2015-10-07T10:40:35.000Z</time>
      </trkpt>
      <trkpt lat="43.40264" lon="1.34634">
        <ele>284.2</ele>
        <time>2015-10-07T10:40:43.000Z</time>
      </trkpt>
      <trkpt lat="43.40272" lon="1.34638">
        <ele>284.4</ele>
        <time>2015-10-07T10:40:52.000Z</time>
      </trkpt>
      <trkpt lat="43.40282" lon="1.34641">
        <ele>284.4</ele>
        <time>2015-10-07T10:40:59.000Z</time>
      </trkpt>
      <trkpt lat="43.40292" lon="1.34645">
        <ele>284.5</ele>
        <time>2015-10-07T10:41:7.000Z</time>
      </trkpt>
      <trkpt lat="43.40301" lon="1.34646">
        <ele>284.7</ele>
        <time>2015-10-07T10:41:18.000Z</time>
      </trkpt>
      <trkpt lat="43.40311" lon="1.34647">
        <ele>284.9</ele>
        <time>2015-10-07T10:41:26.000Z</time>
      </trkpt>
      <trkpt lat="43.4032" lon="1.34645">
        <ele>285.1</ele>
        <time>2015-10-07T10:41:35.000Z</time>
      </trkpt>
      <trkpt lat="43.40329" lon="1.34648">
        <ele>285.2</ele>
        <time>2015-10-07T10:41:42.000Z</time>
      </trkpt>
      <trkpt lat="43.40339" lon="1.3465">
        <ele>285.5</ele>
        <time>2015-10-07T10:41:58.000Z</time>
      </trkpt>
      <trkpt lat="43.40349" lon="1.34652">
        <ele>285.5</ele>
        <time>2015-10-07T10:43:40.000Z</time>
      </trkpt>
      <trkpt lat="43.40346" lon="1.34664">
        <ele>286.5</ele>
        <time>2015-10-07T10:44:43.000Z</time>
      </trkpt>
      <trkpt lat="43.40337" lon="1.34657">
        <ele>295</ele>
        <time>2015-10-07T11:15:55.000Z</time>
      </trkpt>
      <trkpt lat="43.40339" lon="1.3467">
        <ele>294.5</ele>
        <time>2015-10-07T11:17:52.000Z</time>
      </trkpt>
      <trkpt lat="43.40336" lon="1.34682">
        <ele>294.4</ele>
        <time>2015-10-07T11:18:1.000Z</time>
      </trkpt>
      <trkpt lat="43.40333" lon="1.34694">
        <ele>294.3</ele>
        <time>2015-10-07T11:18:11.000Z</time>
      </trkpt>
      <trkpt lat="43.4033" lon="1.34706">
        <ele>294.2</ele>
        <time>2015-10-07T11:18:20.000Z</time>
      </trkpt>
      <trkpt lat="43.40329" lon="1.34719">
        <ele>293.9</ele>
        <time>2015-10-07T11:18:34.000Z</time>
      </trkpt>
      <trkpt lat="43.40327" lon="1.34732">
        <ele>293.5</ele>
        <time>2015-10-07T11:18:48.000Z</time>
      </trkpt>
      <trkpt lat="43.40324" lon="1.34743">
        <ele>293.2</ele>
        <time>2015-10-07T11:19:4.000Z</time>
      </trkpt>
      <trkpt lat="43.40322" lon="1.34756">
        <ele>292.7</ele>
        <time>2015-10-07T11:19:16.000Z</time>
      </trkpt>
      <trkpt lat="43.40319" lon="1.34768">
        <ele>292.4</ele>
        <time>2015-10-07T11:19:26.000Z</time>
      </trkpt>
      <trkpt lat="43.40318" lon="1.34781">
        <ele>292</ele>
        <time>2015-10-07T11:19:38.000Z</time>
      </trkpt>
      <trkpt lat="43.40315" lon="1.34794">
        <ele>291.8</ele>
        <time>2015-10-07T11:19:50.000Z</time>
      </trkpt>
      <trkpt lat="43.40312" lon="1.34806">
        <ele>291.6</ele>
        <time>2015-10-07T11:20:2.000Z</time>
      </trkpt>
      <trkpt lat="43.40309" lon="1.34818">
        <ele>291.4</ele>
        <time>2015-10-07T11:20:11.000Z</time>
      </trkpt>
      <trkpt lat="43.40309" lon="1.34831">
        <ele>291.1</ele>
        <time>2015-10-07T11:20:22.000Z</time>
      </trkpt>
      <trkpt lat="43.40309" lon="1.34844">
        <ele>290.9</ele>
        <time>2015-10-07T11:20:33.000Z</time>
      </trkpt>
      <trkpt lat="43.40309" lon="1.34857">
        <ele>290.7</ele>
        <time>2015-10-07T11:20:44.000Z</time>
      </trkpt>
      <trkpt lat="43.4031" lon="1.3487">
        <ele>290.3</ele>
        <time>2015-10-07T11:20:53.000Z</time>
      </trkpt>
      <trkpt lat="43.40312" lon="1.34883">
        <ele>289.9</ele>
        <time>2015-10-07T11:21:3.000Z</time>
      </trkpt>
      <trkpt lat="43.40313" lon="1.34896">
        <ele>289.6</ele>
        <time>2015-10-07T11:21:13.000Z</time>
      </trkpt>
      <trkpt lat="43.40314" lon="1.34909">
        <ele>289.1</ele>
        <time>2015-10-07T11:21:22.000Z</time>
      </trkpt>
      <trkpt lat="43.40315" lon="1.34923">
        <ele>288.6</ele>
        <time>2015-10-07T11:21:32.000Z</time>
      </trkpt>
      <trkpt lat="43.40316" lon="1.34936">
        <ele>287.8</ele>
        <time>2015-10-07T11:21:42.000Z</time>
      </trkpt>
      <trkpt lat="43.40317" lon="1.34948">
        <ele>287</ele>
        <time>2015-10-07T11:21:51.000Z</time>
      </trkpt>
      <trkpt lat="43.40318" lon="1.34961">
        <ele>286.3</ele>
        <time>2015-10-07T11:22:1.000Z</time>
      </trkpt>
      <trkpt lat="43.40319" lon="1.34974">
        <ele>285.6</ele>
        <time>2015-10-07T11:22:11.000Z</time>
      </trkpt>
      <trkpt lat="43.40319" lon="1.34988">
        <ele>284.7</ele>
        <time>2015-10-07T11:22:22.000Z</time>
      </trkpt>
      <trkpt lat="43.40322" lon="1.35">
        <ele>284.1</ele>
        <time>2015-10-07T11:22:32.000Z</time>
      </trkpt>
      <trkpt lat="43.40324" lon="1.35013">
        <ele>283.3</ele>
        <time>2015-10-07T11:22:41.000Z</time>
      </trkpt>
      <trkpt lat="43.40324" lon="1.35026">
        <ele>282.3</ele>
        <time>2015-10-07T11:22:50.000Z</time>
      </trkpt>
      <trkpt lat="43.40326" lon="1.35038">
        <ele>281</ele>
        <time>2015-10-07T11:23:0.000Z</time>
      </trkpt>
      <trkpt lat="43.40329" lon="1.3505">
        <ele>279.8</ele>
        <time>2015-10-07T11:23:13.000Z</time>
      </trkpt>
      <trkpt lat="43.40334" lon="1.35061">
        <ele>278.5</ele>
        <time>2015-10-07T11:23:27.000Z</time>
      </trkpt>
      <trkpt lat="43.40338" lon="1.35073">
        <ele>277.5</ele>
        <time>2015-10-07T11:23:37.000Z</time>
      </trkpt>
      <trkpt lat="43.40344" lon="1.35083">
        <ele>276.6</ele>
        <time>2015-10-07T11:23:46.000Z</time>
      </trkpt>
      <trkpt lat="43.4035" lon="1.35093">
        <ele>275.7</ele>
        <time>2015-10-07T11:23:54.000Z</time>
      </trkpt>
      <trkpt lat="43.40356" lon="1.35102">
        <ele>274.9</ele>
        <time>2015-10-07T11:24:2.000Z</time>
      </trkpt>
      <trkpt lat="43.40362" lon="1.35112">
        <ele>274.1</ele>
        <time>2015-10-07T11:24:11.000Z</time>
      </trkpt>
      <trkpt lat="43.40367" lon="1.35122">
        <ele>273.4</ele>
        <time>2015-10-07T11:24:20.000Z</time>
      </trkpt>
      <trkpt lat="43.40372" lon="1.35134">
        <ele>272.7</ele>
        <time>2015-10-07T11:24:30.000Z</time>
      </trkpt>
      <trkpt lat="43.40378" lon="1.35143">
        <ele>271.9</ele>
        <time>2015-10-07T11:24:39.000Z</time>
      </trkpt>
      <trkpt lat="43.40384" lon="1.35153">
        <ele>270.6</ele>
        <time>2015-10-07T11:24:50.000Z</time>
      </trkpt>
      <trkpt lat="43.40389" lon="1.35165">
        <ele>269.6</ele>
        <time>2015-10-07T11:24:59.000Z</time>
      </trkpt>
      <trkpt lat="43.40394" lon="1.35177">
        <ele>268.3</ele>
        <time>2015-10-07T11:25:8.000Z</time>
      </trkpt>
      <trkpt lat="43.40402" lon="1.35187">
        <ele>267.4</ele>
        <time>2015-10-07T11:25:15.000Z</time>
      </trkpt>
      <trkpt lat="43.40408" lon="1.35196">
        <ele>266.5</ele>
        <time>2015-10-07T11:25:23.000Z</time>
      </trkpt>
      <trkpt lat="43.40411" lon="1.35208">
        <ele>265.3</ele>
        <time>2015-10-07T11:25:33.000Z</time>
      </trkpt>
      <trkpt lat="43.40408" lon="1.35221">
        <ele>264.3</ele>
        <time>2015-10-07T11:25:42.000Z</time>
      </trkpt>
      <trkpt lat="43.40409" lon="1.35235">
        <ele>262.9</ele>
        <time>2015-10-07T11:25:51.000Z</time>
      </trkpt>
      <trkpt lat="43.40407" lon="1.35249">
        <ele>261.8</ele>
        <time>2015-10-07T11:25:58.000Z</time>
      </trkpt>
      <trkpt lat="43.40409" lon="1.35262">
        <ele>259.9</ele>
        <time>2015-10-07T11:26:8.000Z</time>
      </trkpt>
      <trkpt lat="43.4041" lon="1.35275">
        <ele>258.3</ele>
        <time>2015-10-07T11:26:17.000Z</time>
      </trkpt>
      <trkpt lat="43.40411" lon="1.35289">
        <ele>256.8</ele>
        <time>2015-10-07T11:26:26.000Z</time>
      </trkpt>
      <trkpt lat="43.40412" lon="1.35301">
        <ele>255</ele>
        <time>2015-10-07T11:26:35.000Z</time>
      </trkpt>
      <trkpt lat="43.40415" lon="1.35314">
        <ele>253.5</ele>
        <time>2015-10-07T11:26:45.000Z</time>
      </trkpt>
      <trkpt lat="43.40414" lon="1.35327">
        <ele>252.3</ele>
        <time>2015-10-07T11:26:54.000Z</time>
      </trkpt>
      <trkpt lat="43.40415" lon="1.3534">
        <ele>251.6</ele>
        <time>2015-10-07T11:27:2.000Z</time>
      </trkpt>
      <trkpt lat="43.40416" lon="1.35353">
        <ele>250.9</ele>
        <time>2015-10-07T11:27:12.000Z</time>
      </trkpt>
      <trkpt lat="43.40416" lon="1.35367">
        <ele>250.1</ele>
        <time>2015-10-07T11:27:22.000Z</time>
      </trkpt>
      <trkpt lat="43.40417" lon="1.35379">
        <ele>249.2</ele>
        <time>2015-10-07T11:27:32.000Z</time>
      </trkpt>
      <trkpt lat="43.40418" lon="1.35392">
        <ele>248.5</ele>
        <time>2015-10-07T11:27:41.000Z</time>
      </trkpt>
      <trkpt lat="43.40417" lon="1.35405">
        <ele>248</ele>
        <time>2015-10-07T11:27:50.000Z</time>
      </trkpt>
      <trkpt lat="43.40412" lon="1.35416">
        <ele>247.5</ele>
        <time>2015-10-07T11:27:59.000Z</time>
      </trkpt>
      <trkpt lat="43.40409" lon="1.35429">
        <ele>246.9</ele>
        <time>2015-10-07T11:28:8.000Z</time>
      </trkpt>
      <trkpt lat="43.40406" lon="1.35441">
        <ele>246.5</ele>
        <time>2015-10-07T11:28:15.000Z</time>
      </trkpt>
      <trkpt lat="43.40403" lon="1.35453">
        <ele>246.1</ele>
        <time>2015-10-07T11:28:23.000Z</time>
      </trkpt>
      <trkpt lat="43.40402" lon="1.35467">
        <ele>245.4</ele>
        <time>2015-10-07T11:28:32.000Z</time>
      </trkpt>
      <trkpt lat="43.404" lon="1.35481">
        <ele>243.8</ele>
        <time>2015-10-07T11:28:43.000Z</time>
      </trkpt>
      <trkpt lat="43.40399" lon="1.35494">
        <ele>242.3</ele>
        <time>2015-10-07T11:28:54.000Z</time>
      </trkpt>
      <trkpt lat="43.40397" lon="1.35507">
        <ele>241.4</ele>
        <time>2015-10-07T11:29:1.000Z</time>
      </trkpt>
      <trkpt lat="43.40397" lon="1.3552">
        <ele>239.9</ele>
        <time>2015-10-07T11:29:10.000Z</time>
      </trkpt>
      <trkpt lat="43.40398" lon="1.35533">
        <ele>238</ele>
        <time>2015-10-07T11:29:21.000Z</time>
      </trkpt>
      <trkpt lat="43.40399" lon="1.35545">
        <ele>236.8</ele>
        <time>2015-10-07T11:29:30.000Z</time>
      </trkpt>
      <trkpt lat="43.40402" lon="1.35557">
        <ele>235.7</ele>
        <time>2015-10-07T11:29:38.000Z</time>
      </trkpt>
      <trkpt lat="43.40403" lon="1.35571">
        <ele>234.7</ele>
        <time>2015-10-07T11:29:47.000Z</time>
      </trkpt>
      <trkpt lat="43.40402" lon="1.35584">
        <ele>233.9</ele>
        <time>2015-10-07T11:29:54.000Z</time>
      </trkpt>
      <trkpt lat="43.40402" lon="1.35597">
        <ele>232.6</ele>
        <time>2015-10-07T11:30:3.000Z</time>
      </trkpt>
      <trkpt lat="43.40401" lon="1.3561">
        <ele>231.8</ele>
        <time>2015-10-07T11:30:11.000Z</time>
      </trkpt>
      <trkpt lat="43.404" lon="1.35623">
        <ele>230.9</ele>
        <time>2015-10-07T11:30:20.000Z</time>
      </trkpt>
      <trkpt lat="43.40409" lon="1.3563">
        <ele>229.4</ele>
        <time>2015-10-07T11:30:31.000Z</time>
      </trkpt>
      <trkpt lat="43.40418" lon="1.3563">
        <ele>228.6</ele>
        <time>2015-10-07T11:30:41.000Z</time>
      </trkpt>
      <trkpt lat="43.40426" lon="1.35636">
        <ele>228</ele>
        <time>2015-10-07T11:30:49.000Z</time>
      </trkpt>
      <trkpt lat="43.40431" lon="1.35647">
        <ele>227.4</ele>
        <time>2015-10-07T11:30:57.000Z</time>
      </trkpt>
      <trkpt lat="43.40431" lon="1.3566">
        <ele>226.8</ele>
        <time>2015-10-07T11:31:5.000Z</time>
      </trkpt>
      <trkpt lat="43.40431" lon="1.35674">
        <ele>226.2</ele>
        <time>2015-10-07T11:31:13.000Z</time>
      </trkpt>
      <trkpt lat="43.4043" lon="1.35687">
        <ele>225.7</ele>
        <time>2015-10-07T11:31:21.000Z</time>
      </trkpt>
      <trkpt lat="43.40429" lon="1.35699">
        <ele>225.1</ele>
        <time>2015-10-07T11:31:29.000Z</time>
      </trkpt>
      <trkpt lat="43.4043" lon="1.35712">
        <ele>224.6</ele>
        <time>2015-10-07T11:31:40.000Z</time>
      </trkpt>
      <trkpt lat="43.40428" lon="1.35725">
        <ele>224.2</ele>
        <time>2015-10-07T11:31:47.000Z</time>
      </trkpt>
      <trkpt lat="43.40436" lon="1.35733">
        <ele>223.3</ele>
        <time>2015-10-07T11:32:0.000Z</time>
      </trkpt>
      <trkpt lat="43.40446" lon="1.35733">
        <ele>222.3</ele>
        <time>2015-10-07T11:32:11.000Z</time>
      </trkpt>
      <trkpt lat="43.40455" lon="1.35731">
        <ele>221.8</ele>
        <time>2015-10-07T11:32:21.000Z</time>
      </trkpt>
      <trkpt lat="43.40464" lon="1.35733">
        <ele>221.5</ele>
        <time>2015-10-07T11:32:30.000Z</time>
      </trkpt>
      <trkpt lat="43.40475" lon="1.3573">
        <ele>221.2</ele>
        <time>2015-10-07T11:32:38.000Z</time>
      </trkpt>
      <trkpt lat="43.40485" lon="1.35728">
        <ele>221.3</ele>
        <time>2015-10-07T11:32:45.000Z</time>
      </trkpt>
      <trkpt lat="43.40494" lon="1.35728">
        <ele>221.4</ele>
        <time>2015-10-07T11:32:54.000Z</time>
      </trkpt>
      <trkpt lat="43.40503" lon="1.35726">
        <ele>221.2</ele>
        <time>2015-10-07T11:33:4.000Z</time>
      </trkpt>
      <trkpt lat="43.40512" lon="1.35728">
        <ele>221</ele>
        <time>2015-10-07T11:33:16.000Z</time>
      </trkpt>
      <trkpt lat="43.40522" lon="1.35727">
        <ele>221</ele>
        <time>2015-10-07T11:33:26.000Z</time>
      </trkpt>
      <trkpt lat="43.40531" lon="1.35725">
        <ele>220.9</ele>
        <time>2015-10-07T11:33:36.000Z</time>
      </trkpt>
      <trkpt lat="43.40542" lon="1.35724">
        <ele>220.7</ele>
        <time>2015-10-07T11:33:43.000Z</time>
      </trkpt>
      <trkpt lat="43.40552" lon="1.35722">
        <ele>220.6</ele>
        <time>2015-10-07T11:33:49.000Z</time>
      </trkpt>
      <trkpt lat="43.40562" lon="1.35719">
        <ele>220.6</ele>
        <time>2015-10-07T11:33:55.000Z</time>
      </trkpt>
      <trkpt lat="43.40571" lon="1.35715">
        <ele>220.6</ele>
        <time>2015-10-07T11:34:2.000Z</time>
      </trkpt>
      <trkpt lat="43.40581" lon="1.35712">
        <ele>220.5</ele>
        <time>2015-10-07T11:34:10.000Z</time>
      </trkpt>
      <trkpt lat="43.4059" lon="1.35708">
        <ele>220.5</ele>
        <time>2015-10-07T11:34:19.000Z</time>
      </trkpt>
      <trkpt lat="43.406" lon="1.35704">
        <ele>220.4</ele>
        <time>2015-10-07T11:34:26.000Z</time>
      </trkpt>
      <trkpt lat="43.40609" lon="1.35701">
        <ele>220.4</ele>
        <time>2015-10-07T11:34:34.000Z</time>
      </trkpt>
      <trkpt lat="43.40618" lon="1.35697">
        <ele>220.3</ele>
        <time>2015-10-07T11:34:42.000Z</time>
      </trkpt>
      <trkpt lat="43.40627" lon="1.35693">
        <ele>220.1</ele>
        <time>2015-10-07T11:34:50.000Z</time>
      </trkpt>
      <trkpt lat="43.40636" lon="1.35689">
        <ele>219.9</ele>
        <time>2015-10-07T11:34:59.000Z</time>
      </trkpt>
      <trkpt lat="43.40644" lon="1.35684">
        <ele>219.5</ele>
        <time>2015-10-07T11:35:8.000Z</time>
      </trkpt>
      <trkpt lat="43.40653" lon="1.35679">
        <ele>219.1</ele>
        <time>2015-10-07T11:35:18.000Z</time>
      </trkpt>
      <trkpt lat="43.40662" lon="1.35675">
        <ele>218.9</ele>
        <time>2015-10-07T11:35:26.000Z</time>
      </trkpt>
      <trkpt lat="43.40672" lon="1.35672">
        <ele>218.6</ele>
        <time>2015-10-07T11:35:34.000Z</time>
      </trkpt>
      <trkpt lat="43.4068" lon="1.35666">
        <ele>218.4</ele>
        <time>2015-10-07T11:35:42.000Z</time>
      </trkpt>
      <trkpt lat="43.4069" lon="1.35663">
        <ele>218.2</ele>
        <time>2015-10-07T11:35:50.000Z</time>
      </trkpt>
      <trkpt lat="43.40699" lon="1.35658">
        <ele>218</ele>
        <time>2015-10-07T11:35:58.000Z</time>
      </trkpt>
      <trkpt lat="43.40708" lon="1.35655">
        <ele>217.9</ele>
        <time>2015-10-07T11:36:6.000Z</time>
      </trkpt>
      <trkpt lat="43.40717" lon="1.35652">
        <ele>217.8</ele>
        <time>2015-10-07T11:36:15.000Z</time>
      </trkpt>
      <trkpt lat="43.40727" lon="1.35648">
        <ele>217.7</ele>
        <time>2015-10-07T11:36:24.000Z</time>
      </trkpt>
      <trkpt lat="43.40736" lon="1.35645">
        <ele>217.7</ele>
        <time>2015-10-07T11:36:31.000Z</time>
      </trkpt>
      <trkpt lat="43.40746" lon="1.35641">
        <ele>217.6</ele>
        <time>2015-10-07T11:36:40.000Z</time>
      </trkpt>
      <trkpt lat="43.40755" lon="1.35639">
        <ele>217.5</ele>
        <time>2015-10-07T11:36:48.000Z</time>
      </trkpt>
      <trkpt lat="43.40764" lon="1.35636">
        <ele>217.4</ele>
        <time>2015-10-07T11:36:55.000Z</time>
      </trkpt>
      <trkpt lat="43.40773" lon="1.35633">
        <ele>217.4</ele>
        <time>2015-10-07T11:37:3.000Z</time>
      </trkpt>
      <trkpt lat="43.40782" lon="1.3563">
        <ele>217.5</ele>
        <time>2015-10-07T11:37:11.000Z</time>
      </trkpt>
      <trkpt lat="43.40791" lon="1.3563">
        <ele>217.5</ele>
        <time>2015-10-07T11:37:19.000Z</time>
      </trkpt>
      <trkpt lat="43.408" lon="1.3563">
        <ele>217.5</ele>
        <time>2015-10-07T11:37:27.000Z</time>
      </trkpt>
      <trkpt lat="43.40809" lon="1.35631">
        <ele>217.5</ele>
        <time>2015-10-07T11:37:35.000Z</time>
      </trkpt>
      <trkpt lat="43.40819" lon="1.35632">
        <ele>217.4</ele>
        <time>2015-10-07T11:37:43.000Z</time>
      </trkpt>
      <trkpt lat="43.40828" lon="1.35634">
        <ele>217.6</ele>
        <time>2015-10-07T11:37:52.000Z</time>
      </trkpt>
      <trkpt lat="43.40837" lon="1.35636">
        <ele>217.8</ele>
        <time>2015-10-07T11:38:0.000Z</time>
      </trkpt>
      <trkpt lat="43.40846" lon="1.35638">
        <ele>218</ele>
        <time>2015-10-07T11:38:8.000Z</time>
      </trkpt>
      <trkpt lat="43.40856" lon="1.35641">
        <ele>218.1</ele>
        <time>2015-10-07T11:38:17.000Z</time>
      </trkpt>
      <trkpt lat="43.40867" lon="1.35642">
        <ele>218.1</ele>
        <time>2015-10-07T11:38:25.000Z</time>
      </trkpt>
      <trkpt lat="43.40875" lon="1.35644">
        <ele>218</ele>
        <time>2015-10-07T11:38:33.000Z</time>
      </trkpt>
      <trkpt lat="43.40885" lon="1.35647">
        <ele>217.8</ele>
        <time>2015-10-07T11:38:42.000Z</time>
      </trkpt>
      <trkpt lat="43.40895" lon="1.3565">
        <ele>217.4</ele>
        <time>2015-10-07T11:38:51.000Z</time>
      </trkpt>
      <trkpt lat="43.40904" lon="1.35652">
        <ele>216.9</ele>
        <time>2015-10-07T11:38:59.000Z</time>
      </trkpt>
      <trkpt lat="43.40913" lon="1.35654">
        <ele>216.2</ele>
        <time>2015-10-07T11:39:7.000Z</time>
      </trkpt>
      <trkpt lat="43.40923" lon="1.35656">
        <ele>215.5</ele>
        <time>2015-10-07T11:39:15.000Z</time>
      </trkpt>
      <trkpt lat="43.40932" lon="1.35657">
        <ele>214.8</ele>
        <time>2015-10-07T11:39:22.000Z</time>
      </trkpt>
      <trkpt lat="43.40942" lon="1.35658">
        <ele>213.8</ele>
        <time>2015-10-07T11:39:30.000Z</time>
      </trkpt>
      <trkpt lat="43.40952" lon="1.3566">
        <ele>212.8</ele>
        <time>2015-10-07T11:39:38.000Z</time>
      </trkpt>
      <trkpt lat="43.40962" lon="1.35662">
        <ele>211.9</ele>
        <time>2015-10-07T11:39:46.000Z</time>
      </trkpt>
      <trkpt lat="43.40972" lon="1.35663">
        <ele>211</ele>
        <time>2015-10-07T11:39:54.000Z</time>
      </trkpt>
      <trkpt lat="43.40981" lon="1.35662">
        <ele>210.2</ele>
        <time>2015-10-07T11:40:1.000Z</time>
      </trkpt>
      <trkpt lat="43.4099" lon="1.35661">
        <ele>209.6</ele>
        <time>2015-10-07T11:40:8.000Z</time>
      </trkpt>
      <trkpt lat="43.40999" lon="1.3566">
        <ele>209.2</ele>
        <time>2015-10-07T11:40:15.000Z</time>
      </trkpt>
      <trkpt lat="43.41009" lon="1.35658">
        <ele>208.9</ele>
        <time>2015-10-07T11:40:23.000Z</time>
      </trkpt>
      <trkpt lat="43.41019" lon="1.35657">
        <ele>208.7</ele>
        <time>2015-10-07T11:40:30.000Z</time>
      </trkpt>
      <trkpt lat="43.41028" lon="1.35655">
        <ele>208.8</ele>
        <time>2015-10-07T11:40:38.000Z</time>
      </trkpt>
      <trkpt lat="43.41038" lon="1.3565">
        <ele>209.1</ele>
        <time>2015-10-07T11:40:46.000Z</time>
      </trkpt>
      <trkpt lat="43.41042" lon="1.35638">
        <ele>209.4</ele>
        <time>2015-10-07T11:40:53.000Z</time>
      </trkpt>
      <trkpt lat="43.4104" lon="1.35625">
        <ele>209.7</ele>
        <time>2015-10-07T11:41:1.000Z</time>
      </trkpt>
      <trkpt lat="43.41038" lon="1.35613">
        <ele>209.9</ele>
        <time>2015-10-07T11:41:9.000Z</time>
      </trkpt>
      <trkpt lat="43.41036" lon="1.356">
        <ele>210.1</ele>
        <time>2015-10-07T11:41:18.000Z</time>
      </trkpt>
      <trkpt lat="43.41034" lon="1.35587">
        <ele>210.1</ele>
        <time>2015-10-07T11:41:27.000Z</time>
      </trkpt>
      <trkpt lat="43.41034" lon="1.35574">
        <ele>210.1</ele>
        <time>2015-10-07T11:41:35.000Z</time>
      </trkpt>
      <trkpt lat="43.41033" lon="1.35561">
        <ele>210.3</ele>
        <time>2015-10-07T11:41:45.000Z</time>
      </trkpt>
      <trkpt lat="43.41032" lon="1.35548">
        <ele>210.9</ele>
        <time>2015-10-07T11:41:55.000Z</time>
      </trkpt>
      <trkpt lat="43.41032" lon="1.35535">
        <ele>211.4</ele>
        <time>2015-10-07T11:42:5.000Z</time>
      </trkpt>
      <trkpt lat="43.41029" lon="1.35523">
        <ele>212.2</ele>
        <time>2015-10-07T11:42:18.000Z</time>
      </trkpt>
      <trkpt lat="43.41027" lon="1.35511">
        <ele>212.8</ele>
        <time>2015-10-07T11:42:27.000Z</time>
      </trkpt>
      <trkpt lat="43.41025" lon="1.35498">
        <ele>213.5</ele>
        <time>2015-10-07T11:42:37.000Z</time>
      </trkpt>
      <trkpt lat="43.41023" lon="1.35486">
        <ele>213.9</ele>
        <time>2015-10-07T11:42:45.000Z</time>
      </trkpt>
      <trkpt lat="43.41021" lon="1.35474">
        <ele>214.1</ele>
        <time>2015-10-07T11:42:53.000Z</time>
      </trkpt>
      <trkpt lat="43.4102" lon="1.3546">
        <ele>214.4</ele>
        <time>2015-10-07T11:43:2.000Z</time>
      </trkpt>
      <trkpt lat="43.41019" lon="1.35447">
        <ele>215.1</ele>
        <time>2015-10-07T11:43:11.000Z</time>
      </trkpt>
      <trkpt lat="43.41017" lon="1.35434">
        <ele>216</ele>
        <time>2015-10-07T11:43:21.000Z</time>
      </trkpt>
      <trkpt lat="43.41016" lon="1.35421">
        <ele>216.9</ele>
        <time>2015-10-07T11:43:31.000Z</time>
      </trkpt>
      <trkpt lat="43.41015" lon="1.35408">
        <ele>217.6</ele>
        <time>2015-10-07T11:43:41.000Z</time>
      </trkpt>
      <trkpt lat="43.41015" lon="1.35394">
        <ele>218.4</ele>
        <time>2015-10-07T11:43:51.000Z</time>
      </trkpt>
      <trkpt lat="43.41014" lon="1.35382">
        <ele>219.1</ele>
        <time>2015-10-07T11:44:2.000Z</time>
      </trkpt>
      <trkpt lat="43.41014" lon="1.35369">
        <ele>220</ele>
        <time>2015-10-07T11:44:12.000Z</time>
      </trkpt>
      <trkpt lat="43.41014" lon="1.35356">
        <ele>221.1</ele>
        <time>2015-10-07T11:44:23.000Z</time>
      </trkpt>
      <trkpt lat="43.41014" lon="1.35343">
        <ele>222.3</ele>
        <time>2015-10-07T11:44:32.000Z</time>
      </trkpt>
      <trkpt lat="43.41014" lon="1.3533">
        <ele>224</ele>
        <time>2015-10-07T11:44:43.000Z</time>
      </trkpt>
      <trkpt lat="43.41016" lon="1.35318">
        <ele>225.5</ele>
        <time>2015-10-07T11:44:52.000Z</time>
      </trkpt>
      <trkpt lat="43.4102" lon="1.353">
        <ele>228.3</ele>
        <time>2015-10-07T11:45:15.000Z</time>
      </trkpt>
      <trkpt lat="43.4102" lon="1.35287">
        <ele>229.1</ele>
        <time>2015-10-07T11:45:22.000Z</time>
      </trkpt>
      <trkpt lat="43.41013" lon="1.35271">
        <ele>229.8</ele>
        <time>2015-10-07T11:45:28.000Z</time>
      </trkpt>
      <trkpt lat="43.41009" lon="1.35259">
        <ele>230.7</ele>
        <time>2015-10-07T11:45:36.000Z</time>
      </trkpt>
      <trkpt lat="43.41004" lon="1.35226">
        <ele>233</ele>
        <time>2015-10-07T11:46:2.000Z</time>
      </trkpt>
      <trkpt lat="43.41001" lon="1.35213">
        <ele>234.4</ele>
        <time>2015-10-07T11:46:10.000Z</time>
      </trkpt>
      <trkpt lat="43.40998" lon="1.35201">
        <ele>235.2</ele>
        <time>2015-10-07T11:46:18.000Z</time>
      </trkpt>
      <trkpt lat="43.40995" lon="1.35188">
        <ele>236.3</ele>
        <time>2015-10-07T11:46:33.000Z</time>
      </trkpt>
      <trkpt lat="43.40991" lon="1.35176">
        <ele>236.9</ele>
        <time>2015-10-07T11:46:40.000Z</time>
      </trkpt>
      <trkpt lat="43.40987" lon="1.35165">
        <ele>237.3</ele>
        <time>2015-10-07T11:46:47.000Z</time>
      </trkpt>
      <trkpt lat="43.40982" lon="1.35154">
        <ele>237.7</ele>
        <time>2015-10-07T11:46:55.000Z</time>
      </trkpt>
      <trkpt lat="43.40983" lon="1.35141">
        <ele>237.9</ele>
        <time>2015-10-07T11:47:4.000Z</time>
      </trkpt>
      <trkpt lat="43.40986" lon="1.35129">
        <ele>238.7</ele>
        <time>2015-10-07T11:47:21.000Z</time>
      </trkpt>
      <trkpt lat="43.40994" lon="1.35123">
        <ele>240</ele>
        <time>2015-10-07T11:47:33.000Z</time>
      </trkpt>
      <trkpt lat="43.41011" lon="1.35109">
        <ele>243</ele>
        <time>2015-10-07T11:47:54.000Z</time>
      </trkpt>
      <trkpt lat="43.41019" lon="1.35102">
        <ele>244.6</ele>
        <time>2015-10-07T11:48:3.000Z</time>
      </trkpt>
      <trkpt lat="43.41027" lon="1.35094">
        <ele>245.5</ele>
        <time>2015-10-07T11:48:11.000Z</time>
      </trkpt>
      <trkpt lat="43.41036" lon="1.3509">
        <ele>246.4</ele>
        <time>2015-10-07T11:48:17.000Z</time>
      </trkpt>
      <trkpt lat="43.41041" lon="1.3508">
        <ele>247.9</ele>
        <time>2015-10-07T11:48:29.000Z</time>
      </trkpt>
      <trkpt lat="43.41042" lon="1.35067">
        <ele>248.8</ele>
        <time>2015-10-07T11:48:37.000Z</time>
      </trkpt>
      <trkpt lat="43.41046" lon="1.35054">
        <ele>249.6</ele>
        <time>2015-10-07T11:48:45.000Z</time>
      </trkpt>
      <trkpt lat="43.4105" lon="1.35042">
        <ele>250.3</ele>
        <time>2015-10-07T11:48:53.000Z</time>
      </trkpt>
      <trkpt lat="43.41053" lon="1.3503">
        <ele>251.2</ele>
        <time>2015-10-07T11:49:1.000Z</time>
      </trkpt>
      <trkpt lat="43.41054" lon="1.35017">
        <ele>252.4</ele>
        <time>2015-10-07T11:49:10.000Z</time>
      </trkpt>
      <trkpt lat="43.41054" lon="1.35003">
        <ele>253.3</ele>
        <time>2015-10-07T11:49:17.000Z</time>
      </trkpt>
      <trkpt lat="43.41055" lon="1.3499">
        <ele>254.2</ele>
        <time>2015-10-07T11:49:24.000Z</time>
      </trkpt>
      <trkpt lat="43.41055" lon="1.34977">
        <ele>255.2</ele>
        <time>2015-10-07T11:49:32.000Z</time>
      </trkpt>
      <trkpt lat="43.41056" lon="1.34964">
        <ele>256.3</ele>
        <time>2015-10-07T11:49:40.000Z</time>
      </trkpt>
      <trkpt lat="43.41059" lon="1.34951">
        <ele>257.2</ele>
        <time>2015-10-07T11:49:49.000Z</time>
      </trkpt>
      <trkpt lat="43.41059" lon="1.34938">
        <ele>258.1</ele>
        <time>2015-10-07T11:49:56.000Z</time>
      </trkpt>
      <trkpt lat="43.4106" lon="1.34925">
        <ele>259</ele>
        <time>2015-10-07T11:50:3.000Z</time>
      </trkpt>
      <trkpt lat="43.41061" lon="1.34912">
        <ele>259.9</ele>
        <time>2015-10-07T11:50:10.000Z</time>
      </trkpt>
      <trkpt lat="43.41063" lon="1.34899">
        <ele>260.6</ele>
        <time>2015-10-07T11:50:17.000Z</time>
      </trkpt>
      <trkpt lat="43.41065" lon="1.34887">
        <ele>261.4</ele>
        <time>2015-10-07T11:50:24.000Z</time>
      </trkpt>
      <trkpt lat="43.41066" lon="1.34873">
        <ele>262.1</ele>
        <time>2015-10-07T11:50:31.000Z</time>
      </trkpt>
      <trkpt lat="43.41066" lon="1.3486">
        <ele>262.8</ele>
        <time>2015-10-07T11:50:38.000Z</time>
      </trkpt>
      <trkpt lat="43.41068" lon="1.34848">
        <ele>263.4</ele>
        <time>2015-10-07T11:50:45.000Z</time>
      </trkpt>
      <trkpt lat="43.41071" lon="1.34836">
        <ele>263.8</ele>
        <time>2015-10-07T11:50:52.000Z</time>
      </trkpt>
      <trkpt lat="43.41072" lon="1.34822">
        <ele>264.5</ele>
        <time>2015-10-07T11:51:0.000Z</time>
      </trkpt>
      <trkpt lat="43.41076" lon="1.34811">
        <ele>265.3</ele>
        <time>2015-10-07T11:51:7.000Z</time>
      </trkpt>
      <trkpt lat="43.41077" lon="1.34797">
        <ele>266.1</ele>
        <time>2015-10-07T11:51:15.000Z</time>
      </trkpt>
      <trkpt lat="43.41078" lon="1.34784">
        <ele>266.8</ele>
        <time>2015-10-07T11:51:22.000Z</time>
      </trkpt>
      <trkpt lat="43.4108" lon="1.34772">
        <ele>267.3</ele>
        <time>2015-10-07T11:51:29.000Z</time>
      </trkpt>
      <trkpt lat="43.41078" lon="1.34759">
        <ele>267.9</ele>
        <time>2015-10-07T11:51:37.000Z</time>
      </trkpt>
      <trkpt lat="43.41079" lon="1.34747">
        <ele>268.4</ele>
        <time>2015-10-07T11:51:44.000Z</time>
      </trkpt>
      <trkpt lat="43.41083" lon="1.34734">
        <ele>269</ele>
        <time>2015-10-07T11:51:51.000Z</time>
      </trkpt>
      <trkpt lat="43.41085" lon="1.34721">
        <ele>269.9</ele>
        <time>2015-10-07T11:51:59.000Z</time>
      </trkpt>
      <trkpt lat="43.41087" lon="1.34708">
        <ele>270.5</ele>
        <time>2015-10-07T11:52:8.000Z</time>
      </trkpt>
      <trkpt lat="43.41088" lon="1.34695">
        <ele>270.9</ele>
        <time>2015-10-07T11:52:16.000Z</time>
      </trkpt>
      <trkpt lat="43.41093" lon="1.34685">
        <ele>271.1</ele>
        <time>2015-10-07T11:52:23.000Z</time>
      </trkpt>
      <trkpt lat="43.41096" lon="1.34673">
        <ele>271.3</ele>
        <time>2015-10-07T11:52:32.000Z</time>
      </trkpt>
      <trkpt lat="43.41099" lon="1.34661">
        <ele>271.5</ele>
        <time>2015-10-07T11:52:39.000Z</time>
      </trkpt>
      <trkpt lat="43.41105" lon="1.34651">
        <ele>271.7</ele>
        <time>2015-10-07T11:52:46.000Z</time>
      </trkpt>
      <trkpt lat="43.4111" lon="1.34639">
        <ele>271.8</ele>
        <time>2015-10-07T11:52:54.000Z</time>
      </trkpt>
      <trkpt lat="43.4111" lon="1.34624">
        <ele>271.9</ele>
        <time>2015-10-07T11:53:2.000Z</time>
      </trkpt>
      <trkpt lat="43.41115" lon="1.34613">
        <ele>272.2</ele>
        <time>2015-10-07T11:53:10.000Z</time>
      </trkpt>
      <trkpt lat="43.41119" lon="1.34601">
        <ele>272.4</ele>
        <time>2015-10-07T11:53:18.000Z</time>
      </trkpt>
      <trkpt lat="43.41124" lon="1.34589">
        <ele>272.2</ele>
        <time>2015-10-07T11:53:25.000Z</time>
      </trkpt>
      <trkpt lat="43.41128" lon="1.34577">
        <ele>272.1</ele>
        <time>2015-10-07T11:53:33.000Z</time>
      </trkpt>
      <trkpt lat="43.41131" lon="1.34565">
        <ele>272.3</ele>
        <time>2015-10-07T11:53:41.000Z</time>
      </trkpt>
      <trkpt lat="43.41135" lon="1.34553">
        <ele>272.4</ele>
        <time>2015-10-07T11:53:49.000Z</time>
      </trkpt>
      <trkpt lat="43.41138" lon="1.3454">
        <ele>272.4</ele>
        <time>2015-10-07T11:53:56.000Z</time>
      </trkpt>
      <trkpt lat="43.4114" lon="1.34527">
        <ele>272.4</ele>
        <time>2015-10-07T11:54:4.000Z</time>
      </trkpt>
      <trkpt lat="43.41146" lon="1.34516">
        <ele>272.4</ele>
        <time>2015-10-07T11:54:12.000Z</time>
      </trkpt>
      <trkpt lat="43.41148" lon="1.34503">
        <ele>272.3</ele>
        <time>2015-10-07T11:54:21.000Z</time>
      </trkpt>
      <trkpt lat="43.41152" lon="1.34491">
        <ele>272.6</ele>
        <time>2015-10-07T11:54:29.000Z</time>
      </trkpt>
      <trkpt lat="43.41158" lon="1.34481">
        <ele>272.6</ele>
        <time>2015-10-07T11:54:36.000Z</time>
      </trkpt>
      <trkpt lat="43.41163" lon="1.3447">
        <ele>272.6</ele>
        <time>2015-10-07T11:54:43.000Z</time>
      </trkpt>
      <trkpt lat="43.41169" lon="1.3446">
        <ele>272.6</ele>
        <time>2015-10-07T11:54:50.000Z</time>
      </trkpt>
      <trkpt lat="43.41177" lon="1.3445">
        <ele>272.5</ele>
        <time>2015-10-07T11:54:58.000Z</time>
      </trkpt>
      <trkpt lat="43.41183" lon="1.3444">
        <ele>272.3</ele>
        <time>2015-10-07T11:55:7.000Z</time>
      </trkpt>
      <trkpt lat="43.41189" lon="1.34431">
        <ele>272.1</ele>
        <time>2015-10-07T11:55:14.000Z</time>
      </trkpt>
      <trkpt lat="43.41191" lon="1.34418">
        <ele>272</ele>
        <time>2015-10-07T11:55:22.000Z</time>
      </trkpt>
      <trkpt lat="43.41195" lon="1.34406">
        <ele>272</ele>
        <time>2015-10-07T11:55:33.000Z</time>
      </trkpt>
      <trkpt lat="43.41201" lon="1.34394">
        <ele>272</ele>
        <time>2015-10-07T11:55:40.000Z</time>
      </trkpt>
      <trkpt lat="43.41206" lon="1.34383">
        <ele>272.2</ele>
        <time>2015-10-07T11:55:48.000Z</time>
      </trkpt>
      <trkpt lat="43.41208" lon="1.34371">
        <ele>273</ele>
        <time>2015-10-07T11:55:58.000Z</time>
      </trkpt>
      <trkpt lat="43.41212" lon="1.34359">
        <ele>273.5</ele>
        <time>2015-10-07T11:56:7.000Z</time>
      </trkpt>
      <trkpt lat="43.41218" lon="1.34348">
        <ele>274</ele>
        <time>2015-10-07T11:56:16.000Z</time>
      </trkpt>
      <trkpt lat="43.41225" lon="1.34339">
        <ele>274.7</ele>
        <time>2015-10-07T11:56:25.000Z</time>
      </trkpt>
      <trkpt lat="43.41236" lon="1.34352">
        <ele>281.4</ele>
        <time>2015-10-07T12:03:4.000Z</time>
      </trkpt>
      <trkpt lat="43.41243" lon="1.34361">
        <ele>281.4</ele>
        <time>2015-10-07T12:03:13.000Z</time>
      </trkpt>
      <trkpt lat="43.41251" lon="1.34369">
        <ele>281.3</ele>
        <time>2015-10-07T12:03:23.000Z</time>
      </trkpt>
      <trkpt lat="43.41258" lon="1.34376">
        <ele>281.1</ele>
        <time>2015-10-07T12:03:32.000Z</time>
      </trkpt>
      <trkpt lat="43.41265" lon="1.34385">
        <ele>280.4</ele>
        <time>2015-10-07T12:03:41.000Z</time>
      </trkpt>
      <trkpt lat="43.41273" lon="1.34394">
        <ele>279.6</ele>
        <time>2015-10-07T12:03:50.000Z</time>
      </trkpt>
      <trkpt lat="43.4128" lon="1.34402">
        <ele>279.3</ele>
        <time>2015-10-07T12:04:0.000Z</time>
      </trkpt>
      <trkpt lat="43.41289" lon="1.34408">
        <ele>279.1</ele>
        <time>2015-10-07T12:04:9.000Z</time>
      </trkpt>
      <trkpt lat="43.41297" lon="1.34416">
        <ele>278.6</ele>
        <time>2015-10-07T12:04:18.000Z</time>
      </trkpt>
      <trkpt lat="43.41306" lon="1.34423">
        <ele>278.4</ele>
        <time>2015-10-07T12:04:26.000Z</time>
      </trkpt>
      <trkpt lat="43.41314" lon="1.34431">
        <ele>278.4</ele>
        <time>2015-10-07T12:04:36.000Z</time>
      </trkpt>
      <trkpt lat="43.41321" lon="1.34439">
        <ele>278.4</ele>
        <time>2015-10-07T12:04:45.000Z</time>
      </trkpt>
      <trkpt lat="43.41328" lon="1.34448">
        <ele>278.4</ele>
        <time>2015-10-07T12:04:52.000Z</time>
      </trkpt>
      <trkpt lat="43.41336" lon="1.34454">
        <ele>278.4</ele>
        <time>2015-10-07T12:05:1.000Z</time>
      </trkpt>
      <trkpt lat="43.41343" lon="1.34464">
        <ele>278.5</ele>
        <time>2015-10-07T12:05:11.000Z</time>
      </trkpt>
      <trkpt lat="43.41351" lon="1.34472">
        <ele>278.6</ele>
        <time>2015-10-07T12:05:20.000Z</time>
      </trkpt>
      <trkpt lat="43.41358" lon="1.34481">
        <ele>278.6</ele>
        <time>2015-10-07T12:05:30.000Z</time>
      </trkpt>
      <trkpt lat="43.41366" lon="1.34489">
        <ele>278.8</ele>
        <time>2015-10-07T12:05:39.000Z</time>
      </trkpt>
      <trkpt lat="43.41373" lon="1.34498">
        <ele>279.1</ele>
        <time>2015-10-07T12:05:48.000Z</time>
      </trkpt>
      <trkpt lat="43.41381" lon="1.34505">
        <ele>279.5</ele>
        <time>2015-10-07T12:05:57.000Z</time>
      </trkpt>
      <trkpt lat="43.4139" lon="1.34509">
        <ele>279.7</ele>
        <time>2015-10-07T12:06:4.000Z</time>
      </trkpt>
      <trkpt lat="43.41398" lon="1.34516">
        <ele>279.8</ele>
        <time>2015-10-07T12:06:13.000Z</time>
      </trkpt>
      <trkpt lat="43.41407" lon="1.34521">
        <ele>279.4</ele>
        <time>2015-10-07T12:06:21.000Z</time>
      </trkpt>
      <trkpt lat="43.41416" lon="1.34523">
        <ele>279.2</ele>
        <time>2015-10-07T12:06:29.000Z</time>
      </trkpt>
      <trkpt lat="43.41425" lon="1.34528">
        <ele>278.9</ele>
        <time>2015-10-07T12:06:37.000Z</time>
      </trkpt>
      <trkpt lat="43.41434" lon="1.34533">
        <ele>278.7</ele>
        <time>2015-10-07T12:06:45.000Z</time>
      </trkpt>
      <trkpt lat="43.41443" lon="1.34537">
        <ele>278.5</ele>
        <time>2015-10-07T12:06:54.000Z</time>
      </trkpt>
      <trkpt lat="43.41453" lon="1.3454">
        <ele>278</ele>
        <time>2015-10-07T12:07:3.000Z</time>
      </trkpt>
      <trkpt lat="43.41461" lon="1.34544">
        <ele>277.7</ele>
        <time>2015-10-07T12:07:12.000Z</time>
      </trkpt>
      <trkpt lat="43.4147" lon="1.34549">
        <ele>277.5</ele>
        <time>2015-10-07T12:07:19.000Z</time>
      </trkpt>
      <trkpt lat="43.4148" lon="1.34553">
        <ele>277</ele>
        <time>2015-10-07T12:07:27.000Z</time>
      </trkpt>
      <trkpt lat="43.41488" lon="1.34556">
        <ele>276.7</ele>
        <time>2015-10-07T12:07:34.000Z</time>
      </trkpt>
      <trkpt lat="43.41497" lon="1.3456">
        <ele>276.4</ele>
        <time>2015-10-07T12:07:43.000Z</time>
      </trkpt>
      <trkpt lat="43.41506" lon="1.34563">
        <ele>276.1</ele>
        <time>2015-10-07T12:07:50.000Z</time>
      </trkpt>
      <trkpt lat="43.41517" lon="1.34566">
        <ele>275.7</ele>
        <time>2015-10-07T12:07:57.000Z</time>
      </trkpt>
      <trkpt lat="43.41527" lon="1.34568">
        <ele>275.4</ele>
        <time>2015-10-07T12:08:4.000Z</time>
      </trkpt>
      <trkpt lat="43.41536" lon="1.34572">
        <ele>274.8</ele>
        <time>2015-10-07T12:08:13.000Z</time>
      </trkpt>
      <trkpt lat="43.41546" lon="1.34574">
        <ele>274.4</ele>
        <time>2015-10-07T12:08:21.000Z</time>
      </trkpt>
      <trkpt lat="43.41555" lon="1.34576">
        <ele>273.9</ele>
        <time>2015-10-07T12:08:31.000Z</time>
      </trkpt>
      <trkpt lat="43.41564" lon="1.3458">
        <ele>273.5</ele>
        <time>2015-10-07T12:08:38.000Z</time>
      </trkpt>
      <trkpt lat="43.41573" lon="1.34584">
        <ele>272.8</ele>
        <time>2015-10-07T12:08:46.000Z</time>
      </trkpt>
      <trkpt lat="43.41582" lon="1.34589">
        <ele>272.2</ele>
        <time>2015-10-07T12:08:54.000Z</time>
      </trkpt>
      <trkpt lat="43.41591" lon="1.34595">
        <ele>271.9</ele>
        <time>2015-10-07T12:09:1.000Z</time>
      </trkpt>
      <trkpt lat="43.416" lon="1.34603">
        <ele>271.6</ele>
        <time>2015-10-07T12:09:9.000Z</time>
      </trkpt>
      <trkpt lat="43.41608" lon="1.3461">
        <ele>271.1</ele>
        <time>2015-10-07T12:09:17.000Z</time>
      </trkpt>
      <trkpt lat="43.41616" lon="1.34604">
        <ele>270.6</ele>
        <time>2015-10-07T12:09:25.000Z</time>
      </trkpt>
      <trkpt lat="43.41621" lon="1.34593">
        <ele>270.1</ele>
        <time>2015-10-07T12:09:32.000Z</time>
      </trkpt>
      <trkpt lat="43.41626" lon="1.34583">
        <ele>269.7</ele>
        <time>2015-10-07T12:09:39.000Z</time>
      </trkpt>
      <trkpt lat="43.41627" lon="1.3457">
        <ele>269.4</ele>
        <time>2015-10-07T12:09:47.000Z</time>
      </trkpt>
      <trkpt lat="43.41635" lon="1.34562">
        <ele>268.9</ele>
        <time>2015-10-07T12:09:57.000Z</time>
      </trkpt>
      <trkpt lat="43.4164" lon="1.34551">
        <ele>268.3</ele>
        <time>2015-10-07T12:10:5.000Z</time>
      </trkpt>
      <trkpt lat="43.41642" lon="1.34538">
        <ele>267.8</ele>
        <time>2015-10-07T12:10:13.000Z</time>
      </trkpt>
      <trkpt lat="43.41646" lon="1.34526">
        <ele>267.4</ele>
        <time>2015-10-07T12:10:21.000Z</time>
      </trkpt>
      <trkpt lat="43.4165" lon="1.34514">
        <ele>266.9</ele>
        <time>2015-10-07T12:10:30.000Z</time>
      </trkpt>
      <trkpt lat="43.41656" lon="1.34505">
        <ele>266.4</ele>
        <time>2015-10-07T12:10:40.000Z</time>
      </trkpt>
      <trkpt lat="43.41664" lon="1.34498">
        <ele>266.3</ele>
        <time>2015-10-07T12:10:49.000Z</time>
      </trkpt>
      <trkpt lat="43.41669" lon="1.34487">
        <ele>265.8</ele>
        <time>2015-10-07T12:11:0.000Z</time>
      </trkpt>
      <trkpt lat="43.41677" lon="1.34484">
        <ele>265.4</ele>
        <time>2015-10-07T12:11:8.000Z</time>
      </trkpt>
      <trkpt lat="43.41687" lon="1.34482">
        <ele>265.2</ele>
        <time>2015-10-07T12:11:17.000Z</time>
      </trkpt>
      <trkpt lat="43.41695" lon="1.34476">
        <ele>264.3</ele>
        <time>2015-10-07T12:11:28.000Z</time>
      </trkpt>
      <trkpt lat="43.41697" lon="1.34463">
        <ele>263.6</ele>
        <time>2015-10-07T12:11:37.000Z</time>
      </trkpt>
      <trkpt lat="43.41699" lon="1.34451">
        <ele>262.8</ele>
        <time>2015-10-07T12:11:45.000Z</time>
      </trkpt>
      <trkpt lat="43.417" lon="1.34438">
        <ele>262.1</ele>
        <time>2015-10-07T12:11:52.000Z</time>
      </trkpt>
      <trkpt lat="43.41696" lon="1.34425">
        <ele>261.2</ele>
        <time>2015-10-07T12:12:1.000Z</time>
      </trkpt>
      <trkpt lat="43.417" lon="1.34413">
        <ele>260.1</ele>
        <time>2015-10-07T12:12:9.000Z</time>
      </trkpt>
      <trkpt lat="43.417" lon="1.34399">
        <ele>259.5</ele>
        <time>2015-10-07T12:12:16.000Z</time>
      </trkpt>
      <trkpt lat="43.41697" lon="1.34386">
        <ele>258.4</ele>
        <time>2015-10-07T12:12:27.000Z</time>
      </trkpt>
      <trkpt lat="43.41702" lon="1.34374">
        <ele>257.1</ele>
        <time>2015-10-07T12:12:40.000Z</time>
      </trkpt>
      <trkpt lat="43.41704" lon="1.34361">
        <ele>256</ele>
        <time>2015-10-07T12:12:48.000Z</time>
      </trkpt>
      <trkpt lat="43.41703" lon="1.34347">
        <ele>254.6</ele>
        <time>2015-10-07T12:12:58.000Z</time>
      </trkpt>
      <trkpt lat="43.41696" lon="1.3434">
        <ele>253.5</ele>
        <time>2015-10-07T12:13:8.000Z</time>
      </trkpt>
      <trkpt lat="43.41688" lon="1.34332">
        <ele>252.6</ele>
        <time>2015-10-07T12:13:19.000Z</time>
      </trkpt>
      <trkpt lat="43.41683" lon="1.34322">
        <ele>252.2</ele>
        <time>2015-10-07T12:13:27.000Z</time>
      </trkpt>
      <trkpt lat="43.41679" lon="1.3431">
        <ele>251.7</ele>
        <time>2015-10-07T12:13:37.000Z</time>
      </trkpt>
      <trkpt lat="43.41674" lon="1.34297">
        <ele>251.1</ele>
        <time>2015-10-07T12:13:46.000Z</time>
      </trkpt>
      <trkpt lat="43.41668" lon="1.34287">
        <ele>250.3</ele>
        <time>2015-10-07T12:13:54.000Z</time>
      </trkpt>
      <trkpt lat="43.41662" lon="1.34277">
        <ele>249.2</ele>
        <time>2015-10-07T12:14:3.000Z</time>
      </trkpt>
      <trkpt lat="43.41656" lon="1.34266">
        <ele>248.4</ele>
        <time>2015-10-07T12:14:12.000Z</time>
      </trkpt>
      <trkpt lat="43.4165" lon="1.34256">
        <ele>247.6</ele>
        <time>2015-10-07T12:14:19.000Z</time>
      </trkpt>
      <trkpt lat="43.41643" lon="1.34246">
        <ele>246.5</ele>
        <time>2015-10-07T12:14:28.000Z</time>
      </trkpt>
      <trkpt lat="43.41639" lon="1.34235">
        <ele>245.4</ele>
        <time>2015-10-07T12:14:39.000Z</time>
      </trkpt>
      <trkpt lat="43.41632" lon="1.34227">
        <ele>244.1</ele>
        <time>2015-10-07T12:14:58.000Z</time>
      </trkpt>
      <trkpt lat="43.41624" lon="1.3422">
        <ele>243.5</ele>
        <time>2015-10-07T12:15:6.000Z</time>
      </trkpt>
      <trkpt lat="43.41618" lon="1.34211">
        <ele>242.9</ele>
        <time>2015-10-07T12:15:14.000Z</time>
      </trkpt>
      <trkpt lat="43.41611" lon="1.34201">
        <ele>242.3</ele>
        <time>2015-10-07T12:15:23.000Z</time>
      </trkpt>
      <trkpt lat="43.41603" lon="1.34195">
        <ele>242.3</ele>
        <time>2015-10-07T12:15:31.000Z</time>
      </trkpt>
      <trkpt lat="43.41595" lon="1.3419">
        <ele>243.4</ele>
        <time>2015-10-07T12:15:45.000Z</time>
      </trkpt>
      <trkpt lat="43.41587" lon="1.34181">
        <ele>244.5</ele>
        <time>2015-10-07T12:15:55.000Z</time>
      </trkpt>
      <trkpt lat="43.41581" lon="1.34173">
        <ele>245.9</ele>
        <time>2015-10-07T12:16:4.000Z</time>
      </trkpt>
      <trkpt lat="43.41574" lon="1.34163">
        <ele>247</ele>
        <time>2015-10-07T12:16:12.000Z</time>
      </trkpt>
      <trkpt lat="43.41567" lon="1.34154">
        <ele>248</ele>
        <time>2015-10-07T12:16:20.000Z</time>
      </trkpt>
      <trkpt lat="43.41562" lon="1.34143">
        <ele>248.9</ele>
        <time>2015-10-07T12:16:28.000Z</time>
      </trkpt>
      <trkpt lat="43.41557" lon="1.34133">
        <ele>249.6</ele>
        <time>2015-10-07T12:16:37.000Z</time>
      </trkpt>
      <trkpt lat="43.41552" lon="1.34122">
        <ele>250.1</ele>
        <time>2015-10-07T12:16:45.000Z</time>
      </trkpt>
      <trkpt lat="43.41547" lon="1.3411">
        <ele>250.8</ele>
        <time>2015-10-07T12:16:55.000Z</time>
      </trkpt>
      <trkpt lat="43.41542" lon="1.341">
        <ele>251.1</ele>
        <time>2015-10-07T12:17:2.000Z</time>
      </trkpt>
      <trkpt lat="43.41535" lon="1.34091">
        <ele>251.4</ele>
        <time>2015-10-07T12:17:11.000Z</time>
      </trkpt>
      <trkpt lat="43.41526" lon="1.34083">
        <ele>251.7</ele>
        <time>2015-10-07T12:17:20.000Z</time>
      </trkpt>
      <trkpt lat="43.41519" lon="1.34075">
        <ele>252</ele>
        <time>2015-10-07T12:17:29.000Z</time>
      </trkpt>
      <trkpt lat="43.41511" lon="1.3407">
        <ele>252.3</ele>
        <time>2015-10-07T12:17:37.000Z</time>
      </trkpt>
      <trkpt lat="43.41504" lon="1.34061">
        <ele>252.6</ele>
        <time>2015-10-07T12:17:44.000Z</time>
      </trkpt>
      <trkpt lat="43.41497" lon="1.34052">
        <ele>252.8</ele>
        <time>2015-10-07T12:17:52.000Z</time>
      </trkpt>
      <trkpt lat="43.4149" lon="1.34044">
        <ele>253.1</ele>
        <time>2015-10-07T12:18:1.000Z</time>
      </trkpt>
      <trkpt lat="43.41486" lon="1.34032">
        <ele>253.3</ele>
        <time>2015-10-07T12:18:8.000Z</time>
      </trkpt>
      <trkpt lat="43.41481" lon="1.34021">
        <ele>253.6</ele>
        <time>2015-10-07T12:18:15.000Z</time>
      </trkpt>
      <trkpt lat="43.41477" lon="1.3401">
        <ele>253.9</ele>
        <time>2015-10-07T12:18:22.000Z</time>
      </trkpt>
      <trkpt lat="43.41472" lon="1.33999">
        <ele>254.1</ele>
        <time>2015-10-07T12:18:30.000Z</time>
      </trkpt>
      <trkpt lat="43.41467" lon="1.33988">
        <ele>254.2</ele>
        <time>2015-10-07T12:18:38.000Z</time>
      </trkpt>
      <trkpt lat="43.41462" lon="1.33976">
        <ele>254.4</ele>
        <time>2015-10-07T12:18:46.000Z</time>
      </trkpt>
      <trkpt lat="43.41456" lon="1.33965">
        <ele>254.3</ele>
        <time>2015-10-07T12:18:54.000Z</time>
      </trkpt>
      <trkpt lat="43.41452" lon="1.33954">
        <ele>254.1</ele>
        <time>2015-10-07T12:19:3.000Z</time>
      </trkpt>
      <trkpt lat="43.41447" lon="1.33945">
        <ele>254</ele>
        <time>2015-10-07T12:19:11.000Z</time>
      </trkpt>
      <trkpt lat="43.4144" lon="1.33936">
        <ele>253.9</ele>
        <time>2015-10-07T12:19:18.000Z</time>
      </trkpt>
      <trkpt lat="43.41433" lon="1.33927">
        <ele>253.8</ele>
        <time>2015-10-07T12:19:26.000Z</time>
      </trkpt>
      <trkpt lat="43.41426" lon="1.33918">
        <ele>254</ele>
        <time>2015-10-07T12:19:35.000Z</time>
      </trkpt>
      <trkpt lat="43.41419" lon="1.3391">
        <ele>254.3</ele>
        <time>2015-10-07T12:19:45.000Z</time>
      </trkpt>
      <trkpt lat="43.41412" lon="1.33901">
        <ele>254.6</ele>
        <time>2015-10-07T12:19:55.000Z</time>
      </trkpt>
      <trkpt lat="43.41406" lon="1.33891">
        <ele>254.9</ele>
        <time>2015-10-07T12:20:3.000Z</time>
      </trkpt>
      <trkpt lat="43.41399" lon="1.33883">
        <ele>255.2</ele>
        <time>2015-10-07T12:20:11.000Z</time>
      </trkpt>
      <trkpt lat="43.41391" lon="1.33875">
        <ele>255.5</ele>
        <time>2015-10-07T12:20:20.000Z</time>
      </trkpt>
      <trkpt lat="43.41383" lon="1.33867">
        <ele>256.2</ele>
        <time>2015-10-07T12:20:30.000Z</time>
      </trkpt>
      <trkpt lat="43.41377" lon="1.33859">
        <ele>256.6</ele>
        <time>2015-10-07T12:20:37.000Z</time>
      </trkpt>
      <trkpt lat="43.41369" lon="1.33852">
        <ele>257.3</ele>
        <time>2015-10-07T12:20:44.000Z</time>
      </trkpt>
      <trkpt lat="43.41361" lon="1.33845">
        <ele>258.2</ele>
        <time>2015-10-07T12:20:54.000Z</time>
      </trkpt>
      <trkpt lat="43.41354" lon="1.33837">
        <ele>259</ele>
        <time>2015-10-07T12:21:2.000Z</time>
      </trkpt>
      <trkpt lat="43.4135" lon="1.33812">
        <ele>263</ele>
        <time>2015-10-07T12:23:15.000Z</time>
      </trkpt>
      <trkpt lat="43.41357" lon="1.33802">
        <ele>262.6</ele>
        <time>2015-10-07T12:23:24.000Z</time>
      </trkpt>
      <trkpt lat="43.41362" lon="1.33791">
        <ele>262</ele>
        <time>2015-10-07T12:23:31.000Z</time>
      </trkpt>
      <trkpt lat="43.41367" lon="1.33781">
        <ele>261</ele>
        <time>2015-10-07T12:23:39.000Z</time>
      </trkpt>
      <trkpt lat="43.41374" lon="1.3377">
        <ele>259.8</ele>
        <time>2015-10-07T12:23:48.000Z</time>
      </trkpt>
      <trkpt lat="43.41381" lon="1.3376">
        <ele>258.3</ele>
        <time>2015-10-07T12:23:57.000Z</time>
      </trkpt>
      <trkpt lat="43.41388" lon="1.33751">
        <ele>257.2</ele>
        <time>2015-10-07T12:24:6.000Z</time>
      </trkpt>
      <trkpt lat="43.41391" lon="1.33739">
        <ele>255.7</ele>
        <time>2015-10-07T12:24:16.000Z</time>
      </trkpt>
      <trkpt lat="43.41395" lon="1.33727">
        <ele>254.4</ele>
        <time>2015-10-07T12:24:25.000Z</time>
      </trkpt>
      <trkpt lat="43.41404" lon="1.33723">
        <ele>253.6</ele>
        <time>2015-10-07T12:24:32.000Z</time>
      </trkpt>
      <trkpt lat="43.41411" lon="1.33713">
        <ele>253</ele>
        <time>2015-10-07T12:24:40.000Z</time>
      </trkpt>
      <trkpt lat="43.41416" lon="1.33704">
        <ele>252.6</ele>
        <time>2015-10-07T12:24:49.000Z</time>
      </trkpt>
      <trkpt lat="43.41423" lon="1.33694">
        <ele>252.1</ele>
        <time>2015-10-07T12:24:58.000Z</time>
      </trkpt>
      <trkpt lat="43.41432" lon="1.33688">
        <ele>252</ele>
        <time>2015-10-07T12:25:5.000Z</time>
      </trkpt>
      <trkpt lat="43.4144" lon="1.33681">
        <ele>251.9</ele>
        <time>2015-10-07T12:25:15.000Z</time>
      </trkpt>
      <trkpt lat="43.41449" lon="1.33684">
        <ele>252.3</ele>
        <time>2015-10-07T12:25:26.000Z</time>
      </trkpt>
      <trkpt lat="43.41459" lon="1.33689">
        <ele>252.4</ele>
        <time>2015-10-07T12:25:34.000Z</time>
      </trkpt>
      <trkpt lat="43.41468" lon="1.33693">
        <ele>252.5</ele>
        <time>2015-10-07T12:25:42.000Z</time>
      </trkpt>
      <trkpt lat="43.41477" lon="1.33697">
        <ele>252.6</ele>
        <time>2015-10-07T12:25:52.000Z</time>
      </trkpt>
      <trkpt lat="43.41486" lon="1.33702">
        <ele>252.5</ele>
        <time>2015-10-07T12:26:2.000Z</time>
      </trkpt>
      <trkpt lat="43.41495" lon="1.337">
        <ele>252.3</ele>
        <time>2015-10-07T12:26:11.000Z</time>
      </trkpt>
      <trkpt lat="43.41498" lon="1.33687">
        <ele>252</ele>
        <time>2015-10-07T12:26:21.000Z</time>
      </trkpt>
      <trkpt lat="43.41498" lon="1.33675">
        <ele>251.8</ele>
        <time>2015-10-07T12:26:30.000Z</time>
      </trkpt>
      <trkpt lat="43.41498" lon="1.33662">
        <ele>251.8</ele>
        <time>2015-10-07T12:26:39.000Z</time>
      </trkpt>
      <trkpt lat="43.41498" lon="1.3365">
        <ele>252.2</ele>
        <time>2015-10-07T12:26:49.000Z</time>
      </trkpt>
      <trkpt lat="43.415" lon="1.33636">
        <ele>252.4</ele>
        <time>2015-10-07T12:26:58.000Z</time>
      </trkpt>
      <trkpt lat="43.41501" lon="1.33624">
        <ele>252.7</ele>
        <time>2015-10-07T12:27:6.000Z</time>
      </trkpt>
      <trkpt lat="43.415" lon="1.33611">
        <ele>253</ele>
        <time>2015-10-07T12:27:14.000Z</time>
      </trkpt>
      <trkpt lat="43.41501" lon="1.33597">
        <ele>253.3</ele>
        <time>2015-10-07T12:27:23.000Z</time>
      </trkpt>
      <trkpt lat="43.41501" lon="1.33584">
        <ele>253.6</ele>
        <time>2015-10-07T12:27:33.000Z</time>
      </trkpt>
      <trkpt lat="43.41502" lon="1.33571">
        <ele>253.7</ele>
        <time>2015-10-07T12:27:43.000Z</time>
      </trkpt>
      <trkpt lat="43.41503" lon="1.33558">
        <ele>253.9</ele>
        <time>2015-10-07T12:27:52.000Z</time>
      </trkpt>
      <trkpt lat="43.41505" lon="1.33545">
        <ele>254.1</ele>
        <time>2015-10-07T12:28:1.000Z</time>
      </trkpt>
      <trkpt lat="43.41506" lon="1.33532">
        <ele>254.3</ele>
        <time>2015-10-07T12:28:9.000Z</time>
      </trkpt>
      <trkpt lat="43.41508" lon="1.33518">
        <ele>254.7</ele>
        <time>2015-10-07T12:28:18.000Z</time>
      </trkpt>
      <trkpt lat="43.41509" lon="1.33506">
        <ele>255.1</ele>
        <time>2015-10-07T12:28:26.000Z</time>
      </trkpt>
      <trkpt lat="43.4151" lon="1.33492">
        <ele>255.5</ele>
        <time>2015-10-07T12:28:35.000Z</time>
      </trkpt>
      <trkpt lat="43.41511" lon="1.33479">
        <ele>255.8</ele>
        <time>2015-10-07T12:28:43.000Z</time>
      </trkpt>
      <trkpt lat="43.41514" lon="1.33466">
        <ele>256.1</ele>
        <time>2015-10-07T12:28:51.000Z</time>
      </trkpt>
      <trkpt lat="43.41516" lon="1.33453">
        <ele>256.2</ele>
        <time>2015-10-07T12:28:59.000Z</time>
      </trkpt>
      <trkpt lat="43.41519" lon="1.33441">
        <ele>256.4</ele>
        <time>2015-10-07T12:29:9.000Z</time>
      </trkpt>
      <trkpt lat="43.41519" lon="1.33427">
        <ele>256.5</ele>
        <time>2015-10-07T12:29:18.000Z</time>
      </trkpt>
      <trkpt lat="43.41521" lon="1.33414">
        <ele>256.6</ele>
        <time>2015-10-07T12:29:26.000Z</time>
      </trkpt>
      <trkpt lat="43.41524" lon="1.33401">
        <ele>256.8</ele>
        <time>2015-10-07T12:29:35.000Z</time>
      </trkpt>
      <trkpt lat="43.41526" lon="1.33388">
        <ele>257</ele>
        <time>2015-10-07T12:29:43.000Z</time>
      </trkpt>
      <trkpt lat="43.41529" lon="1.33375">
        <ele>257.2</ele>
        <time>2015-10-07T12:29:51.000Z</time>
      </trkpt>
      <trkpt lat="43.4153" lon="1.33361">
        <ele>257.5</ele>
        <time>2015-10-07T12:30:0.000Z</time>
      </trkpt>
      <trkpt lat="43.4153" lon="1.33348">
        <ele>258.1</ele>
        <time>2015-10-07T12:30:8.000Z</time>
      </trkpt>
      <trkpt lat="43.41531" lon="1.33335">
        <ele>258.6</ele>
        <time>2015-10-07T12:30:16.000Z</time>
      </trkpt>
      <trkpt lat="43.41532" lon="1.33322">
        <ele>259</ele>
        <time>2015-10-07T12:30:25.000Z</time>
      </trkpt>
      <trkpt lat="43.41535" lon="1.3331">
        <ele>259.4</ele>
        <time>2015-10-07T12:30:33.000Z</time>
      </trkpt>
      <trkpt lat="43.41535" lon="1.33296">
        <ele>260</ele>
        <time>2015-10-07T12:30:41.000Z</time>
      </trkpt>
      <trkpt lat="43.41536" lon="1.33283">
        <ele>260.5</ele>
        <time>2015-10-07T12:30:49.000Z</time>
      </trkpt>
      <trkpt lat="43.41536" lon="1.3327">
        <ele>260.8</ele>
        <time>2015-10-07T12:30:57.000Z</time>
      </trkpt>
      <trkpt lat="43.41536" lon="1.33258">
        <ele>261</ele>
        <time>2015-10-07T12:31:4.000Z</time>
      </trkpt>
      <trkpt lat="43.41536" lon="1.33243">
        <ele>261.3</ele>
        <time>2015-10-07T12:31:13.000Z</time>
      </trkpt>
      <trkpt lat="43.41535" lon="1.3323">
        <ele>261.6</ele>
        <time>2015-10-07T12:31:22.000Z</time>
      </trkpt>
      <trkpt lat="43.41535" lon="1.33216">
        <ele>261.9</ele>
        <time>2015-10-07T12:31:31.000Z</time>
      </trkpt>
      <trkpt lat="43.41535" lon="1.33203">
        <ele>262.3</ele>
        <time>2015-10-07T12:31:39.000Z</time>
      </trkpt>
      <trkpt lat="43.41535" lon="1.3319">
        <ele>262.8</ele>
        <time>2015-10-07T12:31:47.000Z</time>
      </trkpt>
      <trkpt lat="43.41535" lon="1.33177">
        <ele>263.2</ele>
        <time>2015-10-07T12:31:56.000Z</time>
      </trkpt>
      <trkpt lat="43.41534" lon="1.33164">
        <ele>263.5</ele>
        <time>2015-10-07T12:32:6.000Z</time>
      </trkpt>
      <trkpt lat="43.41536" lon="1.33151">
        <ele>263.7</ele>
        <time>2015-10-07T12:32:13.000Z</time>
      </trkpt>
      <trkpt lat="43.41536" lon="1.33138">
        <ele>264.1</ele>
        <time>2015-10-07T12:32:20.000Z</time>
      </trkpt>
      <trkpt lat="43.41536" lon="1.33125">
        <ele>264.4</ele>
        <time>2015-10-07T12:32:27.000Z</time>
      </trkpt>
      <trkpt lat="43.41538" lon="1.33112">
        <ele>264.7</ele>
        <time>2015-10-07T12:32:35.000Z</time>
      </trkpt>
      <trkpt lat="43.4154" lon="1.33098">
        <ele>264.8</ele>
        <time>2015-10-07T12:32:43.000Z</time>
      </trkpt>
      <trkpt lat="43.41542" lon="1.33086">
        <ele>264.6</ele>
        <time>2015-10-07T12:32:50.000Z</time>
      </trkpt>
      <trkpt lat="43.4154" lon="1.33073">
        <ele>265.1</ele>
        <time>2015-10-07T12:32:58.000Z</time>
      </trkpt>
      <trkpt lat="43.41541" lon="1.3306">
        <ele>265.5</ele>
        <time>2015-10-07T12:33:5.000Z</time>
      </trkpt>
      <trkpt lat="43.41541" lon="1.33047">
        <ele>265.7</ele>
        <time>2015-10-07T12:33:13.000Z</time>
      </trkpt>
      <trkpt lat="43.41541" lon="1.33034">
        <ele>265.8</ele>
        <time>2015-10-07T12:33:21.000Z</time>
      </trkpt>
      <trkpt lat="43.41542" lon="1.33021">
        <ele>265.9</ele>
        <time>2015-10-07T12:33:28.000Z</time>
      </trkpt>
      <trkpt lat="43.41541" lon="1.33008">
        <ele>265.9</ele>
        <time>2015-10-07T12:33:35.000Z</time>
      </trkpt>
      <trkpt lat="43.41541" lon="1.32995">
        <ele>266.1</ele>
        <time>2015-10-07T12:33:42.000Z</time>
      </trkpt>
      <trkpt lat="43.41541" lon="1.32982">
        <ele>266.5</ele>
        <time>2015-10-07T12:33:50.000Z</time>
      </trkpt>
      <trkpt lat="43.41541" lon="1.32968">
        <ele>266.7</ele>
        <time>2015-10-07T12:33:58.000Z</time>
      </trkpt>
      <trkpt lat="43.41541" lon="1.32955">
        <ele>266.9</ele>
        <time>2015-10-07T12:34:5.000Z</time>
      </trkpt>
      <trkpt lat="43.41542" lon="1.32942">
        <ele>267.1</ele>
        <time>2015-10-07T12:34:13.000Z</time>
      </trkpt>
      <trkpt lat="43.41543" lon="1.32928">
        <ele>267.2</ele>
        <time>2015-10-07T12:34:21.000Z</time>
      </trkpt>
      <trkpt lat="43.41542" lon="1.32915">
        <ele>267.4</ele>
        <time>2015-10-07T12:34:28.000Z</time>
      </trkpt>
      <trkpt lat="43.41542" lon="1.32902">
        <ele>267.5</ele>
        <time>2015-10-07T12:34:36.000Z</time>
      </trkpt>
      <trkpt lat="43.41541" lon="1.32889">
        <ele>267.7</ele>
        <time>2015-10-07T12:34:44.000Z</time>
      </trkpt>
      <trkpt lat="43.4154" lon="1.32876">
        <ele>267.9</ele>
        <time>2015-10-07T12:34:52.000Z</time>
      </trkpt>
      <trkpt lat="43.4154" lon="1.32862">
        <ele>268.2</ele>
        <time>2015-10-07T12:35:0.000Z</time>
      </trkpt>
      <trkpt lat="43.41539" lon="1.32849">
        <ele>268.5</ele>
        <time>2015-10-07T12:35:7.000Z</time>
      </trkpt>
      <trkpt lat="43.41539" lon="1.32836">
        <ele>268.9</ele>
        <time>2015-10-07T12:35:15.000Z</time>
      </trkpt>
      <trkpt lat="43.41542" lon="1.32823">
        <ele>269.2</ele>
        <time>2015-10-07T12:35:23.000Z</time>
      </trkpt>
      <trkpt lat="43.41542" lon="1.3281">
        <ele>269.5</ele>
        <time>2015-10-07T12:35:30.000Z</time>
      </trkpt>
      <trkpt lat="43.41543" lon="1.32797">
        <ele>269.9</ele>
        <time>2015-10-07T12:35:37.000Z</time>
      </trkpt>
      <trkpt lat="43.41543" lon="1.32785">
        <ele>270.2</ele>
        <time>2015-10-07T12:35:44.000Z</time>
      </trkpt>
      <trkpt lat="43.41543" lon="1.32771">
        <ele>270.9</ele>
        <time>2015-10-07T12:35:52.000Z</time>
      </trkpt>
      <trkpt lat="43.41543" lon="1.32758">
        <ele>271.5</ele>
        <time>2015-10-07T12:36:1.000Z</time>
      </trkpt>
      <trkpt lat="43.41543" lon="1.32745">
        <ele>271.9</ele>
        <time>2015-10-07T12:36:9.000Z</time>
      </trkpt>
      <trkpt lat="43.41543" lon="1.32731">
        <ele>272.3</ele>
        <time>2015-10-07T12:36:17.000Z</time>
      </trkpt>
      <trkpt lat="43.41542" lon="1.32717">
        <ele>272.6</ele>
        <time>2015-10-07T12:36:25.000Z</time>
      </trkpt>
      <trkpt lat="43.4154" lon="1.32704">
        <ele>273</ele>
        <time>2015-10-07T12:36:33.000Z</time>
      </trkpt>
      <trkpt lat="43.41538" lon="1.32692">
        <ele>273.3</ele>
        <time>2015-10-07T12:36:40.000Z</time>
      </trkpt>
      <trkpt lat="43.41536" lon="1.32679">
        <ele>273.4</ele>
        <time>2015-10-07T12:36:48.000Z</time>
      </trkpt>
      <trkpt lat="43.41534" lon="1.32665">
        <ele>273.5</ele>
        <time>2015-10-07T12:36:56.000Z</time>
      </trkpt>
      <trkpt lat="43.41532" lon="1.32653">
        <ele>273.7</ele>
        <time>2015-10-07T12:37:3.000Z</time>
      </trkpt>
      <trkpt lat="43.41532" lon="1.32639">
        <ele>273.9</ele>
        <time>2015-10-07T12:37:11.000Z</time>
      </trkpt>
      <trkpt lat="43.41533" lon="1.32625">
        <ele>274.2</ele>
        <time>2015-10-07T12:37:19.000Z</time>
      </trkpt>
      <trkpt lat="43.41534" lon="1.32613">
        <ele>274.5</ele>
        <time>2015-10-07T12:37:26.000Z</time>
      </trkpt>
      <trkpt lat="43.41536" lon="1.326">
        <ele>274.8</ele>
        <time>2015-10-07T12:37:33.000Z</time>
      </trkpt>
      <trkpt lat="43.41539" lon="1.32587">
        <ele>275.2</ele>
        <time>2015-10-07T12:37:41.000Z</time>
      </trkpt>
      <trkpt lat="43.41541" lon="1.32574">
        <ele>275.4</ele>
        <time>2015-10-07T12:37:48.000Z</time>
      </trkpt>
      <trkpt lat="43.41542" lon="1.3256">
        <ele>275.6</ele>
        <time>2015-10-07T12:37:56.000Z</time>
      </trkpt>
      <trkpt lat="43.41543" lon="1.32547">
        <ele>275.6</ele>
        <time>2015-10-07T12:38:4.000Z</time>
      </trkpt>
      <trkpt lat="43.41544" lon="1.32533">
        <ele>275.7</ele>
        <time>2015-10-07T12:38:12.000Z</time>
      </trkpt>
      <trkpt lat="43.41546" lon="1.3252">
        <ele>275.8</ele>
        <time>2015-10-07T12:38:20.000Z</time>
      </trkpt>
      <trkpt lat="43.41548" lon="1.32506">
        <ele>276</ele>
        <time>2015-10-07T12:38:28.000Z</time>
      </trkpt>
      <trkpt lat="43.41549" lon="1.32493">
        <ele>276.3</ele>
        <time>2015-10-07T12:38:36.000Z</time>
      </trkpt>
      <trkpt lat="43.41551" lon="1.32479">
        <ele>276.6</ele>
        <time>2015-10-07T12:38:44.000Z</time>
      </trkpt>
      <trkpt lat="43.41553" lon="1.32467">
        <ele>276.9</ele>
        <time>2015-10-07T12:38:51.000Z</time>
      </trkpt>
      <trkpt lat="43.41554" lon="1.32454">
        <ele>277.2</ele>
        <time>2015-10-07T12:38:59.000Z</time>
      </trkpt>
      <trkpt lat="43.41555" lon="1.32441">
        <ele>277.7</ele>
        <time>2015-10-07T12:39:7.000Z</time>
      </trkpt>
      <trkpt lat="43.41557" lon="1.32428">
        <ele>278.1</ele>
        <time>2015-10-07T12:39:15.000Z</time>
      </trkpt>
      <trkpt lat="43.41558" lon="1.32415">
        <ele>278.5</ele>
        <time>2015-10-07T12:39:23.000Z</time>
      </trkpt>
      <trkpt lat="43.4156" lon="1.32402">
        <ele>278.8</ele>
        <time>2015-10-07T12:39:31.000Z</time>
      </trkpt>
      <trkpt lat="43.41562" lon="1.32389">
        <ele>278.9</ele>
        <time>2015-10-07T12:39:39.000Z</time>
      </trkpt>
      <trkpt lat="43.41563" lon="1.32376">
        <ele>279.1</ele>
        <time>2015-10-07T12:39:47.000Z</time>
      </trkpt>
      <trkpt lat="43.41564" lon="1.32362">
        <ele>273.6</ele>
        <time>2015-10-07T12:46:21.000Z</time>
      </trkpt>
      <trkpt lat="43.41571" lon="1.32353">
        <ele>273.4</ele>
        <time>2015-10-07T12:46:35.000Z</time>
      </trkpt>
      <trkpt lat="43.41577" lon="1.32342">
        <ele>273.1</ele>
        <time>2015-10-07T12:46:46.000Z</time>
      </trkpt>
      <trkpt lat="43.41583" lon="1.32331">
        <ele>272.7</ele>
        <time>2015-10-07T12:46:55.000Z</time>
      </trkpt>
      <trkpt lat="43.41592" lon="1.32325">
        <ele>272.3</ele>
        <time>2015-10-07T12:47:6.000Z</time>
      </trkpt>
      <trkpt lat="43.41601" lon="1.32321">
        <ele>271.8</ele>
        <time>2015-10-07T12:47:15.000Z</time>
      </trkpt>
      <trkpt lat="43.41611" lon="1.3232">
        <ele>271.5</ele>
        <time>2015-10-07T12:47:22.000Z</time>
      </trkpt>
      <trkpt lat="43.41621" lon="1.32319">
        <ele>271.1</ele>
        <time>2015-10-07T12:47:31.000Z</time>
      </trkpt>
      <trkpt lat="43.41629" lon="1.32324">
        <ele>270.2</ele>
        <time>2015-10-07T12:47:40.000Z</time>
      </trkpt>
      <trkpt lat="43.41636" lon="1.32316">
        <ele>268.9</ele>
        <time>2015-10-07T12:47:53.000Z</time>
      </trkpt>
      <trkpt lat="43.4164" lon="1.32304">
        <ele>267.8</ele>
        <time>2015-10-07T12:48:2.000Z</time>
      </trkpt>
      <trkpt lat="43.41641" lon="1.3229">
        <ele>266.5</ele>
        <time>2015-10-07T12:48:10.000Z</time>
      </trkpt>
      <trkpt lat="43.41643" lon="1.32277">
        <ele>264.9</ele>
        <time>2015-10-07T12:48:19.000Z</time>
      </trkpt>
      <trkpt lat="43.41642" lon="1.32263">
        <ele>263.6</ele>
        <time>2015-10-07T12:48:26.000Z</time>
      </trkpt>
      <trkpt lat="43.41642" lon="1.32249">
        <ele>262.7</ele>
        <time>2015-10-07T12:48:34.000Z</time>
      </trkpt>
      <trkpt lat="43.41643" lon="1.32237">
        <ele>262</ele>
        <time>2015-10-07T12:48:42.000Z</time>
      </trkpt>
      <trkpt lat="43.41642" lon="1.32224">
        <ele>260.8</ele>
        <time>2015-10-07T12:48:50.000Z</time>
      </trkpt>
      <trkpt lat="43.41641" lon="1.32212">
        <ele>260</ele>
        <time>2015-10-07T12:48:57.000Z</time>
      </trkpt>
      <trkpt lat="43.4164" lon="1.32199">
        <ele>259</ele>
        <time>2015-10-07T12:49:5.000Z</time>
      </trkpt>
      <trkpt lat="43.41641" lon="1.32186">
        <ele>258.1</ele>
        <time>2015-10-07T12:49:14.000Z</time>
      </trkpt>
      <trkpt lat="43.41643" lon="1.32172">
        <ele>257.1</ele>
        <time>2015-10-07T12:49:22.000Z</time>
      </trkpt>
      <trkpt lat="43.41644" lon="1.32159">
        <ele>256.5</ele>
        <time>2015-10-07T12:49:29.000Z</time>
      </trkpt>
      <trkpt lat="43.41644" lon="1.32147">
        <ele>255.8</ele>
        <time>2015-10-07T12:49:37.000Z</time>
      </trkpt>
      <trkpt lat="43.41643" lon="1.32133">
        <ele>255</ele>
        <time>2015-10-07T12:49:44.000Z</time>
      </trkpt>
      <trkpt lat="43.41644" lon="1.3212">
        <ele>254</ele>
        <time>2015-10-07T12:49:53.000Z</time>
      </trkpt>
      <trkpt lat="43.41643" lon="1.32107">
        <ele>252.8</ele>
        <time>2015-10-07T12:50:0.000Z</time>
      </trkpt>
      <trkpt lat="43.41649" lon="1.32096">
        <ele>251.7</ele>
        <time>2015-10-07T12:50:7.000Z</time>
      </trkpt>
      <trkpt lat="43.41653" lon="1.32084">
        <ele>250.6</ele>
        <time>2015-10-07T12:50:14.000Z</time>
      </trkpt>
      <trkpt lat="43.41657" lon="1.32073">
        <ele>249.4</ele>
        <time>2015-10-07T12:50:23.000Z</time>
      </trkpt>
      <trkpt lat="43.41653" lon="1.3206">
        <ele>248.6</ele>
        <time>2015-10-07T12:50:29.000Z</time>
      </trkpt>
      <trkpt lat="43.41651" lon="1.32048">
        <ele>247.7</ele>
        <time>2015-10-07T12:50:35.000Z</time>
      </trkpt>
      <trkpt lat="43.41651" lon="1.32034">
        <ele>246.7</ele>
        <time>2015-10-07T12:50:44.000Z</time>
      </trkpt>
      <trkpt lat="43.41654" lon="1.32021">
        <ele>245.5</ele>
        <time>2015-10-07T12:50:53.000Z</time>
      </trkpt>
      <trkpt lat="43.4166" lon="1.32012">
        <ele>244.1</ele>
        <time>2015-10-07T12:51:3.000Z</time>
      </trkpt>
      <trkpt lat="43.41665" lon="1.32">
        <ele>242.1</ele>
        <time>2015-10-07T12:51:14.000Z</time>
      </trkpt>
      <trkpt lat="43.4167" lon="1.31989">
        <ele>240.3</ele>
        <time>2015-10-07T12:51:24.000Z</time>
      </trkpt>
      <trkpt lat="43.41678" lon="1.31981">
        <ele>238.6</ele>
        <time>2015-10-07T12:51:33.000Z</time>
      </trkpt>
      <trkpt lat="43.41683" lon="1.31969">
        <ele>237.2</ele>
        <time>2015-10-07T12:51:42.000Z</time>
      </trkpt>
      <trkpt lat="43.41688" lon="1.31958">
        <ele>235.6</ele>
        <time>2015-10-07T12:51:51.000Z</time>
      </trkpt>
      <trkpt lat="43.41693" lon="1.31946">
        <ele>234.2</ele>
        <time>2015-10-07T12:51:59.000Z</time>
      </trkpt>
      <trkpt lat="43.417" lon="1.31938">
        <ele>233.2</ele>
        <time>2015-10-07T12:52:5.000Z</time>
      </trkpt>
      <trkpt lat="43.41705" lon="1.31926">
        <ele>232</ele>
        <time>2015-10-07T12:52:14.000Z</time>
      </trkpt>
      <trkpt lat="43.41712" lon="1.31916">
        <ele>231</ele>
        <time>2015-10-07T12:52:24.000Z</time>
      </trkpt>
      <trkpt lat="43.41718" lon="1.31906">
        <ele>228.9</ele>
        <time>2015-10-07T12:52:35.000Z</time>
      </trkpt>
      <trkpt lat="43.41721" lon="1.31893">
        <ele>227</ele>
        <time>2015-10-07T12:52:46.000Z</time>
      </trkpt>
      <trkpt lat="43.41722" lon="1.3188">
        <ele>225.6</ele>
        <time>2015-10-07T12:52:55.000Z</time>
      </trkpt>
      <trkpt lat="43.41723" lon="1.31867">
        <ele>224.1</ele>
        <time>2015-10-07T12:53:3.000Z</time>
      </trkpt>
      <trkpt lat="43.4172" lon="1.31855">
        <ele>222.8</ele>
        <time>2015-10-07T12:53:11.000Z</time>
      </trkpt>
      <trkpt lat="43.41723" lon="1.31842">
        <ele>221.2</ele>
        <time>2015-10-07T12:53:20.000Z</time>
      </trkpt>
      <trkpt lat="43.41728" lon="1.3183">
        <ele>219.4</ele>
        <time>2015-10-07T12:53:28.000Z</time>
      </trkpt>
      <trkpt lat="43.41731" lon="1.31818">
        <ele>217.3</ele>
        <time>2015-10-07T12:53:36.000Z</time>
      </trkpt>
      <trkpt lat="43.41734" lon="1.31805">
        <ele>215.1</ele>
        <time>2015-10-07T12:53:47.000Z</time>
      </trkpt>
      <trkpt lat="43.41737" lon="1.31793">
        <ele>212.6</ele>
        <time>2015-10-07T12:53:57.000Z</time>
      </trkpt>
      <trkpt lat="43.41742" lon="1.31782">
        <ele>209.9</ele>
        <time>2015-10-07T12:54:7.000Z</time>
      </trkpt>
      <trkpt lat="43.41747" lon="1.3177">
        <ele>207</ele>
        <time>2015-10-07T12:54:16.000Z</time>
      </trkpt>
      <trkpt lat="43.41752" lon="1.31757">
        <ele>204.3</ele>
        <time>2015-10-07T12:54:26.000Z</time>
      </trkpt>
      <trkpt lat="43.41757" lon="1.31745">
        <ele>202.3</ele>
        <time>2015-10-07T12:54:34.000Z</time>
      </trkpt>
      <trkpt lat="43.41758" lon="1.31733">
        <ele>200.7</ele>
        <time>2015-10-07T12:54:42.000Z</time>
      </trkpt>
      <trkpt lat="43.41756" lon="1.3172">
        <ele>199.2</ele>
        <time>2015-10-07T12:54:50.000Z</time>
      </trkpt>
      <trkpt lat="43.41755" lon="1.31707">
        <ele>197.6</ele>
        <time>2015-10-07T12:54:58.000Z</time>
      </trkpt>
      <trkpt lat="43.41754" lon="1.31695">
        <ele>196.3</ele>
        <time>2015-10-07T12:55:5.000Z</time>
      </trkpt>
      <trkpt lat="43.41753" lon="1.31682">
        <ele>194.7</ele>
        <time>2015-10-07T12:55:14.000Z</time>
      </trkpt>
      <trkpt lat="43.41751" lon="1.31669">
        <ele>193.6</ele>
        <time>2015-10-07T12:55:22.000Z</time>
      </trkpt>
      <trkpt lat="43.41751" lon="1.31655">
        <ele>192.5</ele>
        <time>2015-10-07T12:55:31.000Z</time>
      </trkpt>
      <trkpt lat="43.41752" lon="1.31642">
        <ele>191.6</ele>
        <time>2015-10-07T12:55:39.000Z</time>
      </trkpt>
      <trkpt lat="43.41756" lon="1.31629">
        <ele>190.6</ele>
        <time>2015-10-07T12:55:47.000Z</time>
      </trkpt>
      <trkpt lat="43.41759" lon="1.31616">
        <ele>189.8</ele>
        <time>2015-10-07T12:55:55.000Z</time>
      </trkpt>
      <trkpt lat="43.41763" lon="1.31604">
        <ele>189.2</ele>
        <time>2015-10-07T12:56:3.000Z</time>
      </trkpt>
      <trkpt lat="43.41766" lon="1.31591">
        <ele>188.6</ele>
        <time>2015-10-07T12:56:12.000Z</time>
      </trkpt>
      <trkpt lat="43.4177" lon="1.31578">
        <ele>188.2</ele>
        <time>2015-10-07T12:56:20.000Z</time>
      </trkpt>
      <trkpt lat="43.41773" lon="1.31566">
        <ele>187.8</ele>
        <time>2015-10-07T12:56:28.000Z</time>
      </trkpt>
      <trkpt lat="43.41777" lon="1.31554">
        <ele>187.1</ele>
        <time>2015-10-07T12:56:37.000Z</time>
      </trkpt>
      <trkpt lat="43.41781" lon="1.31541">
        <ele>186.6</ele>
        <time>2015-10-07T12:56:46.000Z</time>
      </trkpt>
      <trkpt lat="43.41784" lon="1.31528">
        <ele>186.3</ele>
        <time>2015-10-07T12:56:55.000Z</time>
      </trkpt>
      <trkpt lat="43.41787" lon="1.31515">
        <ele>185.8</ele>
        <time>2015-10-07T12:57:3.000Z</time>
      </trkpt>
      <trkpt lat="43.4179" lon="1.31503">
        <ele>185.5</ele>
        <time>2015-10-07T12:57:11.000Z</time>
      </trkpt>
      <trkpt lat="43.41794" lon="1.31491">
        <ele>185.2</ele>
        <time>2015-10-07T12:57:19.000Z</time>
      </trkpt>
      <trkpt lat="43.41797" lon="1.31479">
        <ele>184.8</ele>
        <time>2015-10-07T12:57:27.000Z</time>
      </trkpt>
      <trkpt lat="43.418" lon="1.31466">
        <ele>184.5</ele>
        <time>2015-10-07T12:57:35.000Z</time>
      </trkpt>
      <trkpt lat="43.41803" lon="1.31454">
        <ele>184.1</ele>
        <time>2015-10-07T12:57:43.000Z</time>
      </trkpt>
      <trkpt lat="43.41806" lon="1.31441">
        <ele>183.8</ele>
        <time>2015-10-07T12:57:51.000Z</time>
      </trkpt>
      <trkpt lat="43.41808" lon="1.31428">
        <ele>183.4</ele>
        <time>2015-10-07T12:57:59.000Z</time>
      </trkpt>
      <trkpt lat="43.41811" lon="1.31416">
        <ele>182.8</ele>
        <time>2015-10-07T12:58:7.000Z</time>
      </trkpt>
      <trkpt lat="43.41815" lon="1.31404">
        <ele>182.5</ele>
        <time>2015-10-07T12:58:15.000Z</time>
      </trkpt>
      <trkpt lat="43.41817" lon="1.3139">
        <ele>182.2</ele>
        <time>2015-10-07T12:58:24.000Z</time>
      </trkpt>
      <trkpt lat="43.41818" lon="1.31377">
        <ele>181.6</ele>
        <time>2015-10-07T12:58:32.000Z</time>
      </trkpt>
      <trkpt lat="43.4182" lon="1.31363">
        <ele>181.3</ele>
        <time>2015-10-07T12:58:40.000Z</time>
      </trkpt>
      <trkpt lat="43.41821" lon="1.3135">
        <ele>181.1</ele>
        <time>2015-10-07T12:58:48.000Z</time>
      </trkpt>
      <trkpt lat="43.41824" lon="1.31337">
        <ele>180.8</ele>
        <time>2015-10-07T12:58:56.000Z</time>
      </trkpt>
      <trkpt lat="43.41826" lon="1.31325">
        <ele>180.5</ele>
        <time>2015-10-07T12:59:4.000Z</time>
      </trkpt>
      <trkpt lat="43.41829" lon="1.31312">
        <ele>180.4</ele>
        <time>2015-10-07T12:59:12.000Z</time>
      </trkpt>
      <trkpt lat="43.41832" lon="1.313">
        <ele>180.3</ele>
        <time>2015-10-07T12:59:20.000Z</time>
      </trkpt>
      <trkpt lat="43.41832" lon="1.31286">
        <ele>180.2</ele>
        <time>2015-10-07T12:59:29.000Z</time>
      </trkpt>
      <trkpt lat="43.41827" lon="1.31274">
        <ele>180.1</ele>
        <time>2015-10-07T12:59:39.000Z</time>
      </trkpt>
      <trkpt lat="43.41818" lon="1.31266">
        <ele>180</ele>
        <time>2015-10-07T12:59:47.000Z</time>
      </trkpt>
      <trkpt lat="43.41811" lon="1.31259">
        <ele>179.7</ele>
        <time>2015-10-07T12:59:54.000Z</time>
      </trkpt>
      <trkpt lat="43.41803" lon="1.3125">
        <ele>179.3</ele>
        <time>2015-10-07T13:00:2.000Z</time>
      </trkpt>
      <trkpt lat="43.41795" lon="1.31243">
        <ele>179.1</ele>
        <time>2015-10-07T13:00:9.000Z</time>
      </trkpt>
      <trkpt lat="43.41787" lon="1.31236">
        <ele>179</ele>
        <time>2015-10-07T13:00:17.000Z</time>
      </trkpt>
      <trkpt lat="43.41779" lon="1.31229">
        <ele>178.9</ele>
        <time>2015-10-07T13:00:25.000Z</time>
      </trkpt>
      <trkpt lat="43.4177" lon="1.31224">
        <ele>178.8</ele>
        <time>2015-10-07T13:00:33.000Z</time>
      </trkpt>
      <trkpt lat="43.41761" lon="1.31216">
        <ele>178.7</ele>
        <time>2015-10-07T13:00:41.000Z</time>
      </trkpt>
      <trkpt lat="43.41752" lon="1.31209">
        <ele>178.7</ele>
        <time>2015-10-07T13:00:49.000Z</time>
      </trkpt>
      <trkpt lat="43.41743" lon="1.31203">
        <ele>178.6</ele>
        <time>2015-10-07T13:00:57.000Z</time>
      </trkpt>
      <trkpt lat="43.41736" lon="1.31196">
        <ele>178.5</ele>
        <time>2015-10-07T13:01:4.000Z</time>
      </trkpt>
      <trkpt lat="43.41727" lon="1.31189">
        <ele>178</ele>
        <time>2015-10-07T13:01:12.000Z</time>
      </trkpt>
      <trkpt lat="43.41718" lon="1.31184">
        <ele>177.7</ele>
        <time>2015-10-07T13:01:20.000Z</time>
      </trkpt>
      <trkpt lat="43.41709" lon="1.31179">
        <ele>177.6</ele>
        <time>2015-10-07T13:01:28.000Z</time>
      </trkpt>
      <trkpt lat="43.41701" lon="1.31172">
        <ele>177.5</ele>
        <time>2015-10-07T13:01:35.000Z</time>
      </trkpt>
      <trkpt lat="43.41692" lon="1.31166">
        <ele>177.3</ele>
        <time>2015-10-07T13:01:43.000Z</time>
      </trkpt>
      <trkpt lat="43.41683" lon="1.31162">
        <ele>176.9</ele>
        <time>2015-10-07T13:01:51.000Z</time>
      </trkpt>
      <trkpt lat="43.41674" lon="1.31156">
        <ele>176.4</ele>
        <time>2015-10-07T13:01:59.000Z</time>
      </trkpt>
      <trkpt lat="43.41665" lon="1.3115">
        <ele>176.1</ele>
        <time>2015-10-07T13:02:7.000Z</time>
      </trkpt>
      <trkpt lat="43.41657" lon="1.31145">
        <ele>175.9</ele>
        <time>2015-10-07T13:02:15.000Z</time>
      </trkpt>
      <trkpt lat="43.41648" lon="1.31138">
        <ele>176</ele>
        <time>2015-10-07T13:02:25.000Z</time>
      </trkpt>
      <trkpt lat="43.4164" lon="1.31132">
        <ele>176.2</ele>
        <time>2015-10-07T13:02:34.000Z</time>
      </trkpt>
      <trkpt lat="43.41631" lon="1.31127">
        <ele>176.2</ele>
        <time>2015-10-07T13:02:41.000Z</time>
      </trkpt>
      <trkpt lat="43.41624" lon="1.3112">
        <ele>176.2</ele>
        <time>2015-10-07T13:02:48.000Z</time>
      </trkpt>
      <trkpt lat="43.41618" lon="1.3111">
        <ele>176.1</ele>
        <time>2015-10-07T13:02:55.000Z</time>
      </trkpt>
      <trkpt lat="43.41611" lon="1.31101">
        <ele>176.1</ele>
        <time>2015-10-07T13:03:2.000Z</time>
      </trkpt>
      <trkpt lat="43.41604" lon="1.31093">
        <ele>176.1</ele>
        <time>2015-10-07T13:03:9.000Z</time>
      </trkpt>
      <trkpt lat="43.41596" lon="1.31085">
        <ele>176</ele>
        <time>2015-10-07T13:03:17.000Z</time>
      </trkpt>
      <trkpt lat="43.41588" lon="1.31077">
        <ele>175.7</ele>
        <time>2015-10-07T13:03:25.000Z</time>
      </trkpt>
      <trkpt lat="43.41579" lon="1.31072">
        <ele>175.6</ele>
        <time>2015-10-07T13:03:32.000Z</time>
      </trkpt>
      <trkpt lat="43.41571" lon="1.31066">
        <ele>175.6</ele>
        <time>2015-10-07T13:03:39.000Z</time>
      </trkpt>
      <trkpt lat="43.41562" lon="1.31062">
        <ele>175.6</ele>
        <time>2015-10-07T13:03:46.000Z</time>
      </trkpt>
      <trkpt lat="43.41554" lon="1.31056">
        <ele>175.5</ele>
        <time>2015-10-07T13:03:54.000Z</time>
      </trkpt>
      <trkpt lat="43.41544" lon="1.31053">
        <ele>175.4</ele>
        <time>2015-10-07T13:04:2.000Z</time>
      </trkpt>
      <trkpt lat="43.41535" lon="1.31049">
        <ele>175.3</ele>
        <time>2015-10-07T13:04:9.000Z</time>
      </trkpt>
      <trkpt lat="43.41526" lon="1.31044">
        <ele>175.1</ele>
        <time>2015-10-07T13:04:18.000Z</time>
      </trkpt>
      <trkpt lat="43.41518" lon="1.31037">
        <ele>174.9</ele>
        <time>2015-10-07T13:04:26.000Z</time>
      </trkpt>
      <trkpt lat="43.4151" lon="1.31029">
        <ele>174.8</ele>
        <time>2015-10-07T13:04:32.000Z</time>
      </trkpt>
      <trkpt lat="43.41502" lon="1.31022">
        <ele>174.7</ele>
        <time>2015-10-07T13:04:39.000Z</time>
      </trkpt>
      <trkpt lat="43.41493" lon="1.31017">
        <ele>174.4</ele>
        <time>2015-10-07T13:04:48.000Z</time>
      </trkpt>
      <trkpt lat="43.41485" lon="1.3101">
        <ele>174.3</ele>
        <time>2015-10-07T13:04:56.000Z</time>
      </trkpt>
      <trkpt lat="43.41475" lon="1.31006">
        <ele>174.2</ele>
        <time>2015-10-07T13:05:4.000Z</time>
      </trkpt>
      <trkpt lat="43.41466" lon="1.31001">
        <ele>174.1</ele>
        <time>2015-10-07T13:05:12.000Z</time>
      </trkpt>
      <trkpt lat="43.41457" lon="1.30997">
        <ele>174</ele>
        <time>2015-10-07T13:05:20.000Z</time>
      </trkpt>
      <trkpt lat="43.41448" lon="1.30992">
        <ele>173.8</ele>
        <time>2015-10-07T13:05:27.000Z</time>
      </trkpt>
      <trkpt lat="43.4144" lon="1.30989">
        <ele>173.7</ele>
        <time>2015-10-07T13:05:34.000Z</time>
      </trkpt>
      <trkpt lat="43.4143" lon="1.30985">
        <ele>173.4</ele>
        <time>2015-10-07T13:05:42.000Z</time>
      </trkpt>
      <trkpt lat="43.41422" lon="1.3098">
        <ele>173.1</ele>
        <time>2015-10-07T13:05:50.000Z</time>
      </trkpt>
      <trkpt lat="43.41413" lon="1.30973">
        <ele>172.8</ele>
        <time>2015-10-07T13:05:58.000Z</time>
      </trkpt>
      <trkpt lat="43.41406" lon="1.30967">
        <ele>172.5</ele>
        <time>2015-10-07T13:06:5.000Z</time>
      </trkpt>
      <trkpt lat="43.41396" lon="1.30963">
        <ele>172.3</ele>
        <time>2015-10-07T13:06:13.000Z</time>
      </trkpt>
      <trkpt lat="43.41387" lon="1.30957">
        <ele>172.3</ele>
        <time>2015-10-07T13:06:21.000Z</time>
      </trkpt>
      <trkpt lat="43.41379" lon="1.3095">
        <ele>172.2</ele>
        <time>2015-10-07T13:06:29.000Z</time>
      </trkpt>
      <trkpt lat="43.4137" lon="1.30946">
        <ele>172.3</ele>
        <time>2015-10-07T13:06:37.000Z</time>
      </trkpt>
      <trkpt lat="43.41361" lon="1.30944">
        <ele>172.3</ele>
        <time>2015-10-07T13:06:44.000Z</time>
      </trkpt>
      <trkpt lat="43.41353" lon="1.30938">
        <ele>172.3</ele>
        <time>2015-10-07T13:06:52.000Z</time>
      </trkpt>
      <trkpt lat="43.41343" lon="1.30935">
        <ele>172.2</ele>
        <time>2015-10-07T13:07:0.000Z</time>
      </trkpt>
      <trkpt lat="43.41333" lon="1.30929">
        <ele>171.8</ele>
        <time>2015-10-07T13:07:8.000Z</time>
      </trkpt>
      <trkpt lat="43.41324" lon="1.30925">
        <ele>171.5</ele>
        <time>2015-10-07T13:07:16.000Z</time>
      </trkpt>
      <trkpt lat="43.41315" lon="1.30919">
        <ele>171.2</ele>
        <time>2015-10-07T13:07:24.000Z</time>
      </trkpt>
      <trkpt lat="43.41306" lon="1.30914">
        <ele>170.8</ele>
        <time>2015-10-07T13:07:31.000Z</time>
      </trkpt>
      <trkpt lat="43.41297" lon="1.30911">
        <ele>170.4</ele>
        <time>2015-10-07T13:07:39.000Z</time>
      </trkpt>
      <trkpt lat="43.41287" lon="1.3091">
        <ele>170.1</ele>
        <time>2015-10-07T13:07:47.000Z</time>
      </trkpt>
      <trkpt lat="43.41277" lon="1.30907">
        <ele>169.9</ele>
        <time>2015-10-07T13:07:56.000Z</time>
      </trkpt>
      <trkpt lat="43.41268" lon="1.30903">
        <ele>169.7</ele>
        <time>2015-10-07T13:08:4.000Z</time>
      </trkpt>
      <trkpt lat="43.4126" lon="1.30899">
        <ele>169.4</ele>
        <time>2015-10-07T13:08:12.000Z</time>
      </trkpt>
      <trkpt lat="43.41251" lon="1.30897">
        <ele>169.2</ele>
        <time>2015-10-07T13:08:20.000Z</time>
      </trkpt>
      <trkpt lat="43.41241" lon="1.30895">
        <ele>169.1</ele>
        <time>2015-10-07T13:08:27.000Z</time>
      </trkpt>
      <trkpt lat="43.41232" lon="1.3089">
        <ele>169.1</ele>
        <time>2015-10-07T13:08:34.000Z</time>
      </trkpt>
      <trkpt lat="43.41225" lon="1.3088">
        <ele>168.9</ele>
        <time>2015-10-07T13:08:42.000Z</time>
      </trkpt>
      <trkpt lat="43.41218" lon="1.30871">
        <ele>168.8</ele>
        <time>2015-10-07T13:08:49.000Z</time>
      </trkpt>
      <trkpt lat="43.41209" lon="1.30867">
        <ele>168.6</ele>
        <time>2015-10-07T13:08:57.000Z</time>
      </trkpt>
      <trkpt lat="43.412" lon="1.30861">
        <ele>168.4</ele>
        <time>2015-10-07T13:09:5.000Z</time>
      </trkpt>
      <trkpt lat="43.41192" lon="1.30856">
        <ele>168.2</ele>
        <time>2015-10-07T13:09:14.000Z</time>
      </trkpt>
      <trkpt lat="43.41182" lon="1.30853">
        <ele>168.2</ele>
        <time>2015-10-07T13:09:24.000Z</time>
      </trkpt>
      <trkpt lat="43.41173" lon="1.3085">
        <ele>168.3</ele>
        <time>2015-10-07T13:09:33.000Z</time>
      </trkpt>
      <trkpt lat="43.41163" lon="1.30847">
        <ele>168.4</ele>
        <time>2015-10-07T13:09:42.000Z</time>
      </trkpt>
      <trkpt lat="43.41153" lon="1.30845">
        <ele>168.4</ele>
        <time>2015-10-07T13:09:50.000Z</time>
      </trkpt>
      <trkpt lat="43.41144" lon="1.30843">
        <ele>168.4</ele>
        <time>2015-10-07T13:09:57.000Z</time>
      </trkpt>
      <trkpt lat="43.41135" lon="1.3084">
        <ele>168.4</ele>
        <time>2015-10-07T13:10:5.000Z</time>
      </trkpt>
      <trkpt lat="43.41125" lon="1.30837">
        <ele>168.5</ele>
        <time>2015-10-07T13:10:14.000Z</time>
      </trkpt>
      <trkpt lat="43.41116" lon="1.30836">
        <ele>168.5</ele>
        <time>2015-10-07T13:10:22.000Z</time>
      </trkpt>
      <trkpt lat="43.41106" lon="1.30836">
        <ele>168.5</ele>
        <time>2015-10-07T13:10:30.000Z</time>
      </trkpt>
      <trkpt lat="43.41098" lon="1.30843">
        <ele>168.5</ele>
        <time>2015-10-07T13:10:39.000Z</time>
      </trkpt>
      <trkpt lat="43.41095" lon="1.30856">
        <ele>168.6</ele>
        <time>2015-10-07T13:10:48.000Z</time>
      </trkpt>
      <trkpt lat="43.41093" lon="1.3087">
        <ele>168.6</ele>
        <time>2015-10-07T13:10:57.000Z</time>
      </trkpt>
      <trkpt lat="43.4109" lon="1.30883">
        <ele>168.9</ele>
        <time>2015-10-07T13:11:6.000Z</time>
      </trkpt>
      <trkpt lat="43.41087" lon="1.30897">
        <ele>169.3</ele>
        <time>2015-10-07T13:11:14.000Z</time>
      </trkpt>
      <trkpt lat="43.41087" lon="1.30911">
        <ele>169.7</ele>
        <time>2015-10-07T13:11:22.000Z</time>
      </trkpt>
      <trkpt lat="43.41085" lon="1.30923">
        <ele>170.2</ele>
        <time>2015-10-07T13:11:30.000Z</time>
      </trkpt>
      <trkpt lat="43.41082" lon="1.30936">
        <ele>170.8</ele>
        <time>2015-10-07T13:11:38.000Z</time>
      </trkpt>
      <trkpt lat="43.41079" lon="1.30948">
        <ele>171.1</ele>
        <time>2015-10-07T13:11:46.000Z</time>
      </trkpt>
      <trkpt lat="43.41076" lon="1.30961">
        <ele>171.4</ele>
        <time>2015-10-07T13:11:54.000Z</time>
      </trkpt>
      <trkpt lat="43.41067" lon="1.30968">
        <ele>171.7</ele>
        <time>2015-10-07T13:12:3.000Z</time>
      </trkpt>
      <trkpt lat="43.41057" lon="1.30969">
        <ele>171.9</ele>
        <time>2015-10-07T13:12:11.000Z</time>
      </trkpt>
      <trkpt lat="43.41048" lon="1.30968">
        <ele>172.1</ele>
        <time>2015-10-07T13:12:18.000Z</time>
      </trkpt>
      <trkpt lat="43.41039" lon="1.30967">
        <ele>172.2</ele>
        <time>2015-10-07T13:12:25.000Z</time>
      </trkpt>
      <trkpt lat="43.41029" lon="1.30966">
        <ele>172.4</ele>
        <time>2015-10-07T13:12:33.000Z</time>
      </trkpt>
      <trkpt lat="43.4102" lon="1.30965">
        <ele>172.5</ele>
        <time>2015-10-07T13:12:41.000Z</time>
      </trkpt>
      <trkpt lat="43.41009" lon="1.30965">
        <ele>172.4</ele>
        <time>2015-10-07T13:12:49.000Z</time>
      </trkpt>
      <trkpt lat="43.41" lon="1.30965">
        <ele>172.6</ele>
        <time>2015-10-07T13:12:57.000Z</time>
      </trkpt>
      <trkpt lat="43.4099" lon="1.30965">
        <ele>172.7</ele>
        <time>2015-10-07T13:13:5.000Z</time>
      </trkpt>
      <trkpt lat="43.4098" lon="1.30964">
        <ele>172.8</ele>
        <time>2015-10-07T13:13:14.000Z</time>
      </trkpt>
      <trkpt lat="43.4097" lon="1.30966">
        <ele>172.9</ele>
        <time>2015-10-07T13:13:24.000Z</time>
      </trkpt>
      <trkpt lat="43.40961" lon="1.30964">
        <ele>172.9</ele>
        <time>2015-10-07T13:13:31.000Z</time>
      </trkpt>
      <trkpt lat="43.40952" lon="1.30966">
        <ele>173</ele>
        <time>2015-10-07T13:13:39.000Z</time>
      </trkpt>
      <trkpt lat="43.40943" lon="1.30967">
        <ele>173</ele>
        <time>2015-10-07T13:13:48.000Z</time>
      </trkpt>
      <trkpt lat="43.40933" lon="1.30968">
        <ele>173</ele>
        <time>2015-10-07T13:13:56.000Z</time>
      </trkpt>
      <trkpt lat="43.40924" lon="1.30966">
        <ele>173</ele>
        <time>2015-10-07T13:14:4.000Z</time>
      </trkpt>
      <trkpt lat="43.40915" lon="1.30966">
        <ele>173.1</ele>
        <time>2015-10-07T13:14:12.000Z</time>
      </trkpt>
      <trkpt lat="43.40905" lon="1.30966">
        <ele>173.3</ele>
        <time>2015-10-07T13:14:21.000Z</time>
      </trkpt>
      <trkpt lat="43.40895" lon="1.30965">
        <ele>173.4</ele>
        <time>2015-10-07T13:14:29.000Z</time>
      </trkpt>
      <trkpt lat="43.40885" lon="1.30966">
        <ele>173.5</ele>
        <time>2015-10-07T13:14:37.000Z</time>
      </trkpt>
      <trkpt lat="43.40876" lon="1.30966">
        <ele>173.5</ele>
        <time>2015-10-07T13:14:45.000Z</time>
      </trkpt>
      <trkpt lat="43.40866" lon="1.30965">
        <ele>173.6</ele>
        <time>2015-10-07T13:14:54.000Z</time>
      </trkpt>
      <trkpt lat="43.40857" lon="1.30962">
        <ele>173.5</ele>
        <time>2015-10-07T13:15:0.000Z</time>
      </trkpt>
      <trkpt lat="43.40847" lon="1.30959">
        <ele>173.6</ele>
        <time>2015-10-07T13:15:8.000Z</time>
      </trkpt>
      <trkpt lat="43.40837" lon="1.30957">
        <ele>173.7</ele>
        <time>2015-10-07T13:15:16.000Z</time>
      </trkpt>
      <trkpt lat="43.40828" lon="1.30954">
        <ele>173.7</ele>
        <time>2015-10-07T13:15:24.000Z</time>
      </trkpt>
      <trkpt lat="43.40819" lon="1.30948">
        <ele>173.7</ele>
        <time>2015-10-07T13:15:33.000Z</time>
      </trkpt>
      <trkpt lat="43.40809" lon="1.30946">
        <ele>173.5</ele>
        <time>2015-10-07T13:15:40.000Z</time>
      </trkpt>
      <trkpt lat="43.408" lon="1.30941">
        <ele>173.2</ele>
        <time>2015-10-07T13:15:48.000Z</time>
      </trkpt>
      <trkpt lat="43.40792" lon="1.30935">
        <ele>173.2</ele>
        <time>2015-10-07T13:15:56.000Z</time>
      </trkpt>
      <trkpt lat="43.40784" lon="1.3093">
        <ele>173.2</ele>
        <time>2015-10-07T13:16:13.000Z</time>
      </trkpt>
      <trkpt lat="43.40776" lon="1.30923">
        <ele>173</ele>
        <time>2015-10-07T13:16:25.000Z</time>
      </trkpt>
      <trkpt lat="43.40767" lon="1.3092">
        <ele>171.6</ele>
        <time>2015-10-07T13:16:43.000Z</time>
      </trkpt>
      <trkpt lat="43.40758" lon="1.30919">
        <ele>170.6</ele>
        <time>2015-10-07T13:16:53.000Z</time>
      </trkpt>
      <trkpt lat="43.40748" lon="1.30918">
        <ele>169.6</ele>
        <time>2015-10-07T13:17:2.000Z</time>
      </trkpt>
      <trkpt lat="43.40739" lon="1.30915">
        <ele>168.5</ele>
        <time>2015-10-07T13:17:10.000Z</time>
      </trkpt>
      <trkpt lat="43.40731" lon="1.30908">
        <ele>167.3</ele>
        <time>2015-10-07T13:17:17.000Z</time>
      </trkpt>
      <trkpt lat="43.40724" lon="1.309">
        <ele>165.9</ele>
        <time>2015-10-07T13:17:25.000Z</time>
      </trkpt>
      <trkpt lat="43.40717" lon="1.30891">
        <ele>164.7</ele>
        <time>2015-10-07T13:17:34.000Z</time>
      </trkpt>
      <trkpt lat="43.40709" lon="1.30884">
        <ele>163.8</ele>
        <time>2015-10-07T13:17:42.000Z</time>
      </trkpt>
      <trkpt lat="43.407" lon="1.30882">
        <ele>162.5</ele>
        <time>2015-10-07T13:17:53.000Z</time>
      </trkpt>
      <trkpt lat="43.40691" lon="1.30878">
        <ele>162</ele>
        <time>2015-10-07T13:18:2.000Z</time>
      </trkpt>
      <trkpt lat="43.40682" lon="1.30873">
        <ele>161.8</ele>
        <time>2015-10-07T13:18:10.000Z</time>
      </trkpt>
      <trkpt lat="43.40673" lon="1.30868">
        <ele>162</ele>
        <time>2015-10-07T13:18:17.000Z</time>
      </trkpt>
      <trkpt lat="43.40663" lon="1.30867">
        <ele>162.1</ele>
        <time>2015-10-07T13:18:25.000Z</time>
      </trkpt>
      <trkpt lat="43.40654" lon="1.30865">
        <ele>162.3</ele>
        <time>2015-10-07T13:18:33.000Z</time>
      </trkpt>
      <trkpt lat="43.40644" lon="1.30864">
        <ele>162.5</ele>
        <time>2015-10-07T13:18:42.000Z</time>
      </trkpt>
      <trkpt lat="43.40635" lon="1.30864">
        <ele>162.6</ele>
        <time>2015-10-07T13:19:44.000Z</time>
      </trkpt>
      <trkpt lat="43.40626" lon="1.30867">
        <ele>162.6</ele>
        <time>2015-10-07T13:19:48.000Z</time>
      </trkpt>
      <trkpt lat="43.40616" lon="1.30867">
        <ele>162.7</ele>
        <time>2015-10-07T13:20:29.000Z</time>
      </trkpt>
      <trkpt lat="43.40606" lon="1.30867">
        <ele>162.7</ele>
        <time>2015-10-07T13:20:38.000Z</time>
      </trkpt>
      <trkpt lat="43.40597" lon="1.3087">
        <ele>162.7</ele>
        <time>2015-10-07T13:20:48.000Z</time>
      </trkpt>
      <trkpt lat="43.40588" lon="1.30872">
        <ele>162.7</ele>
        <time>2015-10-07T13:20:55.000Z</time>
      </trkpt>
      <trkpt lat="43.40579" lon="1.30872">
        <ele>162.7</ele>
        <time>2015-10-07T13:21:3.000Z</time>
      </trkpt>
      <trkpt lat="43.40569" lon="1.30873">
        <ele>162.7</ele>
        <time>2015-10-07T13:21:10.000Z</time>
      </trkpt>
      <trkpt lat="43.40559" lon="1.30873">
        <ele>162.7</ele>
        <time>2015-10-07T13:21:17.000Z</time>
      </trkpt>
      <trkpt lat="43.4055" lon="1.30875">
        <ele>162.4</ele>
        <time>2015-10-07T13:21:25.000Z</time>
      </trkpt>
      <trkpt lat="43.40541" lon="1.30877">
        <ele>162.3</ele>
        <time>2015-10-07T13:21:32.000Z</time>
      </trkpt>
      <trkpt lat="43.40532" lon="1.30881">
        <ele>162.4</ele>
        <time>2015-10-07T13:21:39.000Z</time>
      </trkpt>
      <trkpt lat="43.40523" lon="1.30884">
        <ele>162.4</ele>
        <time>2015-10-07T13:21:47.000Z</time>
      </trkpt>
      <trkpt lat="43.40514" lon="1.30884">
        <ele>162.3</ele>
        <time>2015-10-07T13:21:55.000Z</time>
      </trkpt>
      <trkpt lat="43.40504" lon="1.30884">
        <ele>162.2</ele>
        <time>2015-10-07T13:22:3.000Z</time>
      </trkpt>
      <trkpt lat="43.40494" lon="1.30883">
        <ele>162.1</ele>
        <time>2015-10-07T13:22:12.000Z</time>
      </trkpt>
      <trkpt lat="43.40485" lon="1.30883">
        <ele>162.1</ele>
        <time>2015-10-07T13:22:19.000Z</time>
      </trkpt>
      <trkpt lat="43.40475" lon="1.3088">
        <ele>162.1</ele>
        <time>2015-10-07T13:22:28.000Z</time>
      </trkpt>
      <trkpt lat="43.40465" lon="1.30881">
        <ele>161.9</ele>
        <time>2015-10-07T13:22:36.000Z</time>
      </trkpt>
      <trkpt lat="43.40456" lon="1.30881">
        <ele>161.8</ele>
        <time>2015-10-07T13:22:43.000Z</time>
      </trkpt>
      <trkpt lat="43.40446" lon="1.30881">
        <ele>161.8</ele>
        <time>2015-10-07T13:22:50.000Z</time>
      </trkpt>
      <trkpt lat="43.40437" lon="1.3088">
        <ele>162</ele>
        <time>2015-10-07T13:22:59.000Z</time>
      </trkpt>
      <trkpt lat="43.40428" lon="1.30881">
        <ele>162.1</ele>
        <time>2015-10-07T13:23:6.000Z</time>
      </trkpt>
      <trkpt lat="43.40419" lon="1.30884">
        <ele>162.1</ele>
        <time>2015-10-07T13:23:13.000Z</time>
      </trkpt>
      <trkpt lat="43.4041" lon="1.30882">
        <ele>162.1</ele>
        <time>2015-10-07T13:23:20.000Z</time>
      </trkpt>
      <trkpt lat="43.404" lon="1.30878">
        <ele>162.1</ele>
        <time>2015-10-07T13:23:28.000Z</time>
      </trkpt>
      <trkpt lat="43.40391" lon="1.30876">
        <ele>162.1</ele>
        <time>2015-10-07T13:23:36.000Z</time>
      </trkpt>
      <trkpt lat="43.40381" lon="1.30877">
        <ele>162.1</ele>
        <time>2015-10-07T13:23:46.000Z</time>
      </trkpt>
      <trkpt lat="43.40372" lon="1.30881">
        <ele>162.1</ele>
        <time>2015-10-07T13:23:54.000Z</time>
      </trkpt>
      <trkpt lat="43.40363" lon="1.30881">
        <ele>162.2</ele>
        <time>2015-10-07T13:24:1.000Z</time>
      </trkpt>
      <trkpt lat="43.40353" lon="1.30877">
        <ele>162.2</ele>
        <time>2015-10-07T13:24:9.000Z</time>
      </trkpt>
      <trkpt lat="43.40344" lon="1.30873">
        <ele>162.1</ele>
        <time>2015-10-07T13:24:18.000Z</time>
      </trkpt>
      <trkpt lat="43.40335" lon="1.30869">
        <ele>162.1</ele>
        <time>2015-10-07T13:24:26.000Z</time>
      </trkpt>
      <trkpt lat="43.40325" lon="1.30867">
        <ele>162.1</ele>
        <time>2015-10-07T13:24:35.000Z</time>
      </trkpt>
      <trkpt lat="43.40316" lon="1.30864">
        <ele>162.2</ele>
        <time>2015-10-07T13:24:42.000Z</time>
      </trkpt>
      <trkpt lat="43.40307" lon="1.3086">
        <ele>162.3</ele>
        <time>2015-10-07T13:24:49.000Z</time>
      </trkpt>
      <trkpt lat="43.40297" lon="1.3086">
        <ele>162.4</ele>
        <time>2015-10-07T13:24:56.000Z</time>
      </trkpt>
      <trkpt lat="43.40288" lon="1.30858">
        <ele>162.5</ele>
        <time>2015-10-07T13:25:3.000Z</time>
      </trkpt>
      <trkpt lat="43.40279" lon="1.30856">
        <ele>162.5</ele>
        <time>2015-10-07T13:25:12.000Z</time>
      </trkpt>
      <trkpt lat="43.4027" lon="1.30854">
        <ele>162.5</ele>
        <time>2015-10-07T13:25:21.000Z</time>
      </trkpt>
      <trkpt lat="43.40261" lon="1.30853">
        <ele>162.4</ele>
        <time>2015-10-07T13:25:26.000Z</time>
      </trkpt>
      <trkpt lat="43.40252" lon="1.30851">
        <ele>162.4</ele>
        <time>2015-10-07T13:25:33.000Z</time>
      </trkpt>
      <trkpt lat="43.40242" lon="1.30849">
        <ele>162.4</ele>
        <time>2015-10-07T13:25:41.000Z</time>
      </trkpt>
      <trkpt lat="43.40233" lon="1.30845">
        <ele>162.4</ele>
        <time>2015-10-07T13:25:49.000Z</time>
      </trkpt>
      <trkpt lat="43.40223" lon="1.30845">
        <ele>162.3</ele>
        <time>2015-10-07T13:25:55.000Z</time>
      </trkpt>
      <trkpt lat="43.40213" lon="1.30847">
        <ele>162.3</ele>
        <time>2015-10-07T13:26:2.000Z</time>
      </trkpt>
      <trkpt lat="43.40204" lon="1.30846">
        <ele>162.4</ele>
        <time>2015-10-07T13:26:10.000Z</time>
      </trkpt>
      <trkpt lat="43.40195" lon="1.30844">
        <ele>162.4</ele>
        <time>2015-10-07T13:26:18.000Z</time>
      </trkpt>
      <trkpt lat="43.40186" lon="1.30844">
        <ele>162.4</ele>
        <time>2015-10-07T13:26:27.000Z</time>
      </trkpt>
      <trkpt lat="43.40176" lon="1.30845">
        <ele>162.4</ele>
        <time>2015-10-07T13:26:34.000Z</time>
      </trkpt>
      <trkpt lat="43.40167" lon="1.30841">
        <ele>162.5</ele>
        <time>2015-10-07T13:26:41.000Z</time>
      </trkpt>
      <trkpt lat="43.40157" lon="1.30837">
        <ele>162.6</ele>
        <time>2015-10-07T13:26:48.000Z</time>
      </trkpt>
      <trkpt lat="43.40148" lon="1.30835">
        <ele>162.6</ele>
        <time>2015-10-07T13:26:56.000Z</time>
      </trkpt>
      <trkpt lat="43.40138" lon="1.30833">
        <ele>162.7</ele>
        <time>2015-10-07T13:27:2.000Z</time>
      </trkpt>
      <trkpt lat="43.4013" lon="1.30827">
        <ele>162.7</ele>
        <time>2015-10-07T13:27:9.000Z</time>
      </trkpt>
      <trkpt lat="43.40121" lon="1.30824">
        <ele>162.9</ele>
        <time>2015-10-07T13:27:18.000Z</time>
      </trkpt>
      <trkpt lat="43.40111" lon="1.30824">
        <ele>163.1</ele>
        <time>2015-10-07T13:27:28.000Z</time>
      </trkpt>
      <trkpt lat="43.40101" lon="1.30822">
        <ele>163.2</ele>
        <time>2015-10-07T13:27:35.000Z</time>
      </trkpt>
      <trkpt lat="43.40092" lon="1.30822">
        <ele>163.4</ele>
        <time>2015-10-07T13:27:44.000Z</time>
      </trkpt>
      <trkpt lat="43.40086" lon="1.30832">
        <ele>163.6</ele>
        <time>2015-10-07T13:27:51.000Z</time>
      </trkpt>
      <trkpt lat="43.40084" lon="1.30845">
        <ele>163.8</ele>
        <time>2015-10-07T13:27:58.000Z</time>
      </trkpt>
      <trkpt lat="43.40077" lon="1.30855">
        <ele>164.1</ele>
        <time>2015-10-07T13:28:5.000Z</time>
      </trkpt>
      <trkpt lat="43.40067" lon="1.30858">
        <ele>164.4</ele>
        <time>2015-10-07T13:28:16.000Z</time>
      </trkpt>
      <trkpt lat="43.40058" lon="1.30857">
        <ele>164.6</ele>
        <time>2015-10-07T13:28:24.000Z</time>
      </trkpt>
      <trkpt lat="43.4005" lon="1.30861">
        <ele>164.8</ele>
        <time>2015-10-07T13:28:32.000Z</time>
      </trkpt>
      <trkpt lat="43.40041" lon="1.30865">
        <ele>165.2</ele>
        <time>2015-10-07T13:28:39.000Z</time>
      </trkpt>
      <trkpt lat="43.40032" lon="1.30866">
        <ele>165.8</ele>
        <time>2015-10-07T13:28:49.000Z</time>
      </trkpt>
      <trkpt lat="43.40023" lon="1.30867">
        <ele>168.3</ele>
        <time>2015-10-07T13:29:7.000Z</time>
      </trkpt>
      <trkpt lat="43.40014" lon="1.30871">
        <ele>173.6</ele>
        <time>2015-10-07T13:31:11.000Z</time>
      </trkpt>
      <trkpt lat="43.40005" lon="1.30873">
        <ele>174.3</ele>
        <time>2015-10-07T13:31:25.000Z</time>
      </trkpt>
      <trkpt lat="43.39998" lon="1.30864">
        <ele>176</ele>
        <time>2015-10-07T13:31:39.000Z</time>
      </trkpt>
      <trkpt lat="43.3999" lon="1.30858">
        <ele>178.9</ele>
        <time>2015-10-07T13:31:59.000Z</time>
      </trkpt>
      <trkpt lat="43.39981" lon="1.30855">
        <ele>180.1</ele>
        <time>2015-10-07T13:32:12.000Z</time>
      </trkpt>
      <trkpt lat="43.39972" lon="1.30859">
        <ele>180.2</ele>
        <time>2015-10-07T13:32:22.000Z</time>
      </trkpt>
      <trkpt lat="43.39963" lon="1.30862">
        <ele>180.3</ele>
        <time>2015-10-07T13:32:31.000Z</time>
      </trkpt>
      <trkpt lat="43.39954" lon="1.30866">
        <ele>180.4</ele>
        <time>2015-10-07T13:32:39.000Z</time>
      </trkpt>
      <trkpt lat="43.39947" lon="1.30874">
        <ele>180.5</ele>
        <time>2015-10-07T13:32:50.000Z</time>
      </trkpt>
      <trkpt lat="43.39938" lon="1.30881">
        <ele>180.5</ele>
        <time>2015-10-07T13:32:59.000Z</time>
      </trkpt>
      <trkpt lat="43.39928" lon="1.30883">
        <ele>180.4</ele>
        <time>2015-10-07T13:33:7.000Z</time>
      </trkpt>
      <trkpt lat="43.39921" lon="1.30875">
        <ele>180</ele>
        <time>2015-10-07T13:33:15.000Z</time>
      </trkpt>
      <trkpt lat="43.39916" lon="1.30863">
        <ele>179.8</ele>
        <time>2015-10-07T13:33:24.000Z</time>
      </trkpt>
      <trkpt lat="43.39907" lon="1.3086">
        <ele>179.6</ele>
        <time>2015-10-07T13:33:36.000Z</time>
      </trkpt>
      <trkpt lat="43.39898" lon="1.30858">
        <ele>179.3</ele>
        <time>2015-10-07T13:33:46.000Z</time>
      </trkpt>
      <trkpt lat="43.39889" lon="1.30865">
        <ele>178.7</ele>
        <time>2015-10-07T13:33:57.000Z</time>
      </trkpt>
      <trkpt lat="43.3988" lon="1.30868">
        <ele>178.4</ele>
        <time>2015-10-07T13:34:7.000Z</time>
      </trkpt>
      <trkpt lat="43.39871" lon="1.30864">
        <ele>178.3</ele>
        <time>2015-10-07T13:34:15.000Z</time>
      </trkpt>
      <trkpt lat="43.39864" lon="1.30855">
        <ele>178.1</ele>
        <time>2015-10-07T13:34:27.000Z</time>
      </trkpt>
      <trkpt lat="43.39858" lon="1.30845">
        <ele>178.1</ele>
        <time>2015-10-07T13:34:39.000Z</time>
      </trkpt>
      <trkpt lat="43.39852" lon="1.30834">
        <ele>178.3</ele>
        <time>2015-10-07T13:34:49.000Z</time>
      </trkpt>
      <trkpt lat="43.39845" lon="1.30825">
        <ele>178.5</ele>
        <time>2015-10-07T13:34:59.000Z</time>
      </trkpt>
      <trkpt lat="43.39837" lon="1.30819">
        <ele>178.1</ele>
        <time>2015-10-07T13:35:10.000Z</time>
      </trkpt>
      <trkpt lat="43.39827" lon="1.30816">
        <ele>177.6</ele>
        <time>2015-10-07T13:35:20.000Z</time>
      </trkpt>
      <trkpt lat="43.39818" lon="1.30813">
        <ele>176.4</ele>
        <time>2015-10-07T13:35:30.000Z</time>
      </trkpt>
      <trkpt lat="43.39809" lon="1.30811">
        <ele>175.7</ele>
        <time>2015-10-07T13:35:39.000Z</time>
      </trkpt>
      <trkpt lat="43.39801" lon="1.30803">
        <ele>175.4</ele>
        <time>2015-10-07T13:35:53.000Z</time>
      </trkpt>
      <trkpt lat="43.39794" lon="1.30796">
        <ele>174.7</ele>
        <time>2015-10-07T13:36:3.000Z</time>
      </trkpt>
      <trkpt lat="43.39788" lon="1.30786">
        <ele>173.4</ele>
        <time>2015-10-07T13:36:15.000Z</time>
      </trkpt>
      <trkpt lat="43.39781" lon="1.30777">
        <ele>171.6</ele>
        <time>2015-10-07T13:36:31.000Z</time>
      </trkpt>
      <trkpt lat="43.39772" lon="1.30773">
        <ele>170.4</ele>
        <time>2015-10-07T13:36:42.000Z</time>
      </trkpt>
      <trkpt lat="43.39763" lon="1.30775">
        <ele>169.7</ele>
        <time>2015-10-07T13:36:58.000Z</time>
      </trkpt>
      <trkpt lat="43.39755" lon="1.3077">
        <ele>169.9</ele>
        <time>2015-10-07T13:37:7.000Z</time>
      </trkpt>
      <trkpt lat="43.39755" lon="1.30757">
        <ele>169.7</ele>
        <time>2015-10-07T13:37:19.000Z</time>
      </trkpt>
      <trkpt lat="43.39749" lon="1.30748">
        <ele>169.4</ele>
        <time>2015-10-07T13:37:30.000Z</time>
      </trkpt>
      <trkpt lat="43.39741" lon="1.30743">
        <ele>169.5</ele>
        <time>2015-10-07T13:37:42.000Z</time>
      </trkpt>
      <trkpt lat="43.3973" lon="1.30741">
        <ele>172.2</ele>
        <time>2015-10-07T13:38:4.000Z</time>
      </trkpt>
      <trkpt lat="43.3972" lon="1.3074">
        <ele>174.5</ele>
        <time>2015-10-07T13:38:20.000Z</time>
      </trkpt>
      <trkpt lat="43.39713" lon="1.30731">
        <ele>176.4</ele>
        <time>2015-10-07T13:38:32.000Z</time>
      </trkpt>
      <trkpt lat="43.39706" lon="1.30724">
        <ele>177.7</ele>
        <time>2015-10-07T13:38:42.000Z</time>
      </trkpt>
      <trkpt lat="43.39696" lon="1.30721">
        <ele>178.5</ele>
        <time>2015-10-07T13:38:52.000Z</time>
      </trkpt>
      <trkpt lat="43.39687" lon="1.30722">
        <ele>179</ele>
        <time>2015-10-07T13:39:5.000Z</time>
      </trkpt>
      <trkpt lat="43.39678" lon="1.30721">
        <ele>178.3</ele>
        <time>2015-10-07T13:39:17.000Z</time>
      </trkpt>
      <trkpt lat="43.39672" lon="1.30708">
        <ele>177.9</ele>
        <time>2015-10-07T13:39:27.000Z</time>
      </trkpt>
      <trkpt lat="43.3967" lon="1.30696">
        <ele>177.8</ele>
        <time>2015-10-07T13:39:34.000Z</time>
      </trkpt>
      <trkpt lat="43.39673" lon="1.30684">
        <ele>177.6</ele>
        <time>2015-10-07T13:39:47.000Z</time>
      </trkpt>
      <trkpt lat="43.39673" lon="1.3067">
        <ele>178.1</ele>
        <time>2015-10-07T13:39:55.000Z</time>
      </trkpt>
      <trkpt lat="43.39666" lon="1.30661">
        <ele>178.5</ele>
        <time>2015-10-07T13:40:5.000Z</time>
      </trkpt>
      <trkpt lat="43.3966" lon="1.30651">
        <ele>178.5</ele>
        <time>2015-10-07T13:40:16.000Z</time>
      </trkpt>
      <trkpt lat="43.39653" lon="1.30643">
        <ele>176.9</ele>
        <time>2015-10-07T13:40:31.000Z</time>
      </trkpt>
      <trkpt lat="43.39645" lon="1.30635">
        <ele>175.5</ele>
        <time>2015-10-07T13:40:42.000Z</time>
      </trkpt>
      <trkpt lat="43.39638" lon="1.30627">
        <ele>174.9</ele>
        <time>2015-10-07T13:40:52.000Z</time>
      </trkpt>
      <trkpt lat="43.3963" lon="1.30621">
        <ele>175.5</ele>
        <time>2015-10-07T13:41:2.000Z</time>
      </trkpt>
      <trkpt lat="43.39621" lon="1.30616">
        <ele>176.6</ele>
        <time>2015-10-07T13:41:11.000Z</time>
      </trkpt>
      <trkpt lat="43.39617" lon="1.30604">
        <ele>177.9</ele>
        <time>2015-10-07T13:41:24.000Z</time>
      </trkpt>
      <trkpt lat="43.39613" lon="1.30592">
        <ele>178.4</ele>
        <time>2015-10-07T13:41:34.000Z</time>
      </trkpt>
      <trkpt lat="43.39609" lon="1.30581">
        <ele>178.5</ele>
        <time>2015-10-07T13:41:42.000Z</time>
      </trkpt>
      <trkpt lat="43.39603" lon="1.3057">
        <ele>178.4</ele>
        <time>2015-10-07T13:41:51.000Z</time>
      </trkpt>
      <trkpt lat="43.39605" lon="1.30555">
        <ele>177.7</ele>
        <time>2015-10-07T13:42:1.000Z</time>
      </trkpt>
      <trkpt lat="43.39601" lon="1.30543">
        <ele>176.4</ele>
        <time>2015-10-07T13:42:12.000Z</time>
      </trkpt>
      <trkpt lat="43.39597" lon="1.30532">
        <ele>176</ele>
        <time>2015-10-07T13:42:18.000Z</time>
      </trkpt>
      <trkpt lat="43.39595" lon="1.30519">
        <ele>175.6</ele>
        <time>2015-10-07T13:42:26.000Z</time>
      </trkpt>
      <trkpt lat="43.39596" lon="1.30507">
        <ele>175.4</ele>
        <time>2015-10-07T13:42:33.000Z</time>
      </trkpt>
      <trkpt lat="43.39594" lon="1.30494">
        <ele>174.9</ele>
        <time>2015-10-07T13:42:41.000Z</time>
      </trkpt>
      <trkpt lat="43.39591" lon="1.30481">
        <ele>174.1</ele>
        <time>2015-10-07T13:42:49.000Z</time>
      </trkpt>
      <trkpt lat="43.39589" lon="1.30468">
        <ele>173.3</ele>
        <time>2015-10-07T13:42:58.000Z</time>
      </trkpt>
      <trkpt lat="43.39587" lon="1.30455">
        <ele>172.7</ele>
        <time>2015-10-07T13:43:9.000Z</time>
      </trkpt>
      <trkpt lat="43.39583" lon="1.30444">
        <ele>172.4</ele>
        <time>2015-10-07T13:43:17.000Z</time>
      </trkpt>
      <trkpt lat="43.39581" lon="1.30431">
        <ele>172.2</ele>
        <time>2015-10-07T13:43:25.000Z</time>
      </trkpt>
      <trkpt lat="43.39577" lon="1.30418">
        <ele>172.2</ele>
        <time>2015-10-07T13:43:34.000Z</time>
      </trkpt>
      <trkpt lat="43.39574" lon="1.30406">
        <ele>172.3</ele>
        <time>2015-10-07T13:43:42.000Z</time>
      </trkpt>
      <trkpt lat="43.3957" lon="1.30394">
        <ele>172.4</ele>
        <time>2015-10-07T13:43:50.000Z</time>
      </trkpt>
      <trkpt lat="43.39567" lon="1.30382">
        <ele>172.4</ele>
        <time>2015-10-07T13:43:57.000Z</time>
      </trkpt>
      <trkpt lat="43.39563" lon="1.3037">
        <ele>172.5</ele>
        <time>2015-10-07T13:44:4.000Z</time>
      </trkpt>
      <trkpt lat="43.39557" lon="1.30361">
        <ele>172.6</ele>
        <time>2015-10-07T13:44:13.000Z</time>
      </trkpt>
      <trkpt lat="43.39558" lon="1.30347">
        <ele>172.6</ele>
        <time>2015-10-07T13:44:25.000Z</time>
      </trkpt>
      <trkpt lat="43.39564" lon="1.30337">
        <ele>172.7</ele>
        <time>2015-10-07T13:44:35.000Z</time>
      </trkpt>
      <trkpt lat="43.39566" lon="1.30324">
        <ele>172.7</ele>
        <time>2015-10-07T13:44:43.000Z</time>
      </trkpt>
      <trkpt lat="43.39569" lon="1.30312">
        <ele>172.7</ele>
        <time>2015-10-07T13:44:50.000Z</time>
      </trkpt>
      <trkpt lat="43.3957" lon="1.30298">
        <ele>172.7</ele>
        <time>2015-10-07T13:44:56.000Z</time>
      </trkpt>
      <trkpt lat="43.39569" lon="1.30285">
        <ele>172.5</ele>
        <time>2015-10-07T13:45:4.000Z</time>
      </trkpt>
      <trkpt lat="43.39567" lon="1.30272">
        <ele>172.4</ele>
        <time>2015-10-07T13:45:18.000Z</time>
      </trkpt>
      <trkpt lat="43.39568" lon="1.30259">
        <ele>172.5</ele>
        <time>2015-10-07T13:45:28.000Z</time>
      </trkpt>
      <trkpt lat="43.39572" lon="1.30247">
        <ele>172.6</ele>
        <time>2015-10-07T13:45:37.000Z</time>
      </trkpt>
      <trkpt lat="43.39575" lon="1.30235">
        <ele>173</ele>
        <time>2015-10-07T13:45:47.000Z</time>
      </trkpt>
      <trkpt lat="43.39579" lon="1.30222">
        <ele>173.2</ele>
        <time>2015-10-07T13:45:56.000Z</time>
      </trkpt>
      <trkpt lat="43.39586" lon="1.30214">
        <ele>173.7</ele>
        <time>2015-10-07T13:46:7.000Z</time>
      </trkpt>
      <trkpt lat="43.39591" lon="1.30204">
        <ele>174.1</ele>
        <time>2015-10-07T13:46:15.000Z</time>
      </trkpt>
      <trkpt lat="43.39599" lon="1.30196">
        <ele>174.3</ele>
        <time>2015-10-07T13:46:24.000Z</time>
      </trkpt>
      <trkpt lat="43.39607" lon="1.3019">
        <ele>174.4</ele>
        <time>2015-10-07T13:46:36.000Z</time>
      </trkpt>
      <trkpt lat="43.39618" lon="1.30187">
        <ele>174.4</ele>
        <time>2015-10-07T13:46:44.000Z</time>
      </trkpt>
      <trkpt lat="43.39628" lon="1.30184">
        <ele>174.4</ele>
        <time>2015-10-07T13:46:50.000Z</time>
      </trkpt>
      <trkpt lat="43.39629" lon="1.30171">
        <ele>174.2</ele>
        <time>2015-10-07T13:46:59.000Z</time>
      </trkpt>
      <trkpt lat="43.3963" lon="1.30159">
        <ele>173.9</ele>
        <time>2015-10-07T13:47:7.000Z</time>
      </trkpt>
      <trkpt lat="43.39629" lon="1.30145">
        <ele>173.8</ele>
        <time>2015-10-07T13:47:14.000Z</time>
      </trkpt>
      <trkpt lat="43.39628" lon="1.3013">
        <ele>173.8</ele>
        <time>2015-10-07T13:47:19.000Z</time>
      </trkpt>
      <trkpt lat="43.39622" lon="1.3012">
        <ele>173.8</ele>
        <time>2015-10-07T13:47:26.000Z</time>
      </trkpt>
      <trkpt lat="43.39618" lon="1.30109">
        <ele>173.9</ele>
        <time>2015-10-07T13:47:33.000Z</time>
      </trkpt>
      <trkpt lat="43.39616" lon="1.30095">
        <ele>174.1</ele>
        <time>2015-10-07T13:47:40.000Z</time>
      </trkpt>
      <trkpt lat="43.39613" lon="1.30082">
        <ele>174.2</ele>
        <time>2015-10-07T13:47:46.000Z</time>
      </trkpt>
      <trkpt lat="43.39612" lon="1.30069">
        <ele>174.4</ele>
        <time>2015-10-07T13:47:53.000Z</time>
      </trkpt>
      <trkpt lat="43.3961" lon="1.30055">
        <ele>174.5</ele>
        <time>2015-10-07T13:47:59.000Z</time>
      </trkpt>
      <trkpt lat="43.39609" lon="1.30041">
        <ele>174.7</ele>
        <time>2015-10-07T13:48:5.000Z</time>
      </trkpt>
      <trkpt lat="43.39606" lon="1.30028">
        <ele>174.9</ele>
        <time>2015-10-07T13:48:12.000Z</time>
      </trkpt>
      <trkpt lat="43.39602" lon="1.30015">
        <ele>175.1</ele>
        <time>2015-10-07T13:48:21.000Z</time>
      </trkpt>
      <trkpt lat="43.39598" lon="1.30003">
        <ele>175.2</ele>
        <time>2015-10-07T13:48:29.000Z</time>
      </trkpt>
      <trkpt lat="43.39597" lon="1.29991">
        <ele>175.3</ele>
        <time>2015-10-07T13:48:37.000Z</time>
      </trkpt>
      <trkpt lat="43.39594" lon="1.29978">
        <ele>175.3</ele>
        <time>2015-10-07T13:48:45.000Z</time>
      </trkpt>
      <trkpt lat="43.39591" lon="1.29966">
        <ele>175.3</ele>
        <time>2015-10-07T13:48:54.000Z</time>
      </trkpt>
      <trkpt lat="43.39589" lon="1.29953">
        <ele>175.3</ele>
        <time>2015-10-07T13:49:2.000Z</time>
      </trkpt>
      <trkpt lat="43.39586" lon="1.29941">
        <ele>175.4</ele>
        <time>2015-10-07T13:49:10.000Z</time>
      </trkpt>
      <trkpt lat="43.39581" lon="1.29931">
        <ele>175.4</ele>
        <time>2015-10-07T13:49:18.000Z</time>
      </trkpt>
      <trkpt lat="43.39576" lon="1.2992">
        <ele>175.2</ele>
        <time>2015-10-07T13:49:26.000Z</time>
      </trkpt>
      <trkpt lat="43.39567" lon="1.29917">
        <ele>175.1</ele>
        <time>2015-10-07T13:49:35.000Z</time>
      </trkpt>
      <trkpt lat="43.39556" lon="1.29916">
        <ele>175.1</ele>
        <time>2015-10-07T13:49:42.000Z</time>
      </trkpt>
      <trkpt lat="43.39547" lon="1.29919">
        <ele>175.2</ele>
        <time>2015-10-07T13:49:50.000Z</time>
      </trkpt>
      <trkpt lat="43.39538" lon="1.29924">
        <ele>175.3</ele>
        <time>2015-10-07T13:49:58.000Z</time>
      </trkpt>
      <trkpt lat="43.3953" lon="1.29932">
        <ele>175.6</ele>
        <time>2015-10-07T13:50:7.000Z</time>
      </trkpt>
      <trkpt lat="43.3952" lon="1.29932">
        <ele>176</ele>
        <time>2015-10-07T13:50:21.000Z</time>
      </trkpt>
      <trkpt lat="43.39511" lon="1.29931">
        <ele>175.9</ele>
        <time>2015-10-07T13:50:36.000Z</time>
      </trkpt>
      <trkpt lat="43.39511" lon="1.2993">
        <ele>176.2</ele>
        <time>2015-10-07T13:51:32.000Z</time>
      </trkpt>
    </trkseg>
  </trk>
</gpx>